GFSGBSN_250_spd_000.txt.gz
Wind_Speed
44 45 46 46 47 47 47 46 45 44 43 43 42 41 40 41 41 42 40 38 36 33 32 30 27 24 22 22 20 15 13 9 9 11 15 17 18 21 24 27 27 18 8 6 7 4 2
41 43 46 50 52 52 52 52 53 53 53 52 51 49 46 45 43 42 41 43 41 40 38 36 34 32 28 26 23 20 17 14 10 8 12 14 16 18 21 25 25 24 18 15 6 2 7
44 47 48 50 51 53 55 58 59 59 59 59 58 57 55 52 50 46 43 42 43 44 45 42 39 39 37 29 30 26 20 18 14 11 9 11 13 13 15 17 21 21 20 20 15 10 7
47 50 51 52 55 57 59 62 63 62 62 63 62 63 62 61 57 53 51 49 46 46 45 46 45 43 44 40 37 30 27 22 21 16 12 10 11 12 10 12 15 18 16 20 19 15 13
43 48 52 55 59 61 61 63 66 67 68 69 68 67 66 67 67 63 57 57 55 53 51 49 48 47 44 47 42 39 33 30 24 22 19 13 10 14 8 7 9 11 12 14 16 15 16
32 35 37 38 42 48 55 61 65 70 71 72 73 73 74 73 73 69 67 65 62 61 60 57 55 54 49 46 43 46 41 36 30 25 24 21 17 15 15 8 3 4 6 6 7 7 9
33 34 35 39 43 45 45 48 52 58 61 67 72 75 77 78 79 78 75 72 72 69 67 66 61 58 58 52 49 48 47 42 40 31 30 28 26 21 17 13 7 3 1 2 3 4 3
34 37 41 43 44 46 48 51 52 51 53 54 55 62 68 76 81 81 80 80 79 75 76 75 70 65 61 56 56 53 49 45 43 41 36 34 37 25 19 21 15 11 8 6 5 3 3
41 43 42 43 44 47 49 51 52 54 55 54 55 57 61 60 66 77 82 83 83 82 79 87 76 75 73 59 64 59 53 50 45 45 42 44 46 32 26 23 25 20 16 13 9 10 6
43 44 40 44 45 47 48 52 54 54 57 59 58 58 61 60 58 61 69 78 82 83 84 93 84 80 79 68 69 68 59 56 52 50 46 47 48 36 33 30 30 30 24 18 18 14 10
40 42 47 47 47 50 51 52 52 56 59 60 61 61 62 63 63 56 56 59 73 76 82 94 92 85 82 76 80 73 69 62 58 57 52 47 50 42 38 39 39 39 31 22 21 21 18
45 46 47 47 51 56 56 56 54 56 55 55 58 59 65 67 67 64 62 57 50 66 70 87 93 92 88 85 85 84 78 71 68 63 57 56 58 47 44 44 42 42 35 27 24 26 27
46 48 50 55 57 55 57 60 60 60 59 60 61 59 61 66 68 68 67 67 54 46 58 78 83 91 94 90 90 88 85 82 75 69 63 61 61 55 49 47 46 41 33 32 30 25 34
52 58 60 61 61 65 61 66 63 64 63 62 64 64 63 61 65 69 71 70 64 63 54 67 76 82 93 93 94 93 88 87 83 76 74 69 65 61 53 49 50 49 42 36 36 36 38
67 70 74 72 70 68 68 68 68 68 66 64 64 65 68 64 67 70 67 68 66 66 65 61 69 78 83 94 97 97 93 89 86 83 79 75 71 69 64 61 58 51 47 46 43 42 41
72 79 78 80 81 79 75 73 71 71 72 68 68 69 69 69 67 69 71 66 63 71 70 61 58 72 80 86 96 100 97 92 90 87 85 82 79 77 74 70 63 56 55 54 46 43 41
80 84 83 84 84 89 84 79 75 72 77 74 68 74 71 69 70 70 66 65 66 72 71 63 53 62 78 85 90 96 97 96 93 90 88 85 83 83 82 73 68 64 61 57 52 49 43
87 86 84 87 88 91 89 86 83 81 84 77 74 74 73 72 71 69 66 68 68 68 65 60 55 50 72 84 85 91 95 98 97 97 93 89 87 87 81 78 77 74 67 64 62 53 49
92 93 94 93 93 93 89 90 86 88 79 81 78 79 74 73 71 70 72 65 67 64 65 60 56 50 66 81 85 86 92 99 104 102 98 93 88 85 87 85 77 71 66 65 65 61 54
100 102 105 105 104 99 99 97 96 93 88 85 84 84 79 79 74 76 69 68 70 68 66 66 62 58 53 71 81 84 89 100 105 104 96 96 90 86 84 75 74 72 69 67 68 65 57
113 115 111 106 105 106 104 104 101 97 93 90 87 84 87 84 82 75 75 65 72 70 69 69 66 63 58 48 72 77 85 95 103 102 99 98 92 87 82 84 82 77 75 74 72 67 68
123 120 116 113 114 110 110 107 106 101 101 96 97 96 95 94 92 87 80 76 73 72 72 70 68 70 61 44 54 67 82 92 101 103 101 98 89 88 84 86 86 83 78 78 76 74 70
126 122 121 119 108 108 104 98 93 93 95 96 95 95 95 96 96 94 90 85 79 78 72 75 76 73 65 53 51 65 79 85 94 99 100 96 91 92 87 86 86 89 81 79 77 77 73
130 123 117 109 105 100 93 89 82 80 80 79 82 90 94 97 97 100 97 95 86 84 76 78 77 76 71 59 48 58 71 80 86 97 100 97 93 95 88 91 95 83 83 83 81 80 75
121 108 95 90 87 82 79 77 70 69 69 69 67 67 71 81 94 101 101 98 89 89 79 81 78 77 76 63 55 56 64 78 85 94 97 97 96 95 89 91 87 86 85 85 83 80 76
104 94 82 76 73 71 68 64 63 61 59 59 57 58 62 66 74 84 88 93 93 92 85 88 81 77 75 64 60 58 59 66 78 84 90 92 94 93 89 93 92 85 82 83 82 80 74
88 81 72 70 67 63 59 56 54 52 50 50 48 51 55 60 67 66 70 74 81 88 90 93 83 78 73 66 60 59 59 62 78 88 93 89 93 92 91 91 89 85 85 85 84 77 74
79 70 66 63 60 55 52 47 44 44 42 42 41 49 52 57 57 57 58 67 76 83 90 92 85 80 72 66 61 62 58 59 79 89 87 81 83 88 90 91 89 86 84 84 80 79 73
68 59 56 51 48 44 41 38 36 34 34 35 40 43 47 54 50 51 56 62 72 80 88 91 83 79 72 64 62 64 60 60 78 82 70 78 77 77 86 87 86 85 83 81 79 78 74

GFSGBSN_250_spd_003.txt.gz
Wind_Speed
39 41 42 43 44 44 45 45 44 44 43 42 40 38 37 36 36 35 35 37 39 39 36 33 30 29 26 22 22 17 14 10 9 11 12 14 15 17 21 24 27 15 9 10 9 10 13
39 41 44 46 48 49 50 51 52 52 52 51 49 48 47 45 43 41 39 39 38 38 39 40 37 36 33 26 29 25 16 14 11 10 10 11 11 13 16 20 23 22 11 7 9 10 10
41 43 46 49 49 50 53 55 55 56 57 57 57 56 55 54 54 49 48 47 43 42 40 40 41 40 38 33 34 27 23 19 16 14 12 11 8 10 10 13 17 20 19 13 13 11 7
44 46 48 50 51 53 54 56 58 60 61 62 62 63 63 62 62 59 56 54 51 48 46 44 43 44 41 42 38 34 31 25 22 19 17 15 10 7 9 8 9 15 16 16 18 16 13
37 37 38 41 43 47 52 56 60 63 64 65 66 67 67 66 67 64 59 61 60 56 54 52 49 48 43 42 39 39 37 32 28 25 21 20 18 9 7 7 5 7 12 11 12 18 19
27 29 29 30 31 33 37 41 46 48 51 59 65 68 69 72 72 70 68 67 67 64 61 60 57 53 52 48 45 40 38 38 32 30 26 25 22 18 11 10 7 1 5 6 6 11 14
25 26 28 32 36 38 39 41 44 45 45 46 48 52 60 61 67 72 73 72 73 71 69 66 64 61 58 54 54 48 44 40 38 34 34 31 30 27 18 15 10 7 3 4 1 5 8
31 31 34 37 39 41 40 40 41 43 43 45 47 51 51 52 57 58 66 70 75 75 78 75 69 70 65 61 64 59 51 45 42 41 40 37 38 34 26 21 17 14 10 7 5 2 1
31 31 33 35 37 37 41 41 43 46 46 48 48 49 48 49 53 54 55 58 66 70 76 83 77 75 73 67 70 68 61 53 49 47 44 41 48 39 33 30 24 22 19 14 11 10 9
35 35 35 35 36 38 40 41 44 48 47 48 48 50 53 53 51 48 53 57 54 57 64 74 82 79 79 77 77 75 68 61 56 53 52 46 52 42 38 37 36 31 28 22 18 17 13
36 39 36 36 38 39 38 40 43 46 47 49 49 51 56 58 59 54 50 52 56 54 53 62 67 79 83 82 82 80 76 72 63 59 56 52 55 49 41 43 44 44 36 30 25 22 20
45 44 43 45 42 45 50 52 54 59 56 54 52 50 56 57 59 60 60 60 52 52 54 58 55 64 75 82 86 85 84 81 76 68 61 60 62 54 48 48 46 50 39 34 31 27 24
46 48 49 51 55 60 60 60 61 62 66 68 64 59 58 61 59 64 63 64 63 59 58 57 58 59 68 77 81 90 87 86 83 77 67 66 64 61 56 53 49 46 46 35 32 30 29
51 50 56 56 56 61 63 63 68 72 72 74 74 69 65 61 64 62 66 68 64 60 63 61 55 55 58 67 77 80 90 90 87 82 77 73 72 67 62 58 54 52 51 44 37 34 38
60 60 62 64 65 67 73 73 71 73 74 72 76 75 73 68 67 68 70 65 61 64 65 67 64 55 49 59 70 77 82 91 92 89 84 80 76 75 71 68 64 57 53 49 46 40 39
64 67 71 77 78 77 79 80 79 79 82 79 78 81 80 77 72 69 71 65 67 67 71 71 70 63 49 50 53 63 76 85 96 95 92 88 85 82 78 77 71 65 61 59 50 44 42
72 76 82 87 86 88 86 85 84 86 87 85 86 85 84 80 77 76 71 70 69 73 75 73 71 70 58 52 53 50 68 81 92 100 98 96 92 88 87 82 75 72 69 63 55 49 46
84 87 93 96 99 101 95 94 95 92 89 93 88 90 89 88 80 75 72 71 72 72 76 77 75 72 72 63 50 49 59 80 90 99 103 100 98 96 87 83 84 80 76 70 64 54 52
93 98 102 104 108 105 104 105 98 95 99 101 100 91 90 90 86 81 74 75 75 76 78 77 79 74 72 67 53 51 57 78 87 93 103 105 101 97 96 93 88 83 76 71 68 65 58
106 111 111 117 118 107 107 112 103 100 98 102 96 93 92 88 89 87 82 81 78 79 79 80 78 76 76 72 60 54 57 71 86 92 97 105 104 100 97 89 85 85 80 75 72 69 63
116 119 120 117 115 110 105 106 104 103 99 98 99 98 97 93 93 90 86 84 83 81 80 81 78 76 77 72 68 55 57 67 80 91 95 97 105 104 97 94 93 89 86 81 76 68 64
125 122 123 116 113 113 110 109 107 105 105 103 101 104 102 104 100 95 92 90 89 84 82 83 81 79 78 72 72 63 66 63 74 88 93 92 99 104 100 98 98 94 90 87 81 75 71
124 123 118 118 114 113 112 113 110 108 107 103 101 98 106 109 110 106 101 96 95 92 85 84 79 76 76 74 73 69 63 67 65 83 88 90 93 101 101 102 104 103 96 92 86 79 75
130 121 117 115 113 114 108 98 90 85 83 85 84 85 82 88 101 111 109 102 97 97 89 86 80 75 79 79 74 74 67 68 65 69 84 86 90 96 101 106 111 94 92 90 87 83 82
120 120 113 104 95 87 84 77 74 72 71 70 68 67 67 73 80 93 100 99 100 99 95 90 86 82 81 81 74 75 72 70 62 62 71 81 82 86 96 108 103 98 96 94 91 87 83
113 101 87 82 77 74 70 65 64 62 58 59 56 51 56 64 71 74 82 88 92 93 100 94 93 87 87 85 77 72 74 67 63 61 66 70 76 77 83 100 100 96 95 95 93 91 86
90 80 74 71 68 63 59 57 55 50 47 49 47 46 51 56 64 63 67 74 74 79 91 94 94 89 93 89 82 74 72 72 62 60 63 67 66 71 76 88 93 95 94 94 96 87 84
78 71 67 64 60 56 51 46 43 41 38 40 37 40 46 54 57 55 52 60 67 70 79 89 91 89 93 91 86 77 71 67 63 60 61 65 63 68 70 80 86 92 94 94 91 89 88
68 63 59 55 51 47 42 39 37 34 32 31 32 37 41 49 43 43 46 52 59 64 69 78 83 86 88 86 85 79 72 63 61 59 60 56 56 61 66 77 82 87 90 91 89 90 88

GFSGBSN_250_spd_006.txt.gz
Wind_Speed
34 35 36 38 40 41 41 41 43 44 43 43 42 41 39 37 34 34 34 33 31 30 30 31 33 32 28 22 24 18 16 17 16 11 7 10 13 16 17 22 16 7 10 13 8 10 13
35 38 40 42 44 45 46 47 48 48 49 49 49 48 47 46 45 43 41 39 36 36 34 33 32 32 31 28 31 23 21 19 18 17 11 6 9 11 14 15 18 10 2 6 11 13 18
37 39 41 43 45 46 47 48 50 51 51 53 54 55 54 52 51 50 50 48 46 43 42 39 39 36 32 33 31 30 28 24 21 20 18 9 6 6 8 10 14 16 9 3 6 13 15
39 42 44 45 47 49 50 51 52 53 55 56 58 57 58 59 57 56 58 57 55 50 50 48 45 44 37 36 33 34 34 30 26 24 24 18 10 7 4 3 6 11 12 9 6 7 12
30 33 36 38 39 39 41 44 47 50 53 56 58 60 61 63 63 62 62 63 62 59 56 56 53 50 45 42 39 36 36 37 32 29 28 25 20 13 10 5 1 3 7 9 12 10 12
25 26 25 26 26 28 29 32 34 37 40 41 44 47 49 54 58 64 65 66 66 65 62 60 57 55 53 51 49 44 40 36 36 36 33 32 28 21 16 13 7 3 3 7 7 8 14
25 28 30 31 32 33 34 37 40 42 41 42 43 45 46 47 48 52 53 59 65 68 71 67 65 64 57 57 57 53 48 42 38 36 36 38 35 32 21 17 15 10 8 7 8 3 5
31 33 35 34 33 33 35 39 41 40 41 41 44 47 45 44 45 41 48 51 56 58 65 70 69 71 67 63 64 60 57 51 46 43 40 38 41 41 30 24 23 18 15 13 11 10 8
35 37 37 38 38 42 44 42 41 39 43 43 44 47 48 48 51 50 46 42 46 52 58 65 65 69 71 70 67 67 64 60 55 49 46 43 47 46 37 33 30 26 23 19 15 14 15
39 40 41 42 42 46 47 44 43 44 43 43 45 47 51 50 50 46 50 52 45 42 47 58 58 59 65 71 73 71 70 68 63 59 55 52 50 50 43 39 38 35 31 26 20 20 19
42 41 41 44 48 49 49 50 46 48 48 54 57 55 54 55 50 50 55 54 55 53 45 46 51 56 58 65 71 74 75 74 72 68 62 58 57 55 48 46 44 45 39 32 29 27 20
48 45 49 52 51 49 50 49 51 53 56 59 61 60 63 62 60 58 58 54 54 59 54 55 51 49 54 60 65 71 77 78 78 76 70 67 63 61 55 54 52 50 43 38 34 33 25
52 54 55 56 58 57 56 55 57 59 59 58 58 62 63 68 66 63 63 63 61 58 54 62 61 54 51 51 62 67 73 80 82 81 78 76 69 68 61 57 58 57 45 39 35 35 29
63 61 63 63 64 64 64 66 64 63 66 68 70 69 71 73 75 72 66 66 66 61 58 64 63 62 58 51 48 57 66 74 83 86 84 82 76 73 68 61 62 62 55 45 42 38 38
65 67 68 71 72 70 70 70 73 71 76 78 77 76 76 78 84 82 78 66 68 69 65 67 69 66 63 57 53 51 60 71 76 84 88 87 83 84 78 74 70 65 62 52 51 47 44
74 72 74 74 74 77 80 79 79 79 83 85 87 88 90 89 89 90 83 74 75 74 74 74 70 72 67 65 61 54 50 59 69 78 86 90 89 88 87 83 78 72 66 67 56 51 45
81 79 81 79 80 81 81 79 82 87 94 96 96 96 100 104 99 98 90 84 85 83 80 79 77 73 73 71 67 64 57 56 59 73 81 88 94 94 94 88 82 78 76 70 62 58 51
86 86 82 83 87 87 91 93 96 101 102 104 105 106 109 113 114 109 103 100 96 91 86 83 81 81 78 73 71 71 64 63 57 69 80 82 90 97 94 93 92 89 85 80 73 59 54
92 89 92 95 97 98 101 105 105 108 111 114 114 110 111 118 113 114 109 108 101 100 93 85 84 82 78 72 76 72 71 68 64 64 71 81 82 92 99 99 97 95 86 82 76 68 61
96 101 102 104 106 107 108 112 115 120 123 125 127 120 117 115 117 115 115 105 107 101 96 85 85 83 82 77 71 74 73 73 70 68 66 74 81 85 94 99 100 97 93 88 85 77 67
106 112 113 114 117 116 114 115 121 122 121 129 133 130 128 124 120 116 115 108 101 102 100 90 88 84 80 79 75 74 76 76 74 68 63 66 78 82 90 97 103 101 97 95 93 82 78
118 119 121 119 121 127 125 122 127 131 133 137 138 138 135 130 128 123 121 112 106 99 99 90 87 86 84 82 79 76 77 80 76 73 66 61 71 79 86 93 105 106 103 98 96 92 84
121 122 124 120 126 125 130 132 125 123 118 109 109 106 108 113 119 119 122 118 116 108 100 96 92 86 81 82 80 79 75 80 79 72 68 63 63 74 78 91 99 108 105 102 96 96 92
121 119 121 123 121 114 103 97 91 89 84 80 79 78 78 82 85 93 104 114 119 119 110 103 98 92 86 84 83 82 78 78 79 73 71 63 60 65 76 84 95 95 103 104 102 98 94
118 115 113 104 96 87 83 79 75 69 66 63 62 62 62 64 67 71 79 88 110 113 116 111 106 101 92 89 84 82 81 79 76 74 70 65 61 63 67 80 85 86 97 106 105 101 96
112 100 91 87 80 73 70 66 61 57 54 53 52 52 53 57 59 60 63 69 79 85 95 104 107 104 97 94 90 87 84 75 76 75 71 63 61 62 65 71 75 87 87 94 104 101 95
95 86 77 71 66 63 59 54 51 47 44 43 41 41 43 50 53 53 57 59 65 74 82 84 87 100 102 98 90 85 83 78 74 72 70 63 62 59 63 67 72 78 83 88 98 94 98
77 70 65 63 59 54 52 49 46 42 39 39 35 34 38 43 44 48 48 53 59 64 69 74 83 94 98 96 89 84 81 77 73 68 66 63 61 61 61 62 66 67 72 82 86 90 97
66 62 58 55 52 50 46 42 39 36 33 33 29 29 33 35 36 39 43 45 51 54 57 63 75 86 95 94 88 83 77 75 69 68 65 63 60 58 59 61 54 55 64 67 73 82 92

GFSGBSN_250_spd_009.txt.gz
Wind_Speed
31 33 35 36 38 39 39 40 40 41 42 42 42 41 41 40 40 38 36 34 32 32 31 27 25 23 23 25 30 19 21 23 20 14 11 12 10 10 13 15 15 11 10 16 15 15 15
30 32 35 36 38 40 41 41 42 44 46 46 46 46 47 46 45 45 45 43 41 37 36 33 30 27 25 25 26 27 27 26 24 22 17 12 12 8 8 10 13 13 3 9 14 14 16
35 36 37 39 40 42 43 44 44 45 47 48 47 48 48 50 50 50 50 49 47 46 44 41 39 35 32 31 29 29 30 27 28 27 22 17 13 11 7 5 7 10 6 1 9 14 16
37 38 39 40 41 44 46 47 47 49 52 53 53 53 53 53 53 53 55 55 53 51 50 49 46 45 41 39 36 33 30 31 29 30 28 23 19 15 11 6 5 7 9 9 3 6 13
34 33 33 33 33 34 36 38 41 42 43 45 48 49 51 52 54 56 58 59 59 58 55 54 54 52 48 46 45 41 37 35 31 33 33 30 25 19 16 11 7 3 3 8 8 2 5
28 27 27 28 29 30 31 33 35 36 36 36 36 36 40 43 43 43 46 48 53 58 61 60 60 56 57 54 53 49 46 41 39 34 35 37 33 25 21 19 13 7 3 1 6 7 3
26 27 29 30 32 33 34 36 39 41 40 38 39 38 37 38 36 37 38 38 39 47 51 51 56 61 60 58 57 53 51 50 45 41 37 40 38 35 28 22 20 15 10 8 5 6 5
29 31 33 35 37 39 40 40 41 41 40 43 41 38 34 38 37 38 35 39 36 34 39 42 48 55 57 64 64 58 57 56 54 50 43 40 41 44 34 28 27 22 17 14 12 10 11
34 35 36 38 40 42 43 44 44 47 47 45 44 44 43 42 42 43 45 42 43 36 41 36 40 45 50 56 62 65 64 61 59 57 52 46 48 52 37 33 33 30 26 22 19 15 14
37 39 38 40 41 42 45 47 48 49 51 50 48 49 50 47 47 50 51 48 47 46 44 49 43 41 45 48 54 58 67 67 64 63 61 54 53 54 47 38 37 37 34 29 26 21 20
43 43 43 45 49 50 48 50 51 53 54 55 55 56 58 55 50 52 54 54 52 48 49 45 47 52 40 44 44 52 59 66 68 69 65 63 60 58 55 48 45 44 44 38 33 29 28
45 45 47 50 50 50 52 55 56 58 59 59 60 59 63 61 62 56 54 54 55 56 51 50 50 53 56 55 43 46 54 60 64 69 71 70 68 63 60 60 54 52 51 43 38 36 33
52 53 54 54 57 59 60 60 61 62 63 65 65 68 67 70 68 65 62 61 59 55 58 57 55 56 57 58 59 47 43 52 61 62 70 77 73 71 68 65 63 60 54 48 42 37 36
59 62 64 64 64 63 66 66 69 68 68 69 71 70 70 76 76 74 72 72 65 60 61 64 63 62 59 61 59 61 57 43 54 63 66 74 77 77 76 69 69 67 63 53 50 44 45
61 64 68 72 71 73 75 76 75 73 74 75 75 75 79 79 82 83 81 77 70 71 72 70 70 71 67 67 63 60 61 61 51 58 64 68 75 83 80 78 77 69 71 57 60 54 49
69 73 74 77 80 81 82 83 84 85 82 77 75 78 82 84 87 89 86 76 76 80 81 82 78 75 75 72 72 66 64 67 67 52 60 68 73 78 85 87 81 78 71 73 62 57 52
77 80 83 85 86 88 90 92 90 90 89 85 83 86 89 90 90 92 90 86 91 91 92 87 85 84 81 81 79 75 71 72 72 66 60 62 71 77 84 84 84 84 78 78 72 69 60
84 86 88 90 94 96 98 97 96 92 95 94 96 96 98 99 102 104 101 100 101 99 102 95 92 89 91 91 88 85 80 79 79 74 69 64 64 74 75 86 92 90 87 87 84 72 63
89 92 96 99 101 102 104 107 107 107 108 109 108 111 112 111 111 113 111 110 110 108 103 104 98 96 97 97 94 88 88 86 84 79 77 71 63 68 75 79 90 91 89 87 84 79 73
98 101 106 107 113 117 118 121 122 121 121 122 122 123 127 128 126 127 126 124 121 118 116 112 107 103 103 98 95 90 89 91 88 83 78 76 70 59 69 74 83 97 96 95 94 90 81
107 113 116 121 128 129 133 137 139 140 140 142 143 142 146 144 143 144 140 136 134 130 126 124 118 113 110 104 96 93 89 93 90 85 80 79 73 70 63 69 77 84 98 99 100 93 90
120 126 131 138 143 146 146 148 147 145 144 142 145 149 148 147 148 151 152 150 143 146 144 140 135 119 118 110 94 92 92 94 90 87 79 78 74 67 62 61 74 80 88 101 101 99 95
133 140 145 149 153 152 148 148 144 141 141 137 137 137 139 139 134 142 143 143 140 143 135 135 137 132 125 117 111 100 97 94 91 86 77 79 77 70 61 61 70 80 76 87 99 102 99
145 151 151 152 150 147 129 118 105 98 92 90 89 90 90 90 91 88 95 96 88 105 117 128 129 130 130 123 114 97 92 91 88 82 76 73 73 68 64 69 66 56 74 83 95 103 105
150 152 150 129 115 97 87 80 76 72 69 68 67 65 65 68 69 70 71 74 74 76 84 100 113 123 119 116 106 94 89 87 84 82 80 79 73 74 71 65 57 59 75 78 84 93 100
130 109 102 88 82 76 70 66 63 59 57 56 54 52 54 57 57 57 59 59 60 65 74 81 89 103 114 111 109 103 96 87 86 83 78 75 75 73 70 63 58 57 67 70 78 81 94
94 86 82 77 71 65 60 56 52 49 47 46 45 44 45 47 45 49 50 51 52 55 59 67 72 90 100 108 111 101 95 84 82 81 77 70 71 69 66 61 56 66 57 65 73 75 87
83 79 73 65 59 56 52 48 46 44 43 43 40 38 40 37 36 39 41 44 45 48 55 59 67 76 91 101 101 98 90 87 83 81 75 69 66 65 64 65 63 54 57 63 69 68 74
67 62 58 53 49 46 43 42 40 38 36 34 32 32 31 30 32 33 35 38 42 46 50 53 58 66 77 91 99 100 91 88 83 83 77 70 64 62 66 65 58 51 59 66 68 67 66

GFSGBSN_250_spd_012.txt.gz
Wind_Speed
32 33 34 36 37 38 39 40 41 41 41 41 41 42 42 41 40 39 38 36 35 34 32 29 28 26 25 21 23 17 24 23 19 19 18 13 11 12 15 12 13 10 1 18 20 16 17
34 34 35 36 37 38 40 41 43 44 45 46 46 46 47 47 47 46 45 43 41 41 38 37 33 31 30 28 25 24 19 23 24 22 21 18 12 11 12 14 13 12 10 1 8 11 16
32 33 35 37 39 40 40 42 43 43 45 46 47 47 47 47 48 47 47 47 46 45 44 43 42 40 38 36 33 29 29 24 24 25 23 22 17 13 11 10 9 11 12 8 6 13 15
39 40 41 42 43 45 45 46 46 48 50 50 51 52 52 51 51 52 52 50 49 48 47 46 46 45 45 45 41 37 35 33 28 27 26 25 22 19 14 12 9 6 5 8 6 8 12
42 42 42 42 43 43 42 42 43 44 44 45 44 45 45 44 44 44 44 44 45 45 48 50 49 48 47 48 49 46 43 42 38 32 30 28 26 24 21 16 12 8 4 5 6 3 4
37 35 34 34 33 33 34 33 32 32 33 35 35 34 34 35 35 36 36 34 35 38 38 39 43 49 54 51 51 51 50 47 45 41 36 34 31 27 27 23 16 14 9 3 3 4 3
32 32 31 31 30 30 32 33 34 34 35 38 37 38 39 36 38 35 33 33 33 31 30 28 34 38 40 49 57 56 53 54 51 49 44 41 36 31 32 27 22 20 15 11 6 2 4
32 33 32 31 32 33 34 36 38 39 39 39 42 41 40 41 41 40 38 36 36 33 30 26 24 25 26 32 45 52 54 54 55 55 52 46 41 42 36 31 27 26 22 18 13 11 9
35 35 36 37 38 39 38 38 38 38 39 39 41 46 46 45 47 46 45 44 39 36 33 32 33 35 27 24 27 37 46 51 52 55 56 52 50 50 45 34 31 32 29 24 19 17 14
39 40 41 41 43 44 44 43 44 44 43 43 45 48 49 49 49 50 50 52 48 44 38 41 36 39 36 32 34 27 34 40 46 50 58 56 57 53 51 44 37 35 37 32 27 21 22
41 40 40 43 44 47 47 48 49 47 47 49 49 50 55 53 52 53 53 57 55 53 47 46 41 43 43 39 34 32 30 31 37 42 46 62 61 59 55 53 48 41 45 39 36 29 30
47 46 48 50 51 50 51 53 54 54 54 56 56 55 56 56 61 53 57 59 61 60 49 55 49 49 49 45 41 38 36 30 30 34 40 49 62 62 62 58 57 53 48 48 40 38 32
55 56 57 57 57 57 57 60 61 62 64 64 65 64 63 64 65 63 63 61 62 56 62 62 61 58 58 55 51 43 44 44 42 20 33 40 49 62 67 64 62 60 56 51 47 39 35
62 63 65 65 67 67 67 66 66 66 70 72 72 71 75 76 75 71 71 70 62 58 62 71 71 66 64 65 62 59 52 46 43 45 30 35 36 52 65 71 69 67 65 59 51 47 45
69 69 71 72 72 74 76 77 75 76 79 78 81 81 80 78 81 82 79 73 65 67 69 71 72 74 69 68 69 65 57 53 52 47 51 36 29 37 50 68 77 69 72 62 62 58 54
71 74 76 76 76 78 80 80 82 83 87 87 87 87 90 89 89 87 82 74 72 73 75 81 77 76 75 73 72 73 64 59 58 54 54 51 43 40 42 51 67 78 74 75 69 64 57
76 78 78 80 82 84 86 85 87 89 93 95 92 91 97 94 94 93 86 81 80 79 80 81 80 79 79 79 80 77 72 69 66 64 59 60 60 46 48 40 51 74 81 77 77 73 68
79 80 82 86 90 92 94 96 98 99 102 101 100 99 103 101 99 100 94 94 93 87 89 91 91 86 84 85 84 84 80 78 77 72 71 65 67 66 54 46 50 58 72 83 83 77 73
85 89 93 97 102 103 105 107 110 110 110 110 111 110 115 118 113 114 111 108 108 104 102 103 104 98 95 97 95 89 88 84 84 82 78 72 69 68 61 48 44 45 55 75 87 85 81
96 98 103 107 111 115 119 123 125 124 125 125 124 123 127 131 129 129 130 127 126 121 117 116 117 113 106 103 103 99 97 91 94 89 86 82 75 69 64 61 67 58 59 65 80 89 83
105 107 113 118 123 127 132 135 134 134 136 136 137 134 137 136 138 141 142 136 137 135 133 133 129 123 122 116 111 106 105 102 101 96 94 90 85 78 66 69 72 59 54 62 69 81 91
113 119 124 129 134 137 139 143 145 144 147 147 149 151 148 144 146 147 144 142 139 141 146 141 138 135 134 128 125 120 114 110 105 100 96 95 90 85 79 74 72 65 63 56 59 67 82
125 129 133 138 144 148 150 151 148 140 136 124 118 110 97 95 93 97 103 108 118 115 123 128 138 136 137 138 132 124 120 115 108 107 102 99 95 93 86 76 75 73 41 56 60 66 74
131 138 144 147 144 135 125 114 107 102 96 92 89 87 83 83 80 82 84 87 84 84 94 111 115 129 137 133 131 128 123 119 113 109 105 102 99 91 85 81 78 45 65 61 58 65 71
141 141 128 120 109 104 94 89 86 81 75 72 70 68 67 69 67 68 69 69 69 73 74 75 86 110 117 123 130 134 128 124 120 115 110 103 94 82 79 74 64 64 61 64 63 56 63
127 116 104 92 84 79 76 75 72 68 62 61 58 56 56 58 55 54 55 56 57 58 62 62 75 79 82 94 116 127 126 121 118 120 113 100 94 77 72 69 61 54 65 64 64 55 67
102 90 82 78 74 70 66 63 59 56 52 51 48 46 47 49 41 48 47 47 48 50 53 56 62 66 72 77 86 95 112 115 115 115 108 98 93 65 70 68 64 67 68 67 67 53 56
83 78 74 67 61 56 53 50 48 46 43 42 41 40 41 40 37 41 40 39 40 43 46 52 54 57 61 64 69 76 96 110 112 109 100 91 84 73 74 68 67 67 60 48 58 55 54
73 66 60 55 51 48 44 41 39 37 35 32 32 32 33 31 33 33 33 35 36 38 42 46 48 46 53 59 68 69 80 92 103 100 87 84 85 73 71 63 65 66 68 69 68 58 54

GFSGBSN_250_spd_015.txt.gz
Wind_Speed
31 32 33 34 35 36 37 37 39 40 41 42 42 41 41 40 38 37 37 37 36 35 34 33 31 28 27 24 24 20 19 17 15 14 14 13 9 9 9 9 11 11 8 10 23 23 19
35 36 37 38 38 38 39 41 42 43 44 45 45 46 46 46 45 44 44 43 42 42 41 41 39 37 33 32 30 26 23 21 20 17 16 17 14 8 10 9 11 12 11 7 2 16 21
37 37 38 39 39 41 41 41 42 43 44 45 46 47 47 47 47 46 45 44 43 41 41 41 42 42 42 39 37 35 32 28 25 22 19 18 19 14 10 11 10 13 14 13 9 7 8
37 39 40 41 42 43 44 45 46 47 47 49 50 49 49 49 50 50 49 47 45 44 43 45 45 44 45 44 43 42 41 38 32 29 26 22 20 21 14 12 11 10 12 13 12 9 6
43 45 46 47 47 48 48 47 48 49 49 48 46 44 42 41 42 42 39 35 35 34 34 37 41 45 46 48 46 46 46 46 42 37 33 29 26 23 23 18 14 13 12 11 11 10 5
46 47 48 50 49 49 47 46 46 42 38 38 35 33 34 35 33 34 33 30 30 29 30 31 32 34 39 42 47 49 49 49 48 45 41 37 33 28 26 26 18 16 16 13 10 8 3
48 49 50 49 47 46 43 39 37 35 36 35 35 36 35 34 36 34 32 33 31 27 28 26 26 28 29 31 36 41 48 50 50 51 46 43 38 37 34 30 21 22 22 18 13 8 5
50 49 48 45 46 43 41 38 35 35 36 37 38 37 38 38 40 39 37 39 37 32 34 30 27 27 26 24 26 26 37 41 45 53 52 48 48 45 41 34 30 25 26 23 19 13 6
49 47 46 45 44 43 42 41 41 41 41 42 42 39 39 38 40 39 38 40 38 36 35 40 29 34 27 30 26 26 24 31 36 43 53 53 53 50 47 42 36 31 32 29 24 21 12
50 49 48 48 48 47 45 46 47 47 48 47 47 46 46 42 41 43 40 44 37 38 29 44 33 40 41 34 38 25 27 26 26 32 39 49 56 53 51 46 45 37 39 36 31 25 21
53 53 53 53 51 51 53 50 48 50 50 48 48 47 50 47 48 44 44 48 43 39 27 41 41 45 47 43 42 41 31 26 25 20 25 41 48 56 55 52 50 49 43 42 37 30 27
58 59 59 58 57 56 55 56 54 55 56 56 55 54 55 55 60 51 54 54 51 45 34 45 43 48 51 51 48 45 40 37 34 26 21 29 29 42 58 59 53 56 50 47 44 35 28
60 60 63 65 66 67 65 63 64 64 64 65 64 64 64 66 65 62 64 62 61 52 51 52 57 52 53 53 55 50 48 44 40 33 36 29 24 26 41 58 61 58 56 53 48 39 31
66 67 68 71 74 74 73 73 72 72 73 72 73 73 75 73 75 70 71 70 63 59 62 68 67 59 56 58 59 56 54 51 50 43 45 39 31 32 30 35 59 62 61 56 53 48 47
71 72 74 76 76 79 81 80 79 80 82 79 78 78 79 80 80 80 79 77 71 73 72 76 77 69 61 59 65 66 58 56 56 54 48 46 42 41 29 28 39 54 58 62 65 61 56
75 76 77 77 77 79 81 84 85 84 86 87 85 85 90 89 87 86 83 76 79 80 79 82 81 81 76 73 67 69 67 61 61 60 57 52 49 47 41 31 25 30 46 62 62 63 58
81 82 84 85 85 87 88 87 88 89 91 94 91 90 98 98 95 94 88 86 88 89 92 90 86 84 82 79 79 76 66 66 67 66 64 63 55 52 50 35 37 34 31 40 67 68 66
84 87 91 93 95 96 94 93 93 95 97 98 99 97 106 107 106 102 98 97 98 96 98 98 94 91 88 85 85 85 77 69 73 74 69 67 67 56 53 49 41 36 36 35 51 58 71
84 88 93 97 101 103 104 105 105 107 107 106 107 108 115 117 111 112 111 108 107 104 105 106 105 106 102 97 95 91 83 75 76 78 73 73 67 64 61 50 49 50 47 48 41 47 64
90 94 97 99 103 108 111 114 116 117 119 120 119 117 120 125 124 122 123 116 115 113 111 114 113 114 112 109 108 101 95 86 85 80 80 80 74 67 67 63 67 57 57 51 49 43 48
93 98 103 106 109 112 117 119 123 125 126 126 128 127 129 130 134 134 132 127 129 125 128 125 124 123 120 116 114 107 105 98 97 89 89 90 83 76 70 72 75 64 59 54 53 42 47
100 106 112 117 120 124 127 130 132 134 137 137 139 139 142 142 145 146 143 143 140 136 135 133 136 129 130 126 124 118 114 111 106 102 100 97 91 87 80 77 78 74 62 59 56 51 47
108 114 119 124 129 131 133 135 136 134 132 130 127 125 125 130 134 137 143 139 136 135 140 143 148 140 140 139 134 126 124 121 113 111 109 105 98 94 85 83 86 86 62 68 66 56 54
121 127 127 123 117 108 101 96 92 89 87 86 86 85 82 87 86 89 95 95 96 98 101 116 127 135 141 145 144 136 133 126 120 116 120 113 108 102 94 90 93 71 74 73 73 61 54
115 109 102 96 92 86 82 76 72 70 68 66 67 66 66 68 68 71 73 75 76 77 78 89 95 99 112 124 129 133 131 134 130 125 124 119 114 105 101 98 86 79 77 81 80 62 64
101 96 86 80 75 70 66 63 61 60 57 56 54 52 53 55 53 55 60 61 63 62 60 64 71 76 89 97 107 117 125 128 126 128 124 120 117 112 106 100 89 77 83 85 81 70 65
86 79 73 69 65 60 57 55 53 51 48 46 44 40 43 43 38 45 47 49 49 51 53 56 58 61 63 68 84 97 108 115 114 114 122 121 120 117 108 98 91 85 87 87 86 73 65
73 69 66 60 54 50 49 47 44 40 36 34 34 32 34 32 32 38 37 37 38 39 42 45 47 49 52 57 68 77 87 97 103 107 117 121 121 112 107 99 95 88 89 86 78 75 61
66 61 56 49 46 44 41 37 33 29 25 24 25 26 26 25 29 26 29 30 32 34 35 36 37 40 42 47 58 63 65 73 82 97 107 110 114 104 104 106 99 90 84 78 71 70 59

GFSGBSN_250_spd_018.txt.gz
Wind_Speed
32 33 34 34 35 36 37 38 39 39 39 38 39 39 39 39 38 37 36 35 35 34 35 33 31 30 30 28 25 23 23 20 19 19 15 8 9 10 11 8 7 8 8 9 12 14 19
35 36 37 37 38 40 41 42 42 42 42 42 43 42 43 42 42 40 40 40 39 39 40 40 41 38 36 35 32 31 28 26 24 21 21 16 12 11 12 14 9 8 7 10 12 11 11
42 41 41 43 43 44 44 44 44 45 46 46 46 47 46 46 45 45 44 43 42 42 41 41 40 38 40 41 40 37 36 33 31 27 25 22 17 16 13 14 14 12 9 7 12 13 10
39 42 44 44 44 44 44 46 47 47 47 48 49 50 50 50 48 48 47 46 46 45 45 47 47 44 45 43 42 43 42 41 39 36 32 28 25 20 19 17 15 14 14 10 6 9 9
47 48 48 47 48 47 48 50 51 53 53 54 54 52 52 52 52 50 47 43 40 36 34 35 38 37 38 40 44 44 45 44 43 43 40 36 31 28 24 23 20 15 15 14 10 6 13
52 52 51 51 51 53 55 55 54 55 55 56 56 54 52 48 46 46 42 38 34 30 28 28 29 29 30 32 34 38 41 47 46 47 45 43 40 36 31 30 23 19 18 17 13 8 14
50 50 52 55 56 56 56 58 58 58 56 53 49 44 43 41 43 40 35 34 33 32 31 28 28 25 24 25 28 29 32 35 42 48 49 46 45 45 41 36 27 24 23 23 14 13 6
54 55 55 57 58 59 59 58 57 56 52 49 45 45 45 42 42 41 39 40 36 29 34 32 31 31 26 26 27 22 25 29 33 37 45 51 51 48 45 41 36 31 28 28 21 16 11
57 58 59 60 60 60 59 57 56 57 53 51 48 46 46 46 43 41 39 39 35 34 34 39 33 35 27 29 29 29 21 25 27 29 34 43 55 51 49 46 43 38 35 31 28 18 14
60 62 62 61 60 59 59 57 56 56 55 54 53 51 52 53 49 47 45 44 36 34 28 42 31 34 35 32 35 32 30 26 21 21 26 33 44 52 54 51 49 45 45 37 31 24 22
66 66 64 63 62 63 63 62 60 61 61 60 58 57 58 57 56 51 51 49 44 40 31 41 36 38 38 38 44 37 37 34 29 18 17 27 30 43 51 57 53 56 50 44 40 31 27
68 69 69 67 67 65 66 67 65 66 65 64 63 63 60 60 61 56 55 54 51 47 36 42 43 43 45 43 42 40 38 37 33 27 29 28 23 27 44 50 55 63 54 52 48 38 25
70 71 73 74 73 72 71 70 70 73 72 70 70 68 68 71 65 65 62 59 59 50 50 54 50 51 50 47 46 44 39 37 40 33 38 34 28 25 29 42 51 61 60 56 52 44 33
71 73 76 77 79 79 76 76 75 76 78 77 78 78 80 78 77 72 73 69 63 62 64 63 59 58 59 61 59 55 48 38 41 40 46 39 35 40 32 28 40 49 58 59 55 53 50
78 80 80 80 83 84 83 81 79 80 82 82 83 86 89 89 85 82 82 78 74 75 74 72 71 70 65 68 65 61 52 49 49 46 45 44 43 45 34 36 30 37 41 62 61 58 55
80 81 81 85 86 86 89 89 88 87 88 88 87 88 93 92 92 91 90 86 83 82 81 80 80 79 73 71 69 68 62 53 55 56 53 48 50 44 44 39 31 31 40 46 57 60 57
73 73 75 76 80 87 90 93 93 91 91 93 94 93 98 98 95 95 94 94 94 93 91 89 86 85 82 80 74 70 66 64 61 64 65 60 54 53 47 32 40 40 38 37 42 53 62
72 75 78 79 81 81 84 90 94 95 97 100 101 102 109 103 107 104 99 101 104 102 102 98 95 91 90 89 81 74 68 71 73 69 69 66 66 61 50 48 42 34 43 35 35 31 47
75 79 83 85 87 89 90 91 95 99 101 102 103 105 111 114 115 114 110 107 105 106 107 108 102 98 95 93 88 82 74 76 78 75 74 76 69 64 59 52 44 40 42 42 37 36 34
84 88 92 94 96 98 99 101 103 104 105 105 107 110 113 116 117 118 116 115 116 114 111 112 110 106 100 95 95 90 86 83 85 83 79 81 75 65 59 56 62 54 53 47 39 36 34
91 95 100 103 104 108 109 110 109 111 111 111 113 115 116 120 119 119 119 122 123 122 121 118 115 116 111 107 105 102 95 90 89 88 89 84 74 71 66 66 67 59 58 54 41 35 28
103 108 112 116 117 119 120 121 122 119 120 119 120 121 122 122 126 125 127 126 127 128 128 127 126 126 119 113 110 110 107 102 99 97 95 93 81 83 74 71 68 69 65 55 49 46 34
112 111 109 107 105 103 101 100 98 96 96 95 97 97 100 112 122 129 131 130 132 133 133 132 130 130 127 126 122 115 112 110 106 109 106 100 91 90 84 81 76 83 59 62 59 56 48
99 93 88 84 81 76 73 72 70 69 68 69 70 73 76 84 89 94 99 108 119 128 134 133 139 139 138 133 131 123 121 115 113 114 116 112 103 99 91 94 96 64 71 69 68 64 59
95 87 78 72 67 65 62 58 56 54 53 52 54 56 61 67 69 71 76 81 87 95 101 116 131 140 137 135 136 134 129 125 122 121 119 115 114 106 102 102 93 84 73 75 76 68 68
84 73 65 59 56 54 52 50 48 47 46 45 47 47 51 53 51 57 60 64 68 72 78 85 92 95 100 114 125 133 132 131 131 127 122 121 117 115 111 109 102 88 85 80 83 79 71
70 62 57 53 51 47 45 43 42 41 39 37 36 37 40 38 40 45 46 51 54 58 64 69 74 77 79 84 86 93 112 135 140 135 128 129 127 123 120 114 105 96 92 90 91 76 74
64 58 54 50 47 43 41 40 39 37 34 29 25 26 25 26 33 33 35 37 41 46 49 53 58 61 66 70 74 82 87 97 112 129 135 137 135 133 127 124 115 105 102 99 89 85 75
62 56 51 49 45 41 37 34 32 28 24 21 19 16 15 19 20 25 27 29 31 34 37 40 43 48 52 57 59 62 70 77 84 102 124 134 134 130 128 127 120 107 103 99 92 85 78

GFSGBSN_250_spd_021.txt.gz
Wind_Speed
33 33 34 35 36 37 38 38 39 39 39 40 40 40 40 39 39 39 40 40 40 39 39 35 33 31 32 30 30 29 25 24 21 21 18 15 13 12 11 12 12 12 14 12 14 17 22
37 38 38 40 41 42 43 43 44 45 44 44 45 46 45 44 44 42 41 40 41 41 40 40 39 37 36 34 35 36 33 32 29 25 25 22 18 17 15 11 15 14 12 11 10 8 12
41 42 43 45 46 46 46 46 47 49 49 48 48 48 47 47 46 44 43 43 44 44 44 45 44 43 42 40 39 40 39 37 37 33 31 28 25 21 20 15 17 17 15 10 7 7 14
44 46 47 47 47 48 49 50 50 50 50 49 48 49 49 49 48 48 47 47 47 46 47 48 47 47 46 44 44 44 43 41 41 41 38 34 31 28 26 20 21 19 15 12 11 10 12
45 47 50 49 50 51 53 54 54 53 52 52 52 53 54 54 54 53 52 51 51 50 49 51 51 51 50 47 46 48 48 48 45 43 44 41 38 38 29 29 26 21 17 17 12 12 11
49 52 54 55 57 58 58 57 56 57 56 57 58 58 56 56 56 55 51 51 49 47 45 45 44 43 43 42 41 41 42 44 47 48 47 44 44 43 41 35 33 23 20 21 12 14 12
53 56 55 55 54 55 58 57 56 59 61 61 60 61 62 59 58 55 51 48 45 42 42 41 42 40 38 36 37 37 36 38 39 41 48 49 48 49 47 42 37 31 26 24 18 17 11
54 55 58 59 60 61 61 62 62 62 61 62 62 63 63 61 59 55 51 46 44 42 42 41 42 40 36 34 34 32 33 32 31 31 36 42 52 50 48 47 42 39 34 31 24 19 15
56 57 59 60 60 61 62 63 64 64 66 67 65 63 64 62 57 54 51 49 45 43 43 45 43 44 37 36 39 36 36 31 27 25 26 32 37 46 52 50 48 44 44 39 31 21 20
62 64 66 68 68 68 68 68 68 67 66 68 67 62 63 65 61 58 55 52 50 46 40 47 41 44 43 41 43 40 41 34 31 24 23 27 25 33 43 51 52 48 52 41 35 28 24
66 68 70 71 73 75 75 74 73 72 69 68 68 68 66 67 66 62 61 58 56 53 46 49 45 42 44 44 44 43 41 35 37 35 24 26 25 26 27 43 48 57 51 46 40 33 26
71 72 73 74 74 74 74 75 77 77 74 73 72 71 72 72 72 69 66 64 62 60 49 52 51 48 48 46 46 47 40 37 41 37 35 35 25 23 26 26 36 53 53 49 45 40 27
76 78 80 80 79 79 79 79 78 78 78 78 77 75 77 77 77 74 76 73 69 61 55 55 54 57 55 54 49 47 44 40 40 41 41 40 35 30 27 27 28 34 44 48 48 41 40
81 83 85 86 87 87 85 84 84 83 81 81 83 84 86 78 80 82 81 79 75 65 65 62 60 63 63 60 56 51 47 40 41 39 42 39 39 39 39 34 30 30 31 33 43 50 48
69 73 76 79 80 82 84 85 88 90 91 91 90 91 92 86 85 88 89 85 77 75 73 72 71 69 66 68 63 60 55 51 51 49 46 42 40 42 38 41 32 35 25 34 28 41 47
75 77 77 77 77 79 81 81 81 82 83 83 84 93 95 92 91 91 92 89 89 87 85 83 84 77 74 73 72 69 65 62 58 56 57 51 47 46 41 36 28 32 38 29 25 25 38
76 76 77 77 79 81 83 84 84 85 86 84 83 85 87 94 96 97 96 94 93 94 95 93 90 88 83 81 78 75 73 69 66 62 61 59 55 52 49 36 37 36 35 32 29 24 23
73 76 79 82 84 87 89 91 91 91 92 91 90 90 89 90 98 100 100 100 99 100 99 94 95 93 92 87 85 83 80 78 72 69 65 64 60 55 52 48 46 39 33 30 22 28 25
80 85 90 94 97 99 100 100 100 100 99 98 98 96 96 96 98 98 104 107 106 105 106 102 100 96 95 97 95 90 85 85 79 74 72 67 64 62 60 59 50 42 39 33 31 32 23
92 96 100 104 108 110 112 113 111 110 109 107 105 103 101 100 103 103 102 107 110 109 109 108 106 103 100 98 98 96 91 90 87 83 78 74 68 66 62 64 59 50 46 43 36 27 28
98 99 101 102 106 108 111 112 110 110 110 111 113 114 112 110 105 106 108 108 109 113 113 113 114 109 109 107 105 102 97 95 94 90 86 81 74 71 67 65 62 56 51 46 35 32 28
101 98 93 89 88 87 86 86 89 88 91 93 93 93 98 111 115 114 111 110 112 112 113 116 115 114 113 114 112 108 104 101 100 99 95 89 82 78 72 68 69 64 56 48 42 41 38
103 90 83 77 72 68 66 64 61 62 63 66 69 75 82 83 88 99 112 117 118 116 116 117 116 116 116 115 114 114 113 109 106 103 99 94 90 86 79 80 78 71 48 53 50 47 45
95 85 74 69 65 61 58 55 53 52 52 52 55 58 62 69 72 77 84 94 111 119 121 122 119 118 119 116 117 118 115 111 110 109 105 98 94 93 86 91 87 59 65 64 60 55 50
87 74 67 61 54 51 48 45 43 42 42 44 44 45 49 53 56 61 67 73 84 96 109 122 127 125 121 120 119 118 116 114 115 111 110 106 103 95 94 98 84 77 76 76 71 62 59
76 68 61 54 49 45 41 39 38 35 33 33 33 34 37 38 43 49 53 58 64 72 82 95 106 114 123 126 123 121 118 117 115 111 112 113 111 107 99 97 88 82 84 82 81 74 63
72 62 56 51 48 45 41 38 36 34 32 31 30 28 27 29 34 37 43 47 51 58 66 74 80 88 98 112 122 130 124 120 118 116 114 115 117 115 106 102 92 90 89 88 91 63 72
69 60 57 53 50 44 40 37 33 31 29 26 24 21 19 20 21 24 32 38 43 48 52 58 65 69 74 84 96 109 122 129 126 118 121 121 123 115 106 102 94 95 94 92 85 80 76
65 59 55 51 46 41 37 34 32 30 27 22 20 17 14 13 13 15 19 25 31 37 43 49 53 57 62 67 72 78 88 102 121 130 130 128 124 116 113 106 99 100 98 95 89 82 82

GFSGBSN_250_spd_024.txt.gz
Wind_Speed
36 37 38 39 39 38 39 38 38 38 39 40 40 40 40 40 40 40 40 39 39 39 40 39 40 38 35 31 31 27 27 27 23 23 20 19 16 16 15 15 13 11 11 11 17 21 22
39 40 41 41 41 42 43 44 44 45 46 46 46 46 46 46 46 45 45 46 45 44 43 41 40 38 37 36 34 36 30 32 30 29 28 26 22 23 17 19 17 16 13 10 17 20 18
43 44 45 46 47 47 48 50 51 51 51 51 50 50 50 50 51 50 47 48 46 44 43 43 41 40 40 41 38 39 37 37 36 34 35 33 28 29 22 22 23 19 15 12 16 20 20
45 47 47 48 51 52 51 53 55 55 54 54 52 52 53 51 50 47 45 47 45 47 49 48 46 45 44 45 44 43 42 40 41 39 37 37 36 34 30 26 28 24 19 13 12 16 19
46 48 50 51 52 52 52 55 55 54 55 57 57 57 56 55 55 51 48 51 50 49 51 51 49 49 49 48 46 43 43 46 46 46 42 40 40 41 36 33 32 29 22 18 17 17 17
50 53 53 55 56 56 57 58 60 60 62 63 64 63 60 58 59 55 53 54 52 51 53 52 50 47 47 47 47 46 44 42 47 49 50 48 45 44 43 40 40 31 25 22 20 20 16
53 53 54 55 56 57 60 62 63 62 62 61 59 62 61 58 61 60 58 57 56 55 54 52 50 47 44 46 44 45 44 42 43 46 47 49 53 52 48 45 42 37 32 28 24 23 19
57 59 60 61 61 63 63 63 63 64 66 66 65 63 65 62 61 60 61 61 58 55 54 52 51 49 44 44 47 45 43 42 40 41 42 44 48 48 49 46 45 42 39 38 30 26 20
62 63 63 64 64 65 67 67 67 68 69 68 67 66 68 68 65 65 66 65 63 59 54 56 53 52 48 45 48 46 44 41 38 35 37 37 37 41 46 52 50 47 48 43 36 28 23
63 65 66 68 69 70 71 71 72 72 73 73 74 72 72 74 72 68 67 64 63 59 56 57 55 52 50 46 51 48 46 42 38 39 33 32 31 33 38 45 50 52 56 43 37 33 29
68 70 71 72 73 75 76 76 76 75 76 76 76 74 73 73 75 73 72 68 65 62 59 58 59 54 53 51 51 52 51 45 44 42 34 39 28 28 30 35 39 50 53 48 38 34 31
74 76 78 80 81 82 82 82 82 81 80 81 82 82 79 74 75 75 75 72 68 67 60 60 60 60 57 54 53 53 52 50 49 43 40 43 32 29 30 27 31 36 43 45 45 38 29
79 80 81 81 81 82 84 85 86 87 87 87 89 88 84 81 79 80 77 77 77 70 66 66 64 64 64 63 60 54 53 51 50 46 45 49 45 41 34 28 28 31 31 34 38 40 46
71 73 74 76 77 76 75 76 79 81 82 82 86 88 89 89 86 86 83 79 78 75 72 71 72 70 69 70 65 62 57 54 49 47 50 45 42 41 39 37 38 31 15 20 32 43 47
74 74 75 77 79 80 82 84 87 89 89 90 92 89 88 87 89 91 91 87 79 81 80 77 78 80 75 75 72 67 65 60 59 54 52 47 42 46 42 43 39 31 21 22 17 24 37
68 70 72 75 78 80 82 84 87 90 90 90 93 91 89 90 90 90 95 94 94 87 81 83 84 83 81 80 77 74 69 67 65 59 53 48 44 43 41 37 34 29 30 18 15 13 20
69 72 76 81 84 88 91 93 94 96 97 96 94 92 90 93 90 92 93 93 95 93 90 87 90 89 86 84 83 83 77 71 69 66 59 54 51 52 48 37 37 34 31 27 22 21 21
77 82 86 90 97 102 104 107 108 109 108 106 104 101 98 97 95 96 96 94 93 93 92 93 91 94 92 89 88 90 84 79 73 70 66 63 58 57 55 52 46 40 36 26 20 23 22
89 92 97 100 102 105 109 110 111 111 110 110 109 106 102 101 101 101 101 100 99 96 96 93 95 96 98 97 95 93 92 85 80 77 72 69 63 62 63 59 51 44 42 36 33 25 20
96 99 99 99 100 102 102 102 103 104 104 104 105 105 106 104 105 105 104 103 102 101 101 98 95 97 100 102 101 101 97 93 90 85 81 77 72 68 66 64 58 49 48 43 37 28 26
100 100 94 92 90 86 80 77 76 76 77 79 83 86 90 92 96 103 107 107 105 104 104 103 98 97 101 105 106 105 104 103 99 95 91 86 83 77 71 69 65 55 52 51 44 38 29
105 94 86 78 73 69 65 63 62 59 58 57 60 65 71 72 74 82 94 108 111 110 106 106 103 99 101 105 109 109 107 105 105 102 98 93 90 86 79 73 70 63 56 56 53 47 41
99 88 79 69 65 62 60 57 54 52 50 50 49 50 54 59 59 62 69 86 100 112 114 111 108 103 100 103 108 112 111 109 106 103 101 98 94 92 87 81 76 69 62 58 58 53 48
96 83 72 67 62 56 52 49 45 44 42 43 43 44 44 46 46 51 60 66 78 94 107 116 114 111 105 103 105 108 112 112 111 108 105 100 97 96 92 87 81 72 69 65 61 58 51
90 78 71 65 60 53 48 44 42 39 38 35 33 34 36 36 38 44 49 55 61 70 86 102 110 117 114 107 101 104 107 110 111 111 109 104 102 96 93 89 77 76 75 73 65 59 55
87 75 68 64 58 51 48 45 42 38 34 31 28 26 25 26 30 34 39 46 52 60 69 80 90 103 114 114 107 101 104 105 111 110 111 109 106 104 97 91 83 79 80 78 67 62 65
81 72 65 60 54 52 48 44 41 38 33 28 25 21 19 17 20 27 33 38 44 50 58 64 72 82 93 105 112 111 105 103 103 107 111 111 111 104 101 97 87 82 81 80 75 59 65
76 67 61 58 53 51 48 44 39 35 32 29 24 20 19 16 13 16 22 29 35 43 48 53 58 66 75 85 95 109 114 107 101 106 108 107 107 101 103 97 91 87 85 85 74 72 71
72 63 57 53 52 52 46 43 37 34 32 30 23 19 17 16 12 9 10 14 21 30 36 40 43 49 56 66 74 86 97 106 114 109 109 105 99 101 99 87 87 87 92 86 79 77 77

GFSGBSN_250_spd_027.txt.gz
Wind_Speed
35 36 37 39 40 40 40 41 41 41 40 39 39 37 37 36 36 36 36 38 38 36 34 33 35 32 33 34 33 31 28 26 24 24 23 19 18 16 19 19 18 17 16 15 14 15 19
40 41 42 43 43 44 45 46 45 45 44 44 44 44 44 45 44 43 44 46 44 43 42 41 40 38 36 38 33 31 29 31 30 28 31 27 21 24 22 22 22 22 22 20 18 14 12
44 45 46 46 47 47 48 49 50 51 51 50 51 50 50 51 51 48 49 51 50 49 48 46 43 40 34 40 33 35 33 33 33 33 35 33 30 29 28 25 26 24 23 24 24 18 15
45 47 49 50 52 54 55 56 57 56 57 57 57 55 55 56 54 52 50 51 50 49 46 44 42 39 36 42 38 39 37 34 36 36 37 37 34 34 34 33 31 28 26 26 25 22 19
50 51 51 52 54 54 55 56 58 59 58 59 58 57 53 53 54 55 56 56 56 53 52 51 47 44 40 43 40 44 40 41 39 38 38 40 39 38 37 38 36 34 28 25 28 24 19
52 54 57 58 58 61 61 61 61 64 65 64 64 64 62 63 62 63 60 59 59 57 56 53 51 48 43 45 43 42 40 42 37 38 39 41 45 44 44 42 42 37 31 26 28 25 20
57 58 59 59 59 60 63 62 62 62 64 65 65 66 67 66 63 63 62 61 60 59 60 56 55 49 49 47 44 42 40 38 38 39 39 40 47 51 47 48 43 39 36 33 32 30 21
58 59 60 62 64 65 67 69 70 69 70 69 66 67 68 64 63 62 63 62 59 56 58 58 57 58 53 49 48 45 43 43 38 37 37 43 43 41 43 48 50 44 40 40 37 36 27
62 65 65 66 68 70 72 74 75 77 78 77 72 71 71 73 71 67 67 66 65 63 62 66 62 59 56 51 51 51 45 44 42 38 41 41 37 39 41 43 48 51 49 45 42 38 33
65 67 67 69 71 73 74 76 77 78 80 80 78 77 76 78 76 72 71 69 69 66 64 66 65 63 61 55 52 54 49 46 43 44 40 39 38 37 36 41 43 47 54 47 41 38 36
70 72 74 76 79 81 82 83 84 84 84 84 82 80 81 80 82 81 77 74 74 73 71 68 68 64 63 60 54 57 57 48 47 47 41 45 38 32 32 34 37 46 45 46 44 37 36
75 76 77 79 81 82 84 86 88 90 91 92 92 90 89 88 87 86 83 79 75 76 72 71 70 69 68 64 60 60 58 53 52 50 44 44 42 35 39 33 33 33 39 42 44 43 35
66 68 70 72 74 77 80 83 84 85 85 85 85 85 85 86 90 91 90 88 85 80 75 75 71 70 70 68 65 64 61 58 56 55 49 52 49 46 42 35 31 29 29 31 36 42 55
66 68 70 72 75 79 81 82 83 83 82 84 88 87 86 86 82 84 88 90 89 86 83 77 75 73 72 71 70 69 66 61 61 59 56 54 52 50 48 45 38 27 17 23 28 38 49
57 59 64 69 74 79 83 87 90 91 92 92 93 92 90 89 88 90 90 88 85 81 80 82 79 79 77 76 76 75 72 67 68 65 59 56 53 53 48 52 44 35 29 25 21 23 36
64 70 75 81 85 90 95 99 102 103 103 101 100 100 98 97 96 95 96 97 96 89 84 83 87 84 81 81 81 82 79 74 72 68 63 56 53 55 55 52 41 39 35 23 18 20 25
76 82 87 89 94 97 101 104 108 110 112 111 109 107 105 102 102 101 102 103 102 97 92 88 88 89 86 85 86 85 84 81 77 73 67 62 57 58 57 47 43 43 38 34 32 25 24
89 90 92 96 99 103 105 107 108 108 108 108 107 108 109 110 108 107 106 104 103 103 99 94 90 91 92 89 89 89 88 87 83 78 74 69 65 62 58 55 52 47 42 35 31 34 31
90 95 96 98 100 99 98 96 93 90 88 86 86 86 88 93 100 106 109 110 107 102 100 97 93 91 94 96 93 92 91 91 90 86 81 76 70 69 65 59 54 48 42 39 37 33 29
99 97 97 96 91 85 80 76 73 71 69 67 65 66 66 67 73 84 98 104 110 108 103 98 95 94 96 97 99 97 94 94 95 92 87 81 78 75 69 66 62 55 49 45 39 30 33
101 100 93 88 81 72 66 64 61 58 55 53 52 51 52 53 58 62 69 82 98 105 107 104 99 96 98 98 99 101 101 98 97 97 93 89 83 79 76 72 66 61 55 47 44 38 32
103 98 89 83 71 67 61 57 57 51 49 47 44 45 45 41 44 51 57 63 76 92 102 106 107 100 98 101 99 100 102 104 101 99 98 93 89 83 79 78 73 66 59 53 48 44 40
106 96 88 79 71 64 59 55 51 47 44 40 39 38 37 36 35 41 48 54 61 73 90 100 104 107 101 101 102 99 100 100 104 103 100 99 94 90 84 81 77 72 63 60 56 53 51
105 96 87 73 67 62 57 52 49 45 42 38 35 33 30 30 31 33 38 44 51 59 71 87 97 104 106 102 100 101 101 99 99 103 103 101 99 96 91 85 83 71 69 65 60 54 53
102 92 85 72 64 62 58 50 50 46 41 35 31 29 26 24 25 28 31 37 43 49 58 70 85 94 99 104 102 100 103 101 99 98 103 104 103 100 97 91 81 79 74 69 64 57 55
101 88 78 68 62 59 53 52 49 46 38 34 30 25 20 19 17 20 26 30 35 43 48 56 70 78 89 97 103 104 102 103 102 100 100 105 103 104 100 94 88 80 82 78 72 63 61
99 86 73 63 59 54 51 51 47 43 38 34 30 24 19 15 11 11 16 23 28 33 39 45 54 65 73 85 94 103 104 102 101 100 100 101 103 100 102 99 93 87 86 82 77 69 67
94 84 68 58 53 50 48 49 46 44 41 37 31 26 21 17 12 7 7 11 18 25 29 35 43 52 60 71 79 92 100 103 99 99 99 96 97 98 99 96 90 91 92 87 82 78 74
83 77 61 53 49 47 45 45 46 49 45 43 33 27 23 19 14 8 5 3 6 14 21 27 32 41 49 57 66 75 85 96 104 102 99 94 90 96 96 90 91 94 90 88 88 85 80

GFSGBSN_250_spd_030.txt.gz
Wind_Speed
35 36 38 39 40 41 42 42 43 43 43 43 42 41 41 39 37 35 34 34 32 32 31 32 31 29 30 32 29 29 30 29 27 25 23 22 21 18 20 17 17 17 15 13 14 15 19
39 40 41 43 44 45 46 47 47 47 47 47 46 45 45 44 42 42 41 41 40 38 37 37 37 35 35 40 36 34 33 33 29 29 28 25 24 25 26 22 21 20 19 17 16 13 14
43 45 46 48 49 51 52 52 51 51 51 51 50 49 49 50 49 50 49 48 47 45 45 44 43 43 40 47 43 37 37 35 33 33 33 30 27 29 30 28 30 26 22 20 18 17 18
46 48 50 52 53 54 56 56 56 56 57 57 57 57 57 56 56 55 55 54 52 50 49 48 45 44 42 47 44 41 41 35 35 36 36 36 32 32 33 36 34 31 29 25 22 19 19
48 50 53 56 58 59 60 61 59 58 60 62 62 62 61 61 60 59 58 58 57 54 51 50 51 49 43 44 44 42 42 40 40 40 39 38 37 37 37 39 37 36 33 29 26 23 19
52 54 56 56 58 59 62 64 64 65 64 65 66 68 65 65 66 67 65 64 60 58 59 61 60 56 53 49 51 46 45 45 42 41 43 43 41 41 41 39 42 39 33 31 31 28 21
56 58 60 62 65 68 68 70 71 70 70 70 72 73 73 71 69 69 69 69 69 68 65 67 66 59 55 52 52 50 44 45 43 43 43 42 43 43 41 44 44 39 37 34 34 33 28
60 62 64 65 66 68 71 73 74 75 75 74 73 74 74 72 71 70 69 69 70 67 66 65 63 62 57 54 52 52 45 48 43 43 40 42 45 39 40 44 45 43 43 41 40 37 33
65 67 68 70 73 76 78 78 79 80 81 81 80 80 80 80 78 77 75 74 74 69 66 70 67 65 58 55 50 52 51 50 49 41 44 46 40 37 40 43 44 45 47 50 47 41 35
64 67 69 72 74 76 79 81 83 84 84 84 83 84 85 86 86 84 82 79 78 75 73 73 73 69 66 60 56 55 55 51 49 47 48 44 39 41 41 41 41 41 47 46 47 45 39
71 73 75 77 78 80 83 85 87 89 91 92 92 92 92 91 90 89 86 85 83 80 79 74 76 72 69 64 63 61 61 57 53 54 48 51 46 41 41 39 35 38 36 37 42 45 46
61 64 66 68 71 73 76 79 82 85 87 89 90 91 93 95 95 96 96 92 89 88 83 79 78 79 77 73 67 65 63 58 57 54 48 52 48 40 41 36 37 31 33 35 37 44 45
57 58 59 61 65 68 72 76 80 85 89 94 95 95 94 93 93 92 94 95 98 95 89 84 80 81 81 79 74 73 70 65 59 58 53 57 52 49 45 41 39 32 29 31 34 38 49
52 58 62 66 70 75 79 84 88 92 95 98 100 100 100 99 99 96 95 94 93 96 95 89 87 85 87 83 82 78 76 71 66 64 64 61 57 53 51 47 46 36 30 29 32 38 49
60 64 68 72 76 83 87 92 95 99 104 107 107 106 105 104 102 101 100 98 100 93 84 86 90 92 92 89 85 81 78 74 71 71 69 64 59 60 56 53 46 38 28 35 27 28 37
65 72 74 79 85 89 94 99 102 104 105 107 108 110 110 108 106 104 104 104 102 97 94 93 91 90 94 92 90 87 85 77 75 77 69 66 66 62 62 60 47 40 41 26 20 23 29
73 77 82 84 88 94 99 101 101 104 104 102 100 96 95 96 101 106 109 108 102 98 99 97 99 91 92 96 95 93 88 82 80 73 70 71 69 65 65 55 50 48 41 40 34 28 32
78 78 84 85 90 94 98 98 94 89 85 82 80 77 73 70 72 80 95 110 109 104 99 96 96 97 93 92 98 97 93 90 82 76 78 77 75 69 65 62 57 56 54 50 41 36 37
77 85 88 92 92 92 87 82 74 68 67 67 67 64 60 60 59 61 70 85 97 105 106 103 96 95 98 96 93 96 94 93 89 85 83 79 77 76 73 67 60 54 54 47 47 45 35
85 92 94 93 88 80 76 67 64 60 59 57 57 52 48 50 51 52 56 63 76 88 98 106 104 97 96 102 101 96 93 93 92 89 86 84 85 80 73 72 67 58 55 50 50 50 44
94 96 98 92 85 78 67 64 61 59 53 48 46 45 40 41 41 44 49 54 61 71 83 96 106 105 102 100 103 103 99 96 95 94 91 88 86 84 81 72 67 59 56 54 51 53 50
97 101 98 90 80 72 65 61 60 54 51 48 41 39 36 32 34 36 40 45 52 58 69 84 97 105 108 108 101 101 99 99 96 95 94 92 89 85 82 78 74 68 62 59 57 55 52
100 105 100 89 80 68 64 60 54 52 50 46 42 36 35 30 26 29 32 36 42 49 58 70 85 97 102 107 106 96 97 100 98 97 99 96 92 87 86 85 80 71 63 62 62 60 55
102 106 101 85 78 67 60 56 53 50 46 44 39 36 32 28 25 21 25 29 34 42 49 59 70 84 93 101 108 103 98 94 97 98 99 99 95 93 91 86 82 71 72 69 69 66 60
104 107 100 81 71 63 57 54 54 52 45 41 35 30 28 24 21 18 19 22 26 34 42 50 59 70 83 91 99 107 103 94 93 98 98 100 99 96 92 85 83 81 76 74 73 69 63
106 106 96 80 66 58 55 54 52 50 44 40 33 29 24 23 21 17 16 17 20 25 34 42 48 60 71 82 94 101 105 104 95 95 97 100 101 98 94 89 85 86 82 79 77 76 71
106 105 92 79 63 55 52 49 47 43 41 36 32 29 26 23 19 16 11 10 13 18 25 33 39 48 58 71 83 94 102 101 97 91 94 96 97 97 96 91 87 89 86 82 82 83 79
107 103 85 75 60 50 45 46 42 44 40 35 32 29 28 25 21 18 12 6 4 10 17 24 30 37 47 56 69 82 92 97 97 97 91 92 93 94 98 96 89 88 88 85 88 83 80
105 100 77 68 54 44 42 39 39 39 38 35 34 31 30 29 25 19 15 11 6 3 8 15 22 30 37 44 53 67 82 91 97 98 96 89 91 92 92 92 94 91 93 92 87 86 84

GFSGBSN_250_spd_033.txt.gz
Wind_Speed
36 37 39 40 42 43 44 45 45 46 47 47 47 46 45 44 43 41 40 38 36 35 35 35 33 33 33 33 32 27 28 26 25 24 23 21 21 21 18 17 15 15 16 16 17 15 18
39 41 43 44 45 45 46 47 49 50 51 51 50 50 50 49 48 47 45 42 40 39 38 38 36 36 35 37 37 31 34 33 32 31 30 29 25 23 26 24 20 20 18 16 17 16 15
41 43 45 47 48 49 50 52 54 54 56 56 55 55 54 53 53 51 49 47 45 45 45 43 41 41 40 41 42 37 38 38 39 37 35 33 30 30 29 28 27 28 24 20 18 16 17
44 46 48 50 52 54 55 57 59 60 61 61 60 59 58 58 58 57 55 54 52 52 51 51 49 47 47 45 46 45 42 44 43 42 41 39 37 38 35 35 32 31 27 27 21 20 18
47 49 51 53 55 56 57 59 60 62 63 64 65 64 63 64 63 63 63 62 61 59 58 57 55 52 49 49 51 48 46 45 44 43 44 43 40 39 39 40 37 36 33 31 25 23 20
49 51 53 56 59 61 63 64 66 67 67 67 70 70 69 69 69 69 68 68 66 64 62 61 59 57 56 54 54 53 46 46 45 44 46 46 44 43 42 40 40 39 40 34 29 27 23
58 60 62 65 66 67 68 69 70 71 73 74 76 77 77 75 75 74 73 73 72 71 70 67 65 64 61 57 54 57 55 52 54 50 52 50 45 47 48 45 44 41 39 36 32 28 27
59 62 63 66 68 71 73 75 76 76 77 79 80 81 81 82 81 80 79 79 78 75 74 73 70 68 64 64 63 59 58 54 57 60 56 50 50 48 46 46 46 44 42 41 39 35 34
64 66 68 71 73 74 76 78 80 82 83 85 86 87 89 87 85 85 83 82 81 78 74 77 74 70 72 69 67 62 56 55 55 55 54 54 55 46 43 44 46 44 45 45 46 45 42
68 70 73 75 77 80 83 85 86 88 89 91 92 93 94 94 93 93 91 89 87 84 80 79 83 72 72 68 66 63 60 60 54 55 59 55 52 43 44 45 45 44 48 48 46 44 43
64 66 68 68 69 72 75 78 81 84 86 89 93 98 101 101 101 99 97 95 94 90 90 88 81 81 79 74 74 67 65 63 55 58 55 54 54 50 48 48 43 45 40 40 42 42 45
46 48 50 55 61 65 67 72 76 81 85 89 94 97 98 98 100 102 104 104 99 97 94 98 86 88 85 81 78 74 70 66 66 62 58 55 54 49 51 44 43 42 39 40 40 40 37
52 56 60 65 69 72 75 79 85 89 92 95 99 101 103 104 104 102 98 97 98 101 108 107 92 89 89 85 83 77 76 74 69 64 60 61 57 57 52 50 48 43 39 38 34 34 38
56 61 65 68 72 75 77 85 95 99 103 108 110 110 110 110 108 105 103 101 103 103 111 94 96 91 92 93 90 86 82 79 73 70 69 67 61 57 53 49 49 45 42 38 36 36 42
64 65 67 70 72 76 82 90 99 102 105 106 107 106 109 109 109 106 103 104 107 107 97 97 88 97 101 105 98 91 84 85 81 77 72 69 64 65 58 56 50 47 37 43 39 36 37
64 69 73 75 77 81 87 94 97 99 100 99 99 97 97 97 96 94 96 99 105 104 92 87 99 100 102 109 107 101 94 89 87 82 81 76 74 68 64 58 51 43 49 36 32 30 35
72 72 72 72 77 84 91 94 94 92 88 82 80 78 77 76 73 71 71 79 91 104 102 98 102 100 105 98 94 104 101 98 91 84 82 82 76 72 69 57 55 52 41 33 34 32 36
75 71 73 77 82 90 92 88 80 75 72 67 64 65 65 63 63 58 61 61 67 84 101 104 105 102 102 99 93 104 116 104 90 89 88 83 78 76 63 68 66 60 53 48 43 39 38
77 75 82 85 90 90 85 78 71 63 58 59 57 54 57 56 55 48 48 52 57 66 81 97 107 104 102 91 95 103 103 97 98 97 92 86 81 76 76 75 68 59 56 52 51 50 42
86 83 88 91 96 89 79 74 64 61 58 53 53 52 51 47 46 46 42 42 47 55 68 84 97 103 105 99 99 102 99 95 105 100 93 88 84 80 76 67 72 68 61 57 55 53 48
91 90 91 95 97 87 77 71 66 63 58 54 51 49 45 44 39 37 38 36 41 45 57 71 88 98 105 106 102 102 96 94 103 100 101 95 89 84 83 84 76 69 67 62 57 57 54
95 93 94 99 97 87 77 67 65 62 58 56 52 48 43 37 33 31 31 32 32 40 50 64 77 86 95 108 107 103 92 96 103 95 97 97 92 92 90 83 73 68 65 62 61 61 61
96 94 95 101 96 84 78 67 62 59 58 53 49 44 38 34 30 25 25 25 28 34 43 55 66 75 87 99 106 105 95 92 99 96 97 95 97 94 86 83 76 72 68 66 63 62 61
98 96 98 102 96 79 75 66 62 60 55 50 45 39 34 30 26 22 19 18 21 28 37 46 56 65 78 89 97 102 99 92 93 97 98 101 99 93 87 89 81 73 77 76 70 68 66
96 96 100 100 92 76 68 62 58 56 53 45 42 37 34 29 26 23 18 12 13 20 29 36 46 56 66 81 91 99 102 98 92 98 99 98 98 96 92 89 83 81 81 81 76 69 70
94 95 100 98 85 76 63 56 52 47 44 43 39 36 33 30 29 25 19 11 6 12 20 27 38 47 56 69 83 92 101 106 102 97 101 99 96 96 94 91 87 87 90 83 79 75 72
94 94 99 94 76 72 57 51 45 40 42 39 37 34 36 35 33 26 19 11 5 6 15 22 30 38 48 59 73 87 98 104 106 101 101 104 103 98 96 93 90 93 91 87 86 86 79
93 94 96 90 72 61 51 45 38 35 37 37 33 34 34 35 34 32 25 16 7 3 10 16 23 31 40 49 60 76 89 99 106 103 99 94 99 100 99 97 94 95 88 91 93 86 79
93 94 92 82 69 53 45 37 35 31 28 29 31 32 31 29 30 30 29 24 16 9 6 11 15 24 32 41 51 60 77 90 104 104 101 94 88 97 101 97 96 97 90 91 89 85 82

GFSGBSN_250_spd_036.txt.gz
Wind_Speed
37 37 39 40 42 44 45 47 48 50 51 51 51 50 49 48 47 46 44 42 40 39 37 37 35 36 36 36 35 32 32 29 26 25 21 19 19 20 20 20 19 17 18 18 25 29 27
38 40 42 44 46 47 49 51 52 53 54 54 54 53 53 52 52 51 49 48 46 44 42 40 38 39 39 40 42 37 37 35 33 31 30 27 23 22 23 26 25 21 20 19 21 21 19
41 43 45 47 49 51 53 55 56 57 57 57 57 58 58 58 57 56 55 54 52 51 48 44 42 41 42 41 45 43 40 41 40 37 35 34 30 28 29 31 28 27 26 24 21 19 18
43 44 46 48 50 53 55 57 59 60 61 62 62 62 63 63 63 63 62 60 57 56 53 50 47 46 49 44 48 48 45 45 45 44 42 39 37 35 33 35 33 32 30 27 25 23 19
45 46 48 51 53 55 57 59 61 63 65 67 67 67 67 68 68 68 67 66 62 60 57 55 53 51 53 51 52 50 50 49 48 47 46 45 43 42 39 37 39 36 35 31 28 27 24
51 53 55 56 57 59 61 63 65 67 69 70 71 71 72 72 73 72 73 71 69 67 65 62 59 59 56 58 56 57 55 52 52 51 50 49 49 46 42 41 43 43 40 35 34 31 28
55 57 60 63 64 67 69 72 74 76 78 80 80 80 80 81 80 80 80 78 75 74 74 71 66 67 63 65 63 62 61 57 54 54 52 51 47 44 49 48 49 44 41 39 39 34 31
61 63 65 68 69 70 72 74 76 78 80 82 84 86 87 88 88 88 87 87 84 81 76 78 74 71 71 70 68 65 63 60 56 58 60 54 48 51 49 47 45 44 45 43 42 38 35
61 63 65 68 71 74 76 79 81 84 86 88 90 92 92 91 92 93 92 92 92 89 82 83 83 77 80 74 71 68 67 67 63 62 61 56 58 52 50 51 50 47 48 48 49 46 43
60 61 63 65 68 71 74 77 81 85 88 92 95 97 99 100 100 101 100 97 95 92 86 82 93 86 85 79 74 75 70 70 66 61 68 63 60 52 51 55 55 51 51 51 49 50 46
42 46 50 54 58 62 66 71 75 80 83 86 90 96 101 105 106 107 105 104 101 96 93 97 93 94 88 84 79 80 77 76 69 70 69 61 61 55 51 57 58 55 55 48 45 45 46
50 55 60 63 65 69 73 79 84 87 90 95 99 103 107 106 104 102 102 101 99 101 98 118 101 97 94 86 84 85 81 78 75 72 68 67 63 56 53 58 55 56 50 43 42 41 39
60 64 64 66 69 74 78 83 87 93 98 102 108 109 107 106 106 103 101 99 95 97 107 118 98 95 95 93 90 90 87 78 75 69 62 64 59 56 56 53 57 52 46 44 40 40 39
63 65 66 66 68 70 74 76 81 89 97 104 107 106 106 105 103 102 100 99 96 100 115 102 87 84 95 101 100 96 93 87 82 74 78 72 66 58 57 50 55 53 50 44 43 44 47
51 55 58 62 66 70 74 77 83 90 95 97 95 94 92 92 92 91 92 93 90 91 101 103 91 89 97 104 106 106 94 88 84 84 77 75 66 71 65 61 58 52 45 49 50 47 44
64 62 61 69 74 78 80 82 88 91 89 85 79 76 73 76 75 75 76 78 82 84 91 94 97 97 92 100 100 109 106 95 92 91 87 78 80 74 71 69 63 54 57 55 46 45 40
73 73 73 74 80 83 84 89 87 84 77 70 67 65 60 65 64 65 67 66 65 70 77 88 96 99 100 96 101 102 103 109 108 101 94 89 85 81 80 68 59 56 54 47 46 42 43
78 80 77 79 84 84 89 91 84 74 69 64 54 51 55 56 53 51 54 59 58 57 64 75 84 103 97 95 100 103 104 103 98 100 88 87 87 85 76 69 68 61 59 53 46 40 41
79 82 77 84 89 89 94 91 80 72 63 56 54 50 47 46 46 46 44 44 47 51 57 66 75 93 93 99 106 109 106 104 95 99 99 94 81 80 83 76 68 62 58 55 55 53 47
81 85 82 88 94 93 96 91 77 70 63 59 54 49 47 43 39 37 37 36 37 40 50 56 65 80 88 106 110 109 109 97 96 98 95 92 91 85 78 69 69 67 66 62 60 52 51
84 85 86 94 96 97 97 88 77 67 62 58 50 48 42 39 36 32 29 29 30 33 42 48 61 73 85 102 108 109 112 95 95 96 93 95 94 89 81 83 82 76 73 68 61 59 53
86 88 92 99 95 99 96 83 73 63 61 54 52 49 46 41 37 33 28 25 24 28 34 41 54 67 77 92 101 109 107 94 100 92 96 91 92 91 85 89 88 79 76 70 68 65 63
86 90 93 99 95 99 93 78 66 59 54 50 49 50 45 39 34 30 25 22 19 21 27 36 46 55 70 81 89 101 102 99 101 90 96 93 97 92 89 90 87 84 75 69 69 70 67
87 90 93 98 96 98 87 74 61 55 50 46 45 48 44 39 34 29 24 19 15 15 20 28 37 48 60 70 81 89 93 100 96 91 92 93 90 91 96 98 97 82 77 74 71 72 69
87 92 94 97 96 94 77 67 57 49 48 44 43 44 42 40 37 31 24 19 13 11 15 21 30 39 49 62 71 81 89 96 96 94 92 93 92 93 103 101 93 84 78 77 75 75 80
88 91 94 94 95 87 71 57 51 47 42 39 40 40 39 38 39 37 30 23 17 8 8 15 23 32 42 53 61 68 81 94 101 101 95 93 97 97 102 101 92 89 88 89 87 83 83
89 90 94 92 91 78 66 50 46 43 37 34 37 35 37 38 39 38 34 27 19 12 6 7 16 25 34 44 54 61 77 90 101 105 102 96 97 100 100 99 99 99 99 97 92 96 88
88 91 91 92 86 67 56 45 42 36 28 30 33 34 33 37 37 40 38 35 27 18 10 1 7 17 27 37 46 55 70 86 103 108 105 101 99 102 101 102 107 103 102 100 98 93 87
88 92 91 90 75 64 49 42 37 29 24 28 30 30 29 31 37 39 41 44 40 28 18 8 2 8 18 29 39 49 60 80 101 109 110 104 100 104 106 104 108 105 107 100 95 92 86

GFSGBSN_250_spd_039.txt.gz
Wind_Speed
37 39 40 42 43 45 46 48 49 50 52 53 54 54 54 53 53 53 51 47 44 42 39 36 36 35 35 37 33 34 32 31 30 28 25 23 23 24 23 22 25 26 32 36 39 46 45
39 41 43 45 46 47 48 50 52 53 54 56 57 58 59 59 59 58 56 52 50 47 44 40 39 39 39 41 40 39 39 37 36 34 32 29 26 23 23 25 26 24 25 23 25 22 23
40 42 44 46 48 50 52 54 55 57 59 60 61 62 63 63 62 61 60 58 55 53 50 47 43 43 45 41 45 46 43 43 42 40 39 37 30 28 28 28 27 25 25 23 23 22 23
41 43 45 48 50 52 54 56 58 59 61 63 65 66 68 67 67 66 64 64 61 59 57 54 50 49 51 44 48 50 47 47 48 46 44 42 39 34 31 33 29 27 28 28 28 26 24
43 45 47 49 52 54 56 58 59 61 63 64 66 67 69 69 70 70 69 69 68 64 63 61 58 55 57 52 52 51 53 53 52 51 50 48 44 42 36 34 33 32 33 33 30 28 27
50 52 54 56 58 60 62 64 67 69 71 71 72 73 74 75 75 75 75 75 74 72 69 66 61 60 60 60 57 57 58 56 56 54 53 52 50 46 41 37 38 41 38 36 33 34 32
52 54 56 58 61 64 67 69 72 73 75 77 79 82 83 84 83 82 83 83 81 78 77 74 69 65 66 66 62 61 62 60 59 56 55 55 53 50 53 48 48 42 39 37 37 35 33
55 58 61 65 67 69 71 74 76 79 82 84 86 88 89 91 92 92 92 93 93 88 81 83 80 74 78 74 67 66 66 64 63 64 61 56 50 59 56 53 50 45 42 41 41 38 35
58 60 62 65 68 71 74 76 80 83 86 89 92 94 94 94 96 98 98 97 97 94 89 92 90 86 87 79 75 74 71 72 66 66 62 60 65 61 56 54 50 46 42 45 46 47 43
48 50 52 54 58 60 64 69 72 75 79 84 89 94 97 102 103 105 105 103 102 97 96 98 98 96 91 88 79 83 80 78 74 69 70 68 68 62 60 54 52 46 48 50 49 48 47
56 59 61 64 66 69 73 75 80 83 86 89 93 98 99 101 103 103 102 102 103 100 107 109 96 97 93 91 89 90 88 86 78 77 78 65 70 66 61 59 59 56 55 54 53 49 48
48 51 55 60 64 69 73 79 84 86 90 94 98 103 105 106 106 105 103 99 97 95 102 104 98 96 99 95 93 93 93 89 88 84 78 75 77 73 66 65 61 62 55 50 51 51 46
50 51 48 53 53 59 61 65 71 78 85 90 93 97 103 106 106 101 101 98 95 94 101 106 90 88 95 106 104 103 96 93 89 84 75 79 73 69 68 64 62 64 59 54 47 46 41
62 61 64 61 62 64 61 64 70 77 84 90 97 100 99 97 95 91 93 93 91 87 92 97 95 97 92 95 108 108 102 95 90 83 84 80 77 69 70 67 65 63 60 54 51 49 52
66 68 71 65 67 66 66 68 77 80 83 84 87 83 78 76 76 76 77 78 79 76 81 87 85 91 96 95 94 101 102 100 92 92 85 83 75 82 79 73 69 64 55 55 57 57 56
67 68 70 69 70 73 71 74 77 81 81 77 69 65 62 62 66 66 68 68 67 66 72 80 82 85 92 96 95 96 99 98 105 103 103 91 93 87 80 81 73 60 64 58 55 56 52
71 72 72 73 77 78 78 82 82 84 78 71 62 56 52 49 49 56 60 61 61 57 62 67 73 83 95 91 93 98 99 98 100 107 104 95 89 85 88 78 64 63 60 57 58 58 56
73 75 77 78 82 81 84 86 86 84 75 70 59 52 48 43 45 44 46 49 55 55 55 56 59 71 87 89 93 96 103 101 101 101 101 99 90 94 81 68 67 69 62 62 53 52 53
73 74 81 84 84 85 87 90 90 84 73 61 57 54 48 45 39 37 38 40 42 46 52 51 51 64 78 86 93 97 100 104 99 97 95 99 96 91 88 87 78 66 60 60 59 63 57
74 80 85 84 87 85 89 91 92 81 71 57 52 46 48 45 40 36 35 33 32 32 41 47 50 58 70 78 89 96 99 102 101 97 95 92 93 89 83 76 74 68 64 67 66 60 61
76 83 85 86 89 87 91 92 90 75 62 53 51 48 43 45 42 38 35 32 30 24 28 37 46 50 60 71 81 92 100 102 102 99 93 89 85 87 83 78 77 76 75 72 61 62 59
79 84 87 86 88 90 92 92 83 71 56 50 47 45 46 44 42 39 34 28 27 24 23 28 39 44 52 63 73 86 99 104 101 99 92 86 90 87 87 84 88 83 72 68 67 67 65
82 86 85 86 86 91 91 90 74 65 52 47 42 43 45 42 41 40 35 29 23 20 19 22 29 35 46 54 66 74 92 100 100 98 90 88 90 84 90 92 86 79 73 71 71 71 68
83 85 85 85 87 91 91 85 71 56 47 40 37 39 42 42 42 40 38 30 22 16 15 15 23 30 40 48 60 63 83 96 99 94 91 91 90 89 97 95 87 80 77 74 71 73 71
82 84 83 84 89 91 90 77 66 50 41 32 34 38 40 41 45 43 41 32 23 16 11 10 17 24 33 38 51 61 73 91 94 93 91 92 90 95 99 94 86 87 87 84 81 79 79
84 82 82 84 91 89 87 68 55 44 34 29 30 35 38 39 42 43 42 36 28 20 12 6 7 16 24 34 47 60 69 85 87 92 93 97 95 98 94 91 93 97 91 86 87 86 82
83 80 81 87 91 89 79 60 46 40 25 26 28 33 34 37 40 44 46 45 35 27 18 10 2 9 19 30 43 52 63 74 82 90 94 99 100 98 94 95 97 100 94 90 93 93 88
77 76 80 88 87 83 66 50 38 30 19 24 24 27 30 35 39 46 51 49 45 36 26 16 7 4 14 24 33 42 54 64 74 86 95 102 104 99 95 98 98 99 99 99 96 95 91
70 71 81 84 83 68 52 37 31 18 15 21 20 22 28 32 33 38 47 51 53 48 36 23 15 7 9 17 25 33 43 56 67 80 94 99 106 104 101 105 104 103 105 102 102 99 96

GFSGBSN_250_spd_042.txt.gz
Wind_Speed
36 37 38 40 42 44 45 47 48 49 50 51 52 53 53 53 54 54 54 53 51 48 45 40 38 38 38 38 34 37 34 34 32 30 29 33 37 38 42 41 44 45 44 44 45 47 45
37 40 41 43 45 47 49 51 52 53 54 55 56 57 57 58 58 59 58 57 55 54 51 47 43 42 44 41 39 42 42 40 39 37 35 34 34 30 28 32 36 31 31 33 34 36 39
36 39 41 44 47 50 52 54 56 57 58 58 59 60 61 62 62 63 63 62 60 59 57 53 49 48 49 42 43 49 45 46 46 44 43 40 34 32 32 31 31 28 25 25 24 22 18
38 40 42 44 46 49 51 54 57 59 61 62 63 64 65 65 66 66 66 65 64 63 62 59 55 54 57 48 49 52 48 49 51 49 47 46 42 39 35 37 30 29 24 28 26 25 23
44 46 48 49 51 53 55 57 59 61 63 65 67 68 69 69 69 70 70 69 69 67 66 63 60 60 63 57 53 53 54 52 54 54 53 51 47 47 41 40 36 30 33 33 29 28 29
45 48 50 53 56 58 60 63 66 68 70 72 73 75 77 77 77 78 77 75 73 73 72 68 65 65 66 67 61 60 61 58 58 58 55 54 52 49 45 41 42 45 39 37 32 32 30
47 50 53 56 59 62 65 67 70 72 74 77 79 80 82 83 84 85 87 85 82 80 83 76 73 71 73 72 69 66 66 64 60 58 60 60 55 51 55 52 53 48 45 39 34 32 31
51 53 56 59 63 66 69 71 74 76 79 81 84 87 90 90 91 91 92 92 91 89 91 87 82 79 81 73 72 73 69 67 66 65 66 60 55 62 60 56 53 49 47 41 41 35 35
47 51 54 58 61 64 67 69 72 75 78 82 85 89 92 96 97 98 97 96 95 95 96 97 94 91 88 82 78 81 77 76 70 71 67 65 69 70 66 62 56 49 47 48 49 45 40
43 46 46 48 52 54 58 64 72 78 84 87 91 92 92 98 97 99 101 101 100 101 100 98 97 98 97 94 91 93 88 84 78 73 72 70 76 70 67 63 57 51 51 52 54 49 45
41 46 48 50 49 53 53 53 61 72 76 78 81 82 87 89 98 104 106 104 100 98 99 99 102 101 99 97 97 100 95 90 83 80 77 67 76 75 69 63 63 59 58 55 58 53 53
47 50 53 59 60 59 58 55 57 60 61 67 74 82 88 91 94 94 90 88 92 98 100 93 96 97 103 102 99 102 101 93 92 89 82 79 82 77 72 76 70 71 65 62 61 56 51
51 54 57 61 63 61 59 57 62 63 65 67 72 78 84 89 93 92 88 91 91 87 86 83 86 91 98 98 102 107 104 99 99 96 85 87 84 81 80 79 74 74 70 67 64 56 45
53 59 61 64 61 59 61 64 67 68 68 73 74 76 83 84 83 81 82 80 81 78 78 77 83 88 94 97 102 103 106 107 101 97 96 92 92 83 82 81 78 75 71 65 59 55 51
56 61 64 66 66 66 68 70 72 74 73 77 78 75 72 71 68 65 68 68 67 67 68 69 76 80 87 94 100 103 101 105 108 107 101 96 90 93 90 83 83 79 69 68 66 62 59
60 64 67 69 67 71 71 72 76 78 78 79 75 65 60 58 54 53 56 58 61 60 61 60 72 74 83 89 98 100 104 105 107 107 103 99 92 92 88 92 89 75 76 73 66 63 57
65 68 68 68 70 73 74 76 76 80 81 78 69 59 52 49 46 44 48 50 53 54 55 54 60 66 72 85 93 102 105 105 108 104 102 103 95 93 100 94 80 79 76 72 71 67 58
66 64 67 68 73 75 76 78 79 79 82 76 67 53 50 47 46 43 40 40 42 48 49 51 51 53 67 76 88 96 106 106 107 105 101 104 97 102 93 82 82 87 83 80 73 64 59
63 66 68 69 73 75 78 79 80 81 79 71 64 54 47 41 42 43 41 40 35 39 41 46 48 49 58 68 83 91 102 106 108 107 104 100 101 102 94 93 91 86 76 72 69 70 66
65 69 70 72 76 78 78 79 81 81 78 66 53 48 39 37 38 38 41 40 37 30 35 38 41 45 49 63 75 83 98 102 107 107 107 103 98 102 100 96 91 81 74 69 68 68 65
70 72 74 77 80 79 75 79 82 80 72 57 48 38 31 34 42 39 38 36 35 28 27 29 35 40 43 52 66 75 84 94 102 104 107 100 95 99 100 95 88 79 73 70 65 60 60
76 74 76 80 79 75 75 78 80 79 62 48 40 33 32 32 37 40 40 35 32 24 24 21 28 33 37 43 56 69 81 94 103 102 104 99 98 91 91 93 87 83 79 74 66 65 68
79 76 79 80 76 72 74 77 78 71 51 42 32 30 29 35 37 39 39 33 29 26 18 17 20 26 32 38 51 60 74 89 100 99 103 101 96 90 91 95 95 89 88 81 75 76 76
79 78 78 78 70 72 76 77 76 60 44 30 25 23 29 34 38 40 40 34 27 22 17 12 14 19 27 33 43 52 66 81 91 98 96 98 95 92 94 96 94 92 90 82 79 83 82
78 74 73 68 68 72 76 76 67 47 34 23 20 24 25 32 38 41 40 36 27 19 15 10 9 14 21 29 37 46 63 75 82 93 93 97 96 99 96 92 92 94 91 87 85 83 84
71 67 63 62 68 72 75 67 53 36 26 17 21 25 25 28 34 37 38 36 29 20 15 9 3 8 17 24 39 52 65 71 79 88 92 95 97 99 96 95 96 94 93 92 85 84 84
62 59 57 63 68 69 62 52 37 27 16 14 20 24 23 34 34 33 38 37 31 24 19 13 6 3 12 24 39 49 61 69 73 77 90 97 96 102 99 98 94 92 93 95 93 89 88
53 55 60 65 67 57 50 36 24 14 10 13 19 26 24 28 31 35 39 39 35 29 23 17 10 7 10 18 31 43 55 63 65 69 86 93 96 101 98 96 94 94 93 100 93 86 87
54 59 63 65 58 51 37 27 17 7 9 13 16 24 24 22 30 32 37 39 39 35 27 20 15 10 10 13 19 29 42 50 55 65 85 94 99 101 99 95 91 91 94 93 90 87 87

GFSGBSN_250_spd_045.txt.gz
Wind_Speed
31 33 35 38 40 41 43 45 47 49 50 51 51 51 51 51 51 53 53 52 51 50 51 49 47 44 43 39 37 38 35 34 34 32 37 43 49 51 50 50 49 44 44 44 43 42 41
32 34 37 40 42 44 46 47 49 51 53 54 55 55 55 55 55 55 55 55 54 55 55 54 53 52 51 44 43 45 42 41 39 38 36 39 43 44 45 50 49 48 49 49 47 45 46
33 35 37 40 42 44 47 49 51 53 56 57 59 60 61 61 61 60 60 60 60 60 60 59 58 57 59 47 49 51 47 46 46 43 43 40 36 37 42 48 41 41 40 42 42 41 42
39 39 41 43 45 47 49 51 53 55 58 59 61 62 64 64 66 65 65 64 65 65 64 62 62 63 67 57 54 53 52 52 54 51 48 46 42 39 37 41 33 32 31 38 33 29 28
42 44 46 48 51 53 55 57 59 61 63 64 65 66 67 69 69 69 69 69 69 70 68 67 67 67 68 65 60 61 60 58 57 59 56 50 49 47 42 41 35 31 35 39 32 30 29
42 44 47 49 51 54 56 58 60 63 66 69 71 74 75 76 78 78 77 76 76 77 73 70 70 73 72 71 68 66 67 63 62 61 58 55 55 53 49 45 43 46 46 45 37 32 29
44 46 47 49 52 55 58 60 63 66 69 72 75 78 79 80 82 82 84 84 85 87 83 78 76 77 75 74 75 73 73 69 65 62 61 61 58 53 59 59 56 52 47 44 42 34 28
32 35 38 42 45 49 52 53 57 61 66 71 75 80 83 83 86 87 88 89 89 91 94 89 87 84 82 77 80 78 78 75 70 67 70 65 53 63 66 61 60 55 52 49 48 38 33
38 41 43 44 47 50 52 54 58 63 66 69 71 75 77 80 86 89 91 94 95 95 95 97 94 92 91 87 87 85 82 80 77 76 72 68 68 70 68 65 63 59 57 58 56 49 43
40 42 45 46 48 52 52 57 61 63 63 63 66 70 73 74 79 84 88 91 97 98 100 103 101 99 97 95 96 95 91 86 83 80 78 73 75 70 68 65 64 62 64 65 63 56 50
39 40 43 42 45 47 49 54 59 62 64 63 68 71 73 74 79 83 86 87 88 92 96 101 103 106 104 102 100 104 100 95 90 88 83 73 76 72 68 65 67 66 65 66 67 63 59
43 44 46 47 49 53 55 60 65 66 65 64 62 66 70 74 76 80 85 89 84 89 87 86 92 102 108 108 107 107 105 103 99 94 88 83 85 78 74 78 72 76 73 71 70 68 58
48 48 49 51 53 57 60 63 67 66 70 67 65 69 71 74 75 79 81 81 81 85 87 83 85 90 97 106 110 114 111 107 107 103 99 91 87 83 82 81 78 78 76 73 71 64 46
50 51 54 56 57 58 63 66 68 69 67 68 66 70 74 74 75 73 70 70 72 74 77 78 80 82 90 100 108 116 113 113 112 107 104 101 98 87 82 78 77 76 76 70 65 60 49
53 54 54 57 57 58 63 66 70 70 69 72 71 70 74 75 69 64 61 59 61 63 65 69 71 72 80 94 103 109 116 113 114 112 109 105 99 97 92 86 84 79 73 74 72 67 60
53 54 54 56 59 63 66 68 69 72 73 70 70 74 75 69 59 54 52 50 51 55 57 60 64 65 71 85 101 108 112 113 114 114 116 107 100 102 97 98 96 84 83 78 69 67 60
55 53 55 60 65 67 68 68 64 73 71 69 72 74 69 60 50 47 48 48 47 50 53 54 58 61 63 71 87 102 111 111 115 112 113 112 104 104 104 104 92 87 80 78 79 74 64
60 62 62 67 69 74 73 69 66 68 68 70 72 67 59 50 45 44 44 42 42 44 48 48 52 57 59 61 76 88 107 110 114 113 111 109 108 110 105 100 97 94 89 86 76 66 63
67 68 66 68 73 76 72 68 65 62 65 72 70 57 50 45 45 44 43 40 40 42 42 45 47 52 54 55 65 80 95 110 112 113 111 109 109 112 110 105 103 99 93 85 78 78 69
72 75 75 76 72 71 69 65 61 63 67 68 61 49 41 41 40 37 42 44 43 39 38 40 42 45 47 49 58 74 86 100 109 112 113 110 110 112 113 110 105 98 95 88 82 78 69
81 79 72 70 67 65 61 61 61 63 65 62 50 41 37 33 31 32 35 39 43 42 35 31 34 38 44 43 53 69 77 87 98 105 112 110 110 110 111 111 104 95 92 88 83 72 68
79 69 64 60 57 56 56 60 63 63 62 54 39 31 29 27 29 35 38 41 43 43 38 28 31 30 39 40 45 62 69 76 84 97 104 106 110 108 105 107 105 100 99 90 82 77 71
63 58 54 53 51 50 57 62 64 61 53 37 30 26 26 29 36 40 45 47 46 42 37 29 25 27 32 36 41 54 64 67 74 87 98 103 108 106 105 105 106 106 100 92 88 83 75
54 50 47 46 49 53 57 60 53 50 35 25 20 22 23 31 36 42 45 49 49 46 37 29 22 22 26 32 34 45 58 61 66 80 94 99 104 105 111 106 105 107 102 96 91 84 78
43 44 49 51 54 57 55 49 42 31 21 18 18 17 21 32 37 43 47 50 51 45 35 25 20 15 19 24 27 36 47 52 63 74 86 99 106 104 113 109 104 105 103 100 92 84 82
50 51 54 58 58 55 49 39 30 19 14 13 14 15 21 30 37 44 50 50 51 46 35 24 15 10 12 19 27 36 45 52 64 74 76 93 102 105 111 111 105 101 101 99 93 88 86
54 57 60 61 58 50 43 34 20 9 9 9 14 17 23 34 34 39 47 53 52 48 37 24 16 6 6 15 26 37 49 57 64 61 69 92 103 104 109 110 103 98 96 96 97 91 90
60 60 61 59 52 47 37 25 12 8 9 12 15 21 25 31 40 40 43 47 51 50 40 26 15 5 7 13 21 32 41 50 49 52 70 94 103 103 108 109 105 99 93 93 91 93 88
62 61 59 51 47 39 32 19 10 10 10 14 19 21 23 23 30 39 41 42 47 49 43 28 17 7 9 15 16 18 27 34 44 54 67 88 101 103 105 106 101 98 91 89 90 91 90

GFSGBSN_250_spd_048.txt.gz
Wind_Speed
31 32 33 35 37 39 41 43 45 46 47 49 50 51 52 53 53 54 54 53 52 52 50 49 49 49 47 39 41 38 36 34 32 33 35 49 53 51 48 46 44 42 40 38 39 37 37
32 33 34 36 38 40 42 44 46 48 50 51 51 52 53 54 54 54 53 52 52 52 51 53 53 54 53 46 45 44 42 39 37 36 36 36 45 51 50 50 49 50 47 45 43 41 41
33 35 37 38 40 42 44 45 47 49 51 53 55 55 57 58 58 58 58 58 57 57 56 56 56 57 57 52 50 49 48 46 43 42 40 38 34 36 46 52 47 50 48 50 49 47 45
40 42 44 45 47 48 50 51 52 53 55 56 57 58 59 60 61 62 62 64 64 64 61 61 62 62 61 58 56 55 54 54 52 48 46 43 42 38 36 41 40 42 45 50 49 50 51
42 44 45 47 48 50 52 54 56 59 61 63 64 64 65 66 66 67 67 68 68 68 66 67 67 68 67 66 63 62 60 60 57 55 52 47 47 45 41 39 35 34 40 47 47 48 46
41 45 47 49 50 52 54 56 58 60 61 63 65 67 68 71 74 75 77 77 77 76 71 71 71 72 72 72 70 68 67 65 62 60 56 51 50 50 48 45 42 41 49 48 44 43 40
33 34 36 39 42 44 47 50 55 58 61 63 66 68 69 72 75 78 79 82 85 86 81 80 78 77 76 76 76 74 73 70 67 64 60 61 56 50 55 56 54 47 49 43 41 36 36
36 37 39 42 42 45 47 48 51 54 55 54 57 58 61 64 67 71 76 83 89 89 89 88 88 87 86 83 82 79 79 78 73 70 69 64 57 67 61 56 56 51 52 50 46 38 39
36 37 39 41 42 45 47 50 53 55 55 56 59 58 58 60 64 71 76 79 85 89 91 94 93 94 93 93 93 89 85 83 80 76 73 70 71 70 66 63 59 56 56 58 56 45 44
40 41 42 41 42 47 50 51 51 53 56 58 61 64 66 67 68 70 72 74 80 88 88 93 96 98 100 101 100 98 94 90 86 82 81 76 78 73 72 65 63 59 61 65 64 51 47
46 46 44 47 46 48 50 51 53 55 55 56 61 64 66 71 74 75 76 77 79 83 87 91 96 97 101 102 104 105 102 99 97 91 86 78 81 78 76 71 68 67 65 67 70 59 54
48 48 47 49 48 50 51 50 54 55 56 57 62 67 70 73 77 78 79 75 77 80 81 84 90 95 99 103 105 107 109 107 105 101 94 87 86 83 80 82 76 77 70 71 74 67 53
47 47 46 45 47 50 49 49 51 52 56 59 63 69 73 76 77 78 78 77 78 80 81 81 85 89 93 94 104 108 110 111 111 108 104 96 92 86 86 86 84 79 77 74 76 69 46
45 45 44 44 50 50 52 56 61 61 63 65 66 68 73 77 79 80 77 77 77 77 77 76 78 82 89 93 97 102 108 110 114 114 111 106 102 95 90 88 88 84 83 75 69 61 50
46 46 46 52 55 55 59 59 63 66 66 70 71 70 74 77 75 74 74 72 70 66 66 65 67 69 76 84 91 96 102 111 112 116 116 112 105 103 99 97 94 89 83 77 74 65 57
51 51 56 61 63 65 67 68 71 72 71 72 69 72 71 67 68 71 70 63 57 56 55 56 60 62 65 73 83 90 94 105 113 113 117 117 111 110 106 103 99 91 86 87 77 71 62
62 63 67 66 68 70 73 72 71 72 70 69 64 65 61 64 69 66 60 52 45 46 49 51 54 58 61 67 74 83 88 99 111 112 113 119 118 114 113 109 102 96 93 87 82 77 65
68 71 74 74 73 72 69 66 64 67 65 62 60 58 61 64 60 52 44 42 44 46 48 49 51 55 57 61 67 75 81 91 107 116 112 115 120 120 115 111 109 105 98 92 85 73 69
71 71 66 61 60 58 57 57 54 55 55 55 57 58 58 53 44 38 39 37 37 39 42 46 47 51 54 57 61 67 72 80 94 108 111 111 116 121 121 118 114 112 106 97 85 82 73
64 61 57 52 51 51 50 51 50 47 50 54 57 53 47 39 34 35 38 39 40 41 43 46 46 46 51 54 54 60 64 68 84 98 105 106 111 121 124 122 117 112 109 102 92 82 73
54 51 48 45 45 44 46 49 52 52 54 54 50 46 33 28 27 29 33 38 43 46 45 42 37 39 44 47 48 51 56 62 79 88 95 101 109 118 125 124 119 115 109 104 96 86 77
50 50 50 49 50 51 52 52 52 50 48 45 41 29 24 20 21 27 34 40 48 52 52 43 33 33 33 37 39 43 46 58 74 80 87 94 105 113 125 122 121 117 112 105 98 90 82
57 56 57 56 55 54 53 49 44 40 34 30 24 19 19 22 25 31 40 45 52 53 50 38 29 27 27 28 32 34 39 50 65 72 79 86 102 112 123 123 119 116 112 104 98 92 88
61 61 61 62 61 56 48 42 35 29 24 19 16 19 19 26 32 37 43 49 55 55 45 34 25 23 23 22 24 28 34 45 56 66 72 83 100 112 120 123 119 113 111 106 97 94 91
63 64 66 65 59 51 47 40 31 19 14 15 18 18 22 26 35 42 47 51 54 56 42 32 23 21 18 18 17 22 30 41 50 59 68 78 97 114 119 119 117 115 111 108 101 94 92
67 69 67 59 54 49 43 37 26 18 17 14 16 18 21 25 33 41 48 54 56 59 40 30 22 18 14 11 11 15 22 35 46 55 61 75 94 114 116 117 115 112 107 103 100 97 94
71 69 58 55 49 44 39 30 21 19 17 12 17 21 24 29 31 40 45 52 57 61 44 32 26 19 12 6 7 13 21 29 38 47 59 69 85 109 115 115 110 108 106 101 103 98 95
72 64 57 53 48 44 37 27 17 16 19 19 20 23 26 26 30 33 40 48 56 59 49 35 26 18 12 5 2 9 18 28 36 46 55 68 82 105 114 112 106 102 104 104 98 100 97
72 61 56 53 48 42 34 27 18 18 19 23 24 25 27 29 30 32 37 42 51 53 49 39 28 18 13 8 8 9 14 23 32 44 54 66 77 97 114 115 107 100 103 101 95 96 97

GFSGBSN_250_spd_054.txt.gz
Wind_Speed
37 37 39 40 41 41 41 42 42 42 43 45 46 46 46 47 48 46 47 46 46 47 47 47 46 44 42 39 38 37 37 34 34 35 44 50 47 47 44 42 39 37 34 34 33 30 27
38 39 40 42 43 44 45 46 47 47 47 46 47 47 48 49 50 50 50 50 49 49 49 50 49 48 47 45 44 44 42 40 38 38 36 41 47 53 51 48 45 44 42 40 37 35 35
40 42 44 45 46 47 47 48 49 50 50 50 50 51 51 51 52 51 51 52 53 53 53 54 53 52 51 51 48 48 49 47 45 43 42 39 37 42 49 53 54 50 48 46 44 40 39
46 48 50 52 53 54 55 56 56 56 56 56 55 55 56 56 56 55 55 55 55 56 56 56 57 57 56 54 52 51 51 52 51 48 46 44 41 40 40 43 48 55 55 52 49 47 45
40 43 46 49 51 54 56 58 59 61 62 63 63 62 64 65 65 63 63 61 60 59 59 59 59 60 60 59 57 55 54 53 56 55 53 49 47 45 44 41 40 47 56 56 54 51 49
36 38 41 45 49 52 54 56 57 59 61 64 66 66 68 70 71 70 70 69 68 67 66 64 64 64 63 63 62 61 60 58 55 57 57 55 53 51 49 46 45 47 53 57 58 56 53
39 43 46 48 49 50 50 53 57 60 63 65 66 66 69 72 73 73 72 72 71 72 73 73 72 72 70 69 67 66 65 64 62 59 60 60 58 58 59 54 50 48 48 46 49 54 53
47 46 43 44 49 53 57 58 59 59 60 62 67 68 69 70 71 72 75 76 76 74 75 76 77 77 77 78 76 73 71 69 68 67 64 63 62 67 62 59 55 52 51 49 44 43 44
53 50 48 51 51 50 53 58 63 63 62 64 67 67 68 70 72 75 75 73 73 71 72 75 78 80 81 81 81 81 81 77 74 72 72 69 70 69 68 66 62 58 56 56 51 45 40
62 58 57 57 58 57 52 52 57 62 65 66 68 69 69 70 71 73 74 75 78 77 76 76 78 78 79 80 82 84 85 87 84 81 78 74 74 73 73 70 68 63 63 62 57 53 46
63 64 65 65 64 62 59 59 57 58 60 62 66 69 68 68 71 74 75 76 77 78 79 78 81 85 84 83 82 80 84 88 89 88 86 83 82 79 78 77 75 73 70 67 64 57 53
71 71 68 64 67 68 68 68 66 63 63 61 64 66 67 68 69 68 71 75 76 79 80 80 81 84 86 86 86 87 87 85 87 89 90 92 90 86 83 84 82 82 75 76 72 64 56
81 68 50 46 45 53 59 62 65 68 70 69 69 69 69 68 70 71 70 68 72 77 77 78 82 87 88 89 88 89 89 89 89 88 89 93 94 97 93 89 88 85 81 80 80 70 51
88 57 46 44 43 39 38 42 51 59 64 68 73 75 73 74 75 75 75 75 77 77 80 83 86 88 91 91 91 92 93 94 95 93 92 90 95 103 100 98 94 91 88 85 80 75 61
89 60 51 49 49 46 42 38 37 37 43 51 60 68 74 75 79 82 83 83 83 83 85 88 90 90 90 91 91 95 96 98 100 101 104 97 98 98 105 106 104 97 93 82 89 85 74
94 67 54 56 51 48 46 45 43 40 38 35 38 47 53 59 64 69 73 76 79 82 81 82 85 86 87 88 93 94 95 96 100 105 106 101 105 104 103 109 110 109 95 98 94 89 78
95 75 62 59 57 56 53 49 46 43 42 39 38 37 38 42 46 49 52 54 55 59 62 64 66 68 73 75 79 81 83 86 91 97 102 103 104 106 106 112 114 110 112 104 95 90 82
99 84 67 62 60 54 49 45 43 41 39 39 40 40 40 40 40 42 45 48 52 55 57 59 62 65 66 68 70 73 74 78 83 89 94 97 102 105 105 114 117 115 119 110 103 93 87
103 89 72 67 64 56 48 45 39 34 30 29 34 36 38 39 41 43 45 48 50 50 50 53 55 58 59 61 63 65 69 71 76 80 85 93 99 102 102 109 120 124 125 120 112 100 95
104 97 78 73 68 59 49 46 42 34 28 25 25 26 28 31 35 36 38 41 44 46 48 49 51 53 55 57 60 60 65 66 72 76 81 86 94 102 105 114 123 126 126 122 113 105 96
106 103 79 77 71 58 52 47 41 34 26 20 18 16 17 17 21 27 31 34 37 41 44 47 51 53 53 57 62 64 63 64 67 72 79 84 89 98 106 112 115 123 126 120 118 109 101
107 104 80 76 72 59 53 48 40 32 24 17 13 11 11 16 21 26 29 32 36 38 40 41 44 48 55 57 56 56 56 59 60 63 69 78 85 91 101 112 114 119 128 125 122 113 107
106 105 81 78 71 60 53 47 39 30 24 18 16 16 19 20 22 26 28 32 36 40 40 41 39 43 43 41 39 39 43 47 51 57 61 68 80 84 92 104 110 111 120 124 117 115 113
104 108 84 79 73 60 52 46 39 32 27 23 21 23 25 28 30 32 34 38 40 41 40 44 30 29 29 29 33 34 36 38 41 48 53 59 69 78 85 96 100 101 113 126 120 118 116
104 108 86 78 75 63 52 46 40 33 29 28 27 29 31 32 34 34 36 39 39 42 42 38 29 23 23 21 23 28 32 33 35 39 44 53 64 73 80 87 86 96 112 116 122 115 114
102 107 86 80 75 63 54 48 41 35 29 27 30 32 34 34 37 38 37 37 40 42 43 35 30 32 26 20 19 20 22 28 32 36 38 43 52 63 76 76 81 90 97 106 117 114 114
102 106 83 81 75 64 55 50 44 37 32 29 29 29 31 33 34 35 35 36 38 42 44 37 36 26 21 17 13 12 13 17 23 28 32 37 47 58 67 64 70 77 85 102 110 114 115
100 104 81 80 75 66 57 50 43 38 35 32 32 32 34 37 39 38 34 31 31 35 40 40 31 24 13 10 8 7 6 8 13 19 24 30 36 44 50 55 64 73 79 92 106 105 116
98 99 84 80 76 67 58 50 44 40 36 34 31 32 32 33 36 37 33 28 27 31 38 45 31 23 15 7 4 2 2 3 8 14 20 27 34 39 44 56 65 69 78 84 104 105 114

GFSGBSN_250_spd_057.txt.gz
Wind_Speed
39 41 43 44 45 46 45 46 47 47 47 46 46 46 47 46 46 45 45 44 45 45 45 45 44 44 43 41 41 39 38 36 36 41 48 49 49 47 43 41 38 36 34 32 31 28 24
41 43 45 46 48 48 49 51 51 51 51 51 51 51 51 50 50 49 49 49 49 48 48 48 47 46 46 45 44 43 43 41 41 39 43 50 49 52 49 48 46 43 40 36 34 34 32
42 44 47 49 51 53 54 54 55 55 56 56 56 56 55 56 55 53 53 53 53 53 53 52 51 50 48 49 48 48 47 47 46 45 42 43 46 49 51 51 52 49 45 43 40 37 35
42 45 48 50 52 53 55 58 60 62 62 61 59 59 59 59 58 57 57 57 57 56 56 55 55 55 54 53 53 52 51 51 50 50 48 47 45 44 49 50 55 53 52 48 45 43 39
39 43 47 50 53 54 57 58 59 60 63 64 64 65 66 65 64 63 62 61 61 60 59 58 59 58 58 58 58 58 57 54 54 55 54 53 50 49 46 46 46 55 57 55 50 46 43
40 41 44 47 51 57 62 62 62 64 64 65 64 65 68 69 69 69 69 68 67 66 65 64 63 62 61 62 61 61 61 60 57 57 58 57 57 54 51 48 47 51 56 58 58 54 47
46 47 49 50 50 52 55 61 64 66 67 68 68 68 68 69 70 71 71 72 74 75 74 72 72 70 69 66 65 65 64 64 63 59 60 62 61 61 60 55 53 49 47 49 53 53 53
56 58 59 61 67 64 56 54 60 62 67 70 73 71 70 71 73 73 72 73 74 75 77 78 79 77 76 75 73 70 68 67 66 66 64 61 62 67 66 61 56 53 53 51 50 49 50
62 65 72 65 59 59 60 61 61 61 64 65 69 74 75 75 74 74 75 76 76 76 76 78 79 79 80 80 79 78 76 72 71 69 68 67 68 68 69 66 63 58 59 58 52 46 45
71 75 79 64 45 47 53 60 64 66 69 68 70 71 75 77 79 78 78 77 77 78 79 77 78 78 82 83 82 82 82 81 78 76 73 72 74 71 70 69 69 65 64 63 58 51 48
73 79 87 68 48 41 39 40 48 59 65 71 72 72 71 72 73 78 78 79 79 79 82 75 79 81 82 81 80 84 85 85 85 83 81 78 77 76 75 74 73 71 69 65 63 57 56
79 84 87 77 51 42 42 42 43 44 48 59 68 73 73 71 72 72 73 77 80 81 84 77 80 82 83 84 83 83 84 86 88 88 86 86 85 82 78 80 78 77 75 72 68 66 61
78 84 89 89 61 52 48 41 41 44 43 45 49 61 68 72 75 72 72 72 74 77 78 75 78 82 83 83 85 85 87 88 86 86 88 90 90 89 87 84 83 82 79 77 77 74 57
80 87 93 102 64 54 50 46 46 44 43 44 45 45 53 62 69 75 76 76 75 76 73 74 78 80 81 81 86 87 89 90 91 90 91 89 90 93 93 90 90 87 87 82 79 74 60
85 91 94 98 71 57 53 50 47 44 43 42 43 43 43 45 56 68 75 78 79 77 77 76 80 81 81 82 84 85 90 93 90 92 94 97 94 94 90 94 96 91 94 82 83 82 73
91 93 97 100 81 65 58 52 44 41 40 39 41 42 42 41 40 50 59 68 75 77 80 80 83 84 86 84 88 89 93 92 92 93 96 97 95 99 96 95 94 100 95 93 90 87 80
93 95 98 104 88 71 64 52 42 37 34 33 33 37 39 40 39 39 41 48 53 62 71 78 83 86 88 90 91 96 96 93 96 96 97 99 97 99 104 95 95 98 97 103 97 91 85
95 96 101 107 90 75 70 55 44 36 28 24 24 26 32 37 40 41 41 43 43 48 55 59 65 68 69 73 77 82 90 92 90 93 98 99 94 100 99 99 104 104 100 106 107 99 90
94 98 100 106 93 80 73 58 48 38 29 20 18 20 23 28 35 40 43 45 48 51 54 57 59 62 65 68 70 73 76 78 76 84 91 92 92 99 102 102 106 105 106 98 96 101 99
95 100 101 105 105 83 75 58 50 42 32 24 17 14 18 23 26 30 36 40 42 46 48 50 51 53 56 58 63 68 70 73 73 79 79 83 88 95 101 112 113 111 112 114 112 108 105
95 99 101 104 109 82 75 59 50 44 35 28 23 16 13 13 16 18 21 24 27 32 38 42 46 48 52 59 64 67 67 68 69 73 74 79 84 90 97 107 106 109 112 111 110 102 103
95 99 101 103 107 82 74 59 50 43 36 28 22 19 18 15 13 16 19 24 29 32 36 42 42 50 56 60 62 59 57 60 62 66 73 77 81 87 91 101 102 110 113 114 115 109 103
93 99 101 104 109 81 75 62 51 44 36 28 24 20 18 19 20 23 25 26 26 30 34 33 40 44 43 45 49 51 48 48 53 58 65 69 74 82 85 95 101 106 108 114 115 112 110
92 97 99 102 108 84 77 66 55 46 37 31 25 23 23 26 28 30 30 31 29 29 31 34 38 33 33 32 36 39 42 45 47 51 59 67 74 79 81 91 97 92 101 109 113 113 112
91 95 98 101 106 87 78 70 59 51 42 34 30 27 26 25 26 26 25 26 25 25 26 32 39 32 31 30 30 28 32 36 38 43 50 58 67 72 79 85 82 85 95 101 106 103 114
89 93 97 98 103 88 79 70 61 53 48 39 33 30 28 28 27 26 26 25 22 20 23 31 39 34 35 28 27 25 24 27 31 32 39 47 54 61 71 73 70 81 90 92 99 103 114
87 91 96 98 102 90 80 72 63 56 48 39 34 31 29 28 27 23 21 21 18 16 20 29 28 29 29 23 26 24 21 22 23 24 27 34 44 50 60 62 70 77 75 79 92 104 104
86 90 93 96 101 89 79 73 64 58 48 40 33 32 30 30 28 26 23 19 13 14 18 28 31 27 28 26 23 21 17 17 17 18 19 25 31 39 45 55 62 64 71 80 84 95 103
85 88 91 95 100 85 77 73 65 57 49 41 34 33 31 30 28 27 26 22 11 11 17 26 30 29 31 22 19 14 11 8 8 11 15 21 27 32 39 48 52 59 67 77 81 90 100

GFSGBSN_250_spd_060.txt.gz
Wind_Speed
37 39 42 44 46 48 49 50 50 51 51 51 51 50 49 47 46 45 44 45 44 44 45 45 46 45 44 42 42 40 38 38 40 42 49 53 49 48 45 42 40 37 36 30 27 27 22
39 42 45 47 49 52 53 55 55 56 56 55 55 55 54 53 51 50 49 49 48 48 47 47 47 47 46 45 45 45 43 41 40 42 44 47 53 53 50 48 45 40 37 33 29 27 25
43 45 48 51 53 56 60 62 63 63 63 62 61 61 59 57 56 55 54 54 53 52 52 51 50 49 47 49 48 48 48 47 45 44 45 44 45 51 53 53 49 46 43 37 33 32 30
38 40 44 48 51 53 58 61 65 67 69 69 68 67 66 64 62 62 61 60 58 58 57 55 55 53 52 51 51 50 51 50 50 48 47 48 46 47 48 52 55 51 48 43 39 36 35
27 32 34 36 39 44 53 61 65 68 69 69 70 70 72 71 68 66 64 63 63 62 62 60 59 58 57 57 55 55 53 54 54 52 52 51 52 50 50 46 53 54 54 50 46 42 41
40 41 42 47 52 54 55 58 65 68 70 72 71 70 71 71 73 72 70 69 67 66 65 65 63 62 61 61 61 60 58 58 58 57 55 57 55 54 52 49 52 58 57 56 52 48 44
46 49 53 55 60 65 60 60 58 67 71 72 75 74 73 72 72 73 74 73 73 72 72 70 69 66 65 64 64 64 64 63 61 60 61 61 58 57 59 57 53 53 56 56 56 52 49
50 56 58 62 66 69 61 52 51 61 69 77 74 76 76 76 75 74 73 74 76 75 76 77 75 73 72 69 68 66 66 66 66 66 66 62 62 64 63 61 58 56 53 53 56 57 55
53 59 61 64 67 70 53 43 44 50 59 69 76 74 74 76 77 76 76 75 75 76 77 79 79 79 79 77 74 73 71 67 67 69 69 68 69 67 65 65 62 61 59 60 56 53 54
60 64 66 68 70 75 51 36 38 40 43 48 64 71 74 73 75 77 77 78 78 78 80 78 80 78 82 82 82 80 78 76 74 72 71 70 72 70 68 67 67 65 65 65 60 56 51
66 69 72 72 74 82 54 40 36 39 43 46 47 53 67 72 75 74 75 76 78 80 85 77 77 81 80 83 79 84 84 84 83 81 78 74 73 73 71 71 70 69 70 68 66 60 55
71 73 74 76 76 84 54 43 44 42 41 43 45 47 49 56 73 76 77 75 77 80 89 80 81 81 82 83 83 81 85 86 85 84 84 83 81 76 75 75 73 74 73 72 70 67 57
75 76 77 77 84 90 63 50 45 41 41 41 43 45 46 47 51 67 76 77 77 78 80 81 81 83 85 84 82 84 85 86 86 87 86 86 86 85 82 78 78 77 77 74 75 73 57
79 82 79 81 86 91 67 54 48 39 35 35 38 41 44 44 46 47 60 74 77 82 84 71 72 77 85 87 85 83 84 87 88 89 89 87 88 89 88 85 84 81 82 79 75 72 63
82 85 82 85 87 96 72 60 49 37 34 30 29 32 40 43 44 46 45 56 72 79 75 74 77 78 79 77 83 85 87 88 91 87 86 88 86 92 89 89 90 85 88 78 79 75 71
83 84 84 87 90 98 82 68 56 42 32 28 25 26 30 37 44 47 47 47 50 65 77 78 80 80 78 80 76 80 85 88 90 82 86 92 91 92 90 93 89 93 87 89 84 81 75
83 87 86 88 93 99 94 72 64 49 37 28 21 20 23 30 38 47 49 48 46 46 57 70 77 80 83 83 81 83 84 87 88 85 84 91 93 93 100 93 87 91 93 95 94 88 80
85 86 85 88 92 100 102 76 67 53 42 33 20 14 18 24 30 39 45 46 45 46 45 50 61 74 82 84 86 88 91 91 85 85 86 91 90 90 98 95 97 100 95 99 103 96 87
84 85 86 89 92 98 104 78 70 55 45 37 27 14 12 18 24 32 40 44 45 47 49 49 51 56 63 70 78 85 90 95 92 91 93 95 93 94 96 99 105 102 96 100 101 98 95
83 84 87 89 92 99 103 84 73 55 45 37 31 20 11 11 19 24 32 39 44 47 49 52 55 58 61 64 68 73 78 84 85 89 91 100 101 98 98 102 113 112 108 111 108 104 101
84 84 86 90 91 98 103 91 76 56 45 38 32 24 16 10 10 13 19 26 31 37 44 49 54 58 61 65 70 73 76 80 78 79 82 86 91 97 101 107 108 108 104 107 109 104 101
82 84 86 89 92 98 102 96 76 60 48 40 33 27 24 20 18 19 22 26 30 33 36 40 44 49 51 55 61 66 70 72 76 79 79 84 85 90 91 99 108 104 105 109 112 105 105
80 85 85 90 91 97 100 100 78 64 52 41 34 29 25 23 22 24 26 28 29 32 34 37 41 42 45 50 56 59 59 59 61 61 67 77 82 87 85 90 100 103 102 107 109 109 112
81 84 84 89 91 96 99 101 77 67 53 44 35 29 27 25 24 25 26 27 27 28 29 33 33 32 34 35 40 45 48 52 55 54 50 60 72 81 83 91 96 86 96 104 111 113 115
82 83 83 88 91 96 99 99 77 69 56 46 37 27 26 25 24 24 25 26 26 28 27 28 26 26 29 28 31 33 34 40 44 44 47 49 64 76 76 84 84 86 96 107 113 112 113
78 82 82 87 91 95 99 98 77 72 58 49 38 28 25 23 21 22 22 21 22 22 19 18 18 25 24 26 28 30 27 24 29 35 39 43 50 63 67 76 75 76 93 95 104 108 111
75 80 81 85 90 95 99 98 77 72 59 54 41 29 24 20 17 18 18 19 18 15 11 10 17 22 21 24 22 24 27 23 21 23 28 35 42 51 63 69 70 81 81 88 95 102 110
74 78 81 83 89 95 99 97 79 72 61 57 44 32 25 22 18 18 15 12 11 6 7 8 17 21 19 20 23 25 28 26 23 20 22 27 34 42 51 59 62 66 74 80 82 90 104
73 75 80 82 89 94 97 94 79 72 62 55 46 35 26 22 20 19 14 12 7 3 4 10 19 25 23 22 20 22 27 26 23 19 17 19 27 37 43 47 52 59 68 71 74 81 92

GFSGBSN_250_spd_063.txt.gz
Wind_Speed
36 39 42 44 47 49 51 54 55 56 55 55 54 53 52 50 48 47 47 46 44 44 43 44 45 47 46 45 45 39 39 42 44 48 50 50 48 47 44 43 41 39 37 34 34 30 22
36 39 42 45 49 53 56 58 60 62 63 63 62 61 59 57 55 53 51 50 48 48 47 47 47 48 49 50 51 45 43 43 44 45 49 53 52 50 50 47 46 43 39 36 35 34 28
33 35 38 44 48 54 58 62 64 67 68 69 69 67 64 63 61 60 58 56 53 52 51 50 50 49 50 55 52 52 49 47 47 46 46 47 51 54 53 50 48 48 44 39 35 34 32
25 29 31 37 40 47 53 58 64 71 72 75 74 74 73 71 68 68 66 64 61 58 55 54 53 53 53 54 54 55 55 51 51 50 48 48 48 52 55 54 53 50 48 44 38 37 33
32 34 36 41 44 47 50 59 67 72 77 79 78 78 77 76 75 73 72 70 69 66 62 59 57 56 57 57 55 57 56 56 54 54 53 51 51 49 50 54 57 55 53 50 44 41 35
39 40 40 41 44 48 54 57 63 74 78 79 79 76 78 78 78 77 77 75 74 72 71 68 65 62 60 61 61 59 58 59 59 57 56 56 53 51 52 51 57 59 56 53 50 46 41
45 43 44 46 48 53 59 64 71 69 58 63 73 77 75 74 76 79 79 78 77 76 77 75 72 69 66 65 64 63 63 61 60 60 60 60 57 56 56 56 55 55 56 55 52 49 46
54 56 58 61 54 58 63 67 74 68 55 54 62 69 72 75 77 78 79 79 79 78 78 78 77 74 72 70 69 67 67 66 64 64 64 61 61 63 60 58 58 57 54 55 58 55 52
62 60 62 64 61 63 64 68 69 55 47 47 52 61 70 79 81 81 82 80 79 78 79 79 79 80 76 75 72 71 71 69 68 68 66 64 69 67 65 62 61 59 58 58 58 57 56
65 60 64 68 65 68 69 73 64 46 44 43 45 51 56 63 75 82 83 81 79 79 80 78 80 78 84 82 78 76 74 71 71 71 71 69 72 68 68 66 65 63 62 62 61 55 54
68 65 68 71 68 72 74 79 56 46 44 45 43 45 49 52 56 65 80 80 79 79 81 79 77 78 81 82 81 83 80 78 76 75 73 72 74 72 70 70 68 68 67 66 64 57 54
69 70 73 75 74 76 78 81 57 48 42 39 42 42 44 47 50 53 60 74 79 80 81 79 82 81 80 80 82 82 86 86 83 81 78 77 76 74 74 73 71 72 70 69 68 62 55
70 74 75 76 77 79 82 85 61 49 41 35 33 37 41 44 45 49 52 58 74 83 81 79 79 80 81 81 79 82 85 86 89 89 87 86 81 79 77 75 75 74 73 72 69 66 57
75 77 77 79 80 83 86 87 64 51 36 32 28 27 32 39 44 47 50 55 67 80 81 79 75 77 81 82 81 83 84 87 89 92 91 91 89 87 87 82 80 76 76 75 72 66 66
75 75 75 81 83 86 87 92 76 59 41 32 26 21 23 30 40 47 52 54 55 55 63 75 76 78 82 83 85 86 88 89 93 89 87 86 88 92 89 89 84 82 78 73 75 72 73
79 75 75 83 85 86 87 92 89 67 54 38 26 16 17 23 31 43 49 48 45 49 52 62 83 82 84 83 84 83 86 91 89 86 84 86 88 91 93 92 89 90 84 85 79 74 73
83 75 75 81 87 86 87 92 94 70 61 47 31 18 11 17 24 32 42 47 52 50 47 47 55 72 86 86 83 82 86 84 84 84 86 87 86 90 92 91 93 94 94 93 89 81 76
68 75 77 80 86 85 87 92 96 74 67 51 39 23 12 12 19 26 33 41 48 51 48 49 48 50 64 78 85 84 89 85 84 84 83 84 89 91 92 92 92 91 92 95 95 89 83
65 72 75 81 84 86 87 91 95 77 70 53 41 29 18 12 15 22 30 35 41 47 50 51 50 51 51 59 71 82 88 88 85 84 83 83 88 92 93 95 97 98 97 99 101 95 91
65 73 71 79 85 85 87 92 94 83 73 53 43 29 21 15 12 19 25 32 38 43 49 51 52 53 53 55 58 66 77 87 89 90 90 89 90 90 89 96 102 99 98 101 103 102 96
68 72 68 76 83 84 86 91 95 91 73 55 41 30 21 16 15 15 23 30 36 42 48 52 54 56 58 60 61 62 64 69 78 85 90 93 97 97 94 95 103 101 99 100 101 98 96
61 68 69 76 82 84 86 93 96 95 71 56 42 31 24 18 17 20 23 27 33 39 46 50 55 57 60 61 63 64 67 69 71 73 77 85 93 99 101 102 106 104 103 104 102 96 96
60 67 70 76 80 82 87 92 97 97 72 59 45 32 24 19 18 20 24 27 30 35 38 42 47 51 53 55 55 59 62 66 71 76 79 80 83 90 92 104 109 106 100 104 104 98 102
64 66 68 75 77 79 89 93 97 99 78 64 51 34 24 18 19 21 22 25 27 29 35 39 42 44 44 42 46 49 53 57 60 65 68 73 78 83 86 94 100 95 106 108 107 104 106
57 63 67 75 76 80 89 93 98 99 78 66 56 39 27 20 19 20 20 21 24 26 28 29 32 32 29 30 35 40 44 50 54 56 57 59 61 72 78 90 92 91 99 105 108 107 111
59 62 66 74 76 81 89 94 97 101 79 63 56 41 31 23 20 18 18 19 20 20 19 21 21 19 20 27 29 31 34 36 37 38 43 47 53 59 67 79 83 88 96 96 97 104 111
55 62 66 71 74 82 89 93 97 100 81 66 57 40 32 25 20 17 18 20 18 15 14 10 9 13 18 21 24 28 29 32 32 33 34 37 44 50 50 65 74 83 87 91 93 93 103
53 60 65 71 72 80 88 91 95 98 81 65 59 42 30 25 18 17 17 19 16 9 3 4 7 10 14 16 17 21 23 24 20 21 20 24 33 40 44 49 64 72 76 82 85 90 98
52 58 65 72 70 79 86 89 94 93 79 65 58 44 34 27 22 21 15 14 8 2 3 5 9 13 17 21 19 17 15 20 27 20 15 14 20 28 36 42 51 62 66 67 75 82 95

GFSGBSN_250_spd_069.txt.gz
Wind_Speed
28 28 28 30 32 33 35 38 43 48 52 55 57 59 61 62 61 59 56 53 52 51 49 47 46 48 53 53 51 50 49 57 57 54 54 56 52 50 46 45 43 38 35 35 30 28 25
36 30 27 28 28 29 33 37 43 49 51 52 55 58 62 64 65 64 62 59 56 54 53 53 51 51 53 57 55 54 52 54 55 59 58 58 56 53 48 48 45 43 40 39 33 33 29
42 39 31 27 26 28 31 36 35 39 46 52 58 61 63 63 66 69 69 67 65 61 58 57 58 55 55 57 58 58 58 57 59 59 59 58 58 57 55 51 49 47 46 45 39 37 31
48 47 40 27 26 28 29 29 28 32 37 44 51 59 65 67 69 71 72 74 72 69 65 64 63 62 58 58 60 63 63 62 62 63 60 60 59 61 62 58 55 53 49 48 44 40 36
54 51 45 43 32 33 32 31 29 35 37 39 46 55 63 70 74 74 72 76 77 76 74 71 68 66 64 63 61 62 66 65 65 63 59 60 63 63 61 63 61 58 54 52 46 43 39
52 55 48 43 35 32 31 32 37 45 49 49 50 55 60 69 74 76 75 75 80 81 79 79 75 72 69 68 65 62 66 69 68 64 62 59 62 62 65 66 65 63 58 57 53 49 46
65 64 52 40 50 33 35 39 45 51 60 60 61 62 68 72 73 73 75 77 76 82 84 83 82 78 76 73 72 69 67 68 69 68 67 66 62 62 65 67 65 63 64 63 59 55 51
71 71 68 52 42 38 42 51 56 62 66 70 66 54 54 61 66 66 68 74 76 72 82 87 86 84 83 78 75 73 70 68 69 71 72 69 69 68 66 66 65 65 66 65 63 60 56
78 78 74 55 40 40 42 51 56 64 73 75 69 49 47 49 55 56 62 70 77 84 80 88 90 91 87 84 79 77 75 72 71 71 71 73 77 71 67 66 64 64 68 67 64 60 61
78 81 76 64 47 41 47 50 58 67 78 77 60 46 43 42 47 47 52 62 74 85 86 86 92 93 91 89 86 83 79 77 75 73 73 76 74 73 71 69 65 64 69 67 63 60 61
80 85 79 68 53 44 43 53 59 68 80 76 53 43 38 33 35 42 48 52 63 75 83 89 92 94 94 93 91 87 84 80 77 75 73 76 74 73 73 75 70 71 71 66 63 58 56
81 82 79 74 56 48 44 55 63 71 79 77 53 42 34 29 27 33 42 49 54 67 76 86 91 93 94 94 94 91 89 86 83 78 77 79 75 74 77 75 73 74 73 70 64 60 57
83 84 81 76 55 50 47 59 64 73 78 79 56 45 31 24 22 27 38 46 50 55 68 80 90 92 93 94 96 96 94 91 88 84 81 81 78 76 76 72 75 75 76 74 71 66 63
85 87 84 76 57 50 52 63 67 75 76 79 59 48 30 19 17 21 31 40 44 45 50 65 81 89 90 91 96 95 95 93 89 86 83 83 81 78 77 75 75 76 76 77 74 72 70
83 87 82 75 63 54 55 64 69 75 74 77 64 49 33 16 13 17 26 36 44 45 44 54 65 84 87 89 91 94 94 93 92 90 88 87 85 84 81 80 80 80 78 78 78 77 75
85 86 89 82 73 61 57 64 68 76 77 77 65 48 33 19 9 14 23 33 44 47 49 50 55 70 86 90 90 89 91 91 91 92 91 91 89 88 86 85 84 83 82 82 80 78 78
86 89 90 88 71 58 56 66 69 77 77 80 65 51 31 19 9 12 23 30 42 48 50 53 57 60 75 88 92 90 89 91 91 90 90 92 93 93 92 91 89 88 86 86 85 83 82
89 90 93 91 74 61 57 67 71 79 76 80 66 50 35 16 9 11 22 29 37 47 50 52 56 59 63 75 83 90 90 88 90 92 94 94 97 100 99 98 94 92 91 89 89 89 89
91 91 96 93 80 60 57 67 73 78 78 85 64 48 36 17 9 10 19 26 33 42 51 54 56 59 63 63 73 83 88 90 91 91 94 97 96 99 100 100 99 97 95 94 93 93 92
94 92 96 90 70 56 60 66 72 77 79 88 66 50 37 20 9 10 15 25 30 37 48 54 56 56 57 61 62 68 82 90 93 94 94 97 100 101 101 100 100 99 99 97 97 96 96
96 96 96 85 73 54 60 66 71 77 81 88 65 50 39 22 11 9 15 21 29 35 41 50 56 58 60 59 61 62 67 80 90 94 93 95 95 97 101 102 101 101 103 103 103 103 101
93 99 90 82 70 58 60 66 71 77 84 89 68 53 41 24 13 9 14 20 26 33 39 44 49 56 59 61 63 62 66 70 78 88 93 96 96 96 98 100 104 103 105 107 107 107 106
94 94 89 78 67 59 59 66 72 75 82 87 70 53 44 27 16 9 12 17 21 27 34 41 44 48 53 60 63 64 66 67 72 76 82 91 96 98 99 100 102 106 109 111 109 109 107
94 90 90 77 68 52 62 65 71 76 80 87 69 53 47 29 19 13 9 14 18 21 25 31 38 44 49 53 56 59 64 68 71 72 73 76 83 93 101 104 104 106 110 114 114 113 112
95 87 88 74 66 49 59 65 70 74 78 84 67 54 48 29 20 14 10 10 13 18 21 25 29 32 37 41 46 51 55 58 63 69 73 76 77 80 83 94 106 112 116 118 119 120 117
87 89 80 70 59 50 58 63 70 74 77 81 65 53 47 29 22 15 11 8 9 12 15 19 23 26 29 33 37 40 45 49 53 58 64 72 79 84 87 90 92 100 115 123 123 121 120
88 85 76 66 55 50 56 62 70 73 78 77 65 55 48 30 22 16 12 11 6 5 9 12 15 20 24 25 28 29 30 31 37 44 49 55 63 72 81 89 93 98 103 109 116 118 122
89 83 78 60 49 47 56 63 67 70 79 73 64 54 47 32 25 22 20 19 16 13 8 4 4 9 12 17 18 19 21 23 28 34 40 45 51 57 60 68 76 88 97 101 102 103 105
89 82 74 55 48 46 56 63 67 71 76 68 63 53 46 35 26 25 23 20 17 14 10 5 6 10 14 18 19 22 23 24 22 22 30 37 39 42 45 51 59 69 74 81 89 95 96

GFSGBSN_250_spd_072.txt.gz
Wind_Speed
35 36 29 25 28 29 31 31 32 34 39 43 47 52 55 57 58 58 59 61 59 57 55 52 51 50 49 49 51 51 56 58 60 59 57 56 52 50 48 44 41 36 42 41 36 29 25
40 38 37 27 24 27 30 30 34 36 38 41 44 47 51 57 61 62 62 64 64 62 61 58 56 55 54 52 55 55 56 59 60 62 61 58 56 52 49 47 42 40 46 44 40 34 30
39 37 44 36 27 25 28 30 33 34 37 44 48 50 51 55 58 62 65 68 68 68 66 65 62 60 57 57 57 60 60 61 62 64 64 60 59 59 54 52 49 43 47 44 40 34 30
44 46 49 44 40 29 26 33 37 38 40 42 45 48 53 56 58 63 65 70 73 73 71 71 69 64 62 62 61 62 64 62 62 64 66 65 62 62 59 59 55 49 47 45 41 35 33
50 50 52 52 54 29 34 34 35 38 40 39 41 45 47 53 60 68 68 71 74 78 77 76 75 71 67 67 65 64 66 66 64 63 62 66 67 63 62 64 61 56 51 46 45 41 37
57 60 58 56 55 41 30 35 36 35 36 41 40 48 51 60 61 72 76 76 78 79 82 82 81 79 73 71 69 68 67 69 68 64 64 63 67 68 66 65 65 60 56 51 48 46 44
57 59 62 58 55 44 31 31 36 41 43 46 49 55 62 70 68 79 84 80 79 80 82 87 87 84 81 76 74 73 71 69 71 69 67 67 66 70 71 68 65 64 61 56 52 51 48
61 61 64 65 56 46 37 37 37 41 43 46 51 61 71 67 66 74 78 79 79 80 85 86 92 90 88 84 80 78 75 71 71 72 72 71 70 72 69 69 69 66 64 63 58 55 52
62 62 64 60 56 55 42 38 38 35 42 49 57 69 67 64 61 60 62 66 69 74 82 88 92 94 94 91 86 81 78 76 74 72 75 76 77 72 71 70 68 72 68 65 63 62 58
62 63 66 65 66 60 42 37 40 38 48 52 61 71 70 56 53 51 52 57 59 69 74 84 88 96 97 95 91 87 83 81 77 74 74 78 77 74 73 70 69 71 74 69 64 65 64
67 67 69 68 71 69 51 39 38 41 51 57 69 67 67 47 46 42 44 47 51 59 72 78 84 94 97 97 95 94 89 85 81 79 77 78 78 78 75 75 74 75 73 69 65 61 65
72 74 75 69 75 73 58 43 38 44 52 62 69 72 57 45 36 32 34 40 48 54 65 77 81 90 91 97 97 97 95 91 85 82 80 80 78 78 80 76 79 76 72 70 66 62 59
76 78 77 78 78 70 59 44 43 48 57 66 73 70 50 38 28 22 25 35 44 51 58 71 80 86 90 91 98 99 98 94 88 84 84 83 79 78 78 78 81 77 75 72 69 65 62
85 83 78 83 79 73 58 46 46 53 65 72 75 65 47 34 24 19 22 30 39 49 56 62 74 84 90 88 92 99 100 97 94 90 89 86 83 81 78 78 80 79 79 78 74 70 66
88 87 83 85 82 70 60 45 50 53 62 72 76 62 47 33 21 16 21 26 37 47 53 54 61 76 90 93 90 92 97 97 95 93 91 89 86 84 83 81 81 79 79 79 78 77 73
87 89 88 87 83 72 62 51 53 55 65 70 77 65 45 34 21 14 19 24 32 44 50 50 51 62 75 89 94 94 95 96 95 94 93 92 90 89 87 84 84 82 81 80 79 77 77
89 91 93 84 85 72 66 55 55 58 65 72 79 68 47 34 20 12 16 24 31 43 51 52 52 53 61 74 86 94 94 94 94 95 95 97 94 92 90 88 86 85 84 83 81 78 77
89 90 97 91 87 73 69 57 58 61 69 74 80 64 48 33 18 12 16 23 29 40 52 55 55 56 60 65 75 88 94 95 94 97 99 101 101 99 95 94 91 88 86 85 84 81 78
87 92 98 95 94 79 73 66 57 65 69 77 78 60 48 36 20 13 16 23 29 35 46 50 52 56 57 60 68 78 89 95 96 97 100 103 105 104 100 97 95 93 91 89 87 85 82
90 97 95 96 93 78 80 68 59 64 70 79 78 58 48 38 21 13 18 24 29 34 44 51 52 53 53 54 56 72 81 91 96 97 98 100 102 100 98 97 96 95 93 92 90 89 86
96 97 99 98 92 84 79 65 60 66 72 80 80 58 45 37 20 13 17 25 30 35 41 48 53 54 56 57 60 60 74 83 92 96 97 96 97 99 98 98 99 99 99 97 95 94 92
98 97 97 98 95 76 73 65 60 67 74 78 79 60 47 33 21 11 13 21 28 34 38 44 51 56 56 57 60 63 64 74 85 91 95 94 94 97 99 101 102 102 102 102 101 99 98
95 98 98 95 93 74 68 65 58 68 74 77 77 61 48 31 18 11 7 16 24 31 37 41 46 53 57 58 60 62 66 67 70 81 90 95 98 98 98 99 102 103 102 103 103 104 104
94 96 96 92 82 77 65 61 58 67 75 75 73 60 48 32 19 10 5 7 17 25 30 37 42 46 51 57 61 63 64 66 71 71 76 87 92 99 101 103 103 102 104 106 107 106 107
91 94 90 86 82 69 60 58 59 68 74 78 69 56 47 34 23 14 8 4 9 16 23 28 32 40 46 50 56 62 65 67 68 71 74 76 80 89 96 102 104 107 107 108 110 112 112
89 91 90 84 76 65 59 57 58 68 71 78 67 56 47 36 31 21 13 6 3 7 13 19 25 31 37 42 48 53 58 65 69 72 74 76 78 80 84 93 101 106 110 113 114 112 115
88 88 86 81 70 62 54 55 59 66 69 76 65 56 49 41 35 28 16 11 4 2 5 11 15 20 25 32 38 44 49 55 61 67 73 77 79 81 83 86 90 96 102 109 113 115 118
86 89 83 79 65 55 51 51 57 62 65 72 61 53 47 36 33 32 29 19 12 9 7 7 2 6 13 21 28 32 36 42 48 52 60 67 73 80 84 87 91 95 98 101 101 105 114
86 87 82 76 64 52 49 46 58 59 60 68 58 46 40 31 20 26 23 20 15 10 10 11 10 3 9 16 21 26 29 32 33 36 41 47 54 61 72 81 86 93 97 99 100 99 101

GFSGBSN_250_spd_075.txt.gz
Wind_Speed
28 32 31 33 34 31 32 36 41 42 44 44 44 47 52 54 55 56 57 59 60 58 56 54 53 50 49 47 46 46 47 52 58 57 58 55 53 53 47 45 41 44 40 37 33 31 24
30 33 37 39 42 40 41 35 39 43 43 44 46 47 48 52 57 59 60 62 62 63 63 62 60 58 54 52 52 51 52 52 56 61 60 60 56 53 49 47 41 50 45 41 37 32 29
35 38 41 43 42 41 38 39 38 45 46 45 45 47 51 53 55 56 58 64 65 65 67 68 67 64 62 59 57 56 55 56 56 61 64 62 61 58 53 50 44 52 47 43 41 38 34
43 48 50 49 49 43 38 36 42 44 49 50 50 50 53 56 58 60 61 61 65 70 71 72 73 72 69 66 63 62 59 59 57 60 64 66 65 63 60 57 52 50 46 41 39 39 37
49 51 50 51 55 47 44 43 43 39 49 52 48 53 53 59 60 62 64 66 67 68 75 76 77 78 76 73 68 66 64 62 63 60 62 67 68 65 65 62 58 54 51 44 39 38 35
52 52 51 54 57 49 52 48 45 33 34 43 52 52 56 60 64 66 68 70 69 74 74 80 82 82 82 80 74 71 69 67 65 65 63 64 69 69 68 66 64 59 54 49 45 40 37
58 62 60 56 58 58 59 55 43 34 32 36 43 51 56 58 58 56 68 70 70 80 81 82 84 87 88 85 81 78 75 73 69 68 68 67 68 71 73 71 65 63 58 54 51 45 41
63 65 62 58 58 59 61 51 43 33 33 34 37 37 42 53 54 60 67 75 82 88 90 85 85 86 90 89 87 83 79 77 73 72 72 71 70 72 71 72 70 67 63 58 56 52 47
61 60 61 63 66 63 61 49 40 32 30 33 34 45 49 51 58 68 74 80 83 83 87 87 85 84 90 92 92 89 85 81 80 76 75 77 77 71 71 72 74 72 68 62 59 58 55
62 61 63 66 67 74 67 55 41 32 32 32 40 41 51 56 64 70 68 66 65 62 64 70 75 80 89 95 95 93 89 85 81 79 78 78 77 73 71 71 73 75 74 67 63 60 59
64 67 65 72 72 76 76 62 48 40 33 35 40 47 53 61 62 56 51 50 49 51 53 59 66 76 86 93 98 96 94 90 85 83 81 79 78 78 75 74 73 76 76 71 66 64 64
68 69 67 71 74 79 81 75 58 45 35 44 45 51 62 65 55 46 41 38 40 41 46 52 60 71 81 86 95 99 98 95 90 87 86 84 81 80 82 78 77 73 72 69 65 67 67
69 70 70 74 79 84 88 73 64 47 45 47 49 61 70 58 48 41 33 30 33 36 42 49 57 69 78 87 93 100 101 98 94 89 88 86 82 80 81 81 79 75 71 69 67 64 64
74 72 73 79 78 86 88 78 68 54 50 51 59 68 68 53 45 34 26 23 26 33 41 49 59 67 77 81 88 95 101 101 98 94 92 89 86 84 81 80 81 80 76 72 69 63 63
73 75 75 81 89 87 87 82 73 60 53 56 67 73 66 52 41 29 19 17 23 30 39 49 57 62 71 80 87 92 98 101 100 98 95 92 88 86 83 82 81 80 79 76 73 71 69
76 77 82 83 87 87 88 86 72 60 55 61 70 75 63 52 39 27 15 15 21 29 36 46 54 58 64 73 83 88 93 98 100 101 99 95 92 90 86 85 83 81 82 80 77 76 73
78 82 83 85 88 90 90 82 74 61 59 65 75 77 62 52 36 26 13 15 22 28 36 46 54 58 62 68 77 86 89 95 99 100 101 99 96 93 91 88 86 83 80 79 79 78 76
84 82 89 86 88 91 88 81 74 63 61 66 77 80 60 48 37 22 12 14 22 30 37 46 54 57 58 66 73 82 88 93 97 100 103 103 101 98 95 90 89 86 84 81 79 78 78
85 83 86 85 88 89 85 80 75 65 62 68 77 80 60 46 34 20 10 15 23 30 36 47 57 59 60 61 69 78 87 92 96 98 102 104 104 101 99 96 93 90 88 84 82 79 78
84 80 84 86 87 91 86 79 74 68 63 69 76 80 62 47 31 18 8 14 23 30 36 43 52 55 58 61 65 75 82 89 95 96 97 101 102 101 100 99 97 95 92 90 87 84 82
84 85 84 86 91 90 91 79 72 65 63 70 73 80 61 48 28 18 10 13 24 30 34 43 51 53 53 53 57 63 75 88 93 96 97 98 100 99 99 98 96 95 94 93 91 89 86
85 83 85 86 90 93 88 81 68 62 61 69 73 79 63 46 29 17 10 12 22 29 34 40 49 54 54 55 56 56 61 71 83 94 98 99 100 101 101 101 100 99 99 98 96 94 93
87 86 88 87 86 89 86 81 66 59 61 66 72 79 61 45 30 18 10 9 18 27 32 36 44 52 56 56 56 58 60 63 69 80 89 96 100 101 101 103 103 104 103 102 101 100 99
86 88 88 87 85 87 83 74 59 55 60 66 70 76 59 42 28 19 12 6 11 23 30 35 39 46 53 56 57 59 59 61 64 70 78 87 94 101 102 103 102 102 104 105 105 105 103
85 85 79 86 85 86 77 64 51 51 58 65 70 75 59 42 28 22 15 9 5 12 23 30 35 39 45 53 57 59 60 62 64 65 67 78 86 92 97 102 103 103 104 105 107 108 107
83 85 87 86 84 73 72 56 48 51 55 63 68 73 59 44 28 26 21 15 6 5 12 20 29 35 40 44 51 57 60 62 64 66 68 70 75 83 90 96 101 104 105 105 106 108 109
79 81 85 82 79 75 64 50 44 47 54 57 64 66 53 39 32 31 29 24 12 3 5 11 18 25 32 39 46 50 56 63 65 67 69 71 73 76 80 88 95 100 104 107 107 108 110
79 90 89 83 77 60 43 43 39 44 48 56 60 62 46 35 25 20 24 26 19 11 3 4 12 19 24 29 36 43 50 56 60 66 71 73 74 77 78 81 84 88 94 101 107 110 112
87 91 83 75 68 43 35 37 36 43 45 55 58 59 44 33 25 17 17 11 11 4 3 5 5 11 17 22 27 33 40 46 52 59 65 69 73 77 79 80 81 84 87 90 94 101 108

GFSGBSN_250_spd_078.txt.gz
Wind_Speed
25 28 31 33 32 29 31 35 36 34 35 35 38 46 51 52 52 54 55 55 57 58 58 56 53 51 49 47 46 44 43 47 58 59 56 55 56 50 49 46 45 45 38 35 32 29 25
32 38 41 39 37 36 36 34 29 32 32 35 39 47 52 55 54 56 58 59 59 60 62 62 60 57 55 53 51 49 48 47 52 60 59 56 57 53 49 48 49 49 44 39 34 30 27
44 47 47 43 40 42 40 37 32 38 38 37 40 46 54 56 55 57 56 60 62 62 63 65 66 64 61 61 57 55 52 51 50 58 62 61 58 57 52 49 53 52 47 42 38 33 30
48 46 48 45 44 46 46 45 47 44 43 40 39 45 53 59 59 59 59 60 63 65 66 67 68 70 68 66 64 61 57 56 53 54 61 64 62 60 56 54 56 55 51 46 42 35 33
50 51 49 46 47 52 51 53 50 44 41 38 40 45 49 56 60 62 61 62 65 66 67 69 71 71 74 73 71 68 63 61 58 56 58 64 66 64 62 59 57 57 53 46 45 38 37
49 51 53 48 49 51 48 52 56 42 40 42 42 45 45 48 58 59 62 64 68 69 69 69 71 74 74 78 77 75 71 66 64 62 60 62 67 69 67 64 60 57 55 51 49 40 39
53 51 54 55 52 55 56 57 58 51 40 40 40 42 48 47 47 57 60 62 67 72 75 73 72 74 78 80 83 82 79 75 70 67 65 66 67 71 72 70 64 61 56 51 48 42 39
56 56 61 58 57 56 58 63 64 54 46 33 34 38 40 49 48 52 56 65 69 72 75 77 80 78 80 83 85 86 85 81 76 74 71 69 70 70 70 71 70 65 62 57 53 48 43
61 62 60 61 60 59 68 69 68 62 51 31 26 33 38 42 48 52 60 65 72 72 80 79 85 85 85 85 89 90 91 88 85 78 77 74 75 71 70 72 73 70 67 63 57 55 50
61 64 61 60 59 62 64 69 71 65 55 32 22 21 26 32 40 47 55 62 70 77 85 91 94 90 88 87 89 94 95 94 90 85 81 79 76 74 72 71 76 75 70 66 62 61 57
62 64 67 63 66 68 64 70 70 70 61 45 28 25 33 38 45 53 62 71 77 78 83 75 84 85 89 89 91 92 98 97 95 91 85 83 79 75 75 74 73 77 73 70 67 63 63
66 66 72 67 68 68 69 71 73 70 61 50 33 32 38 48 56 58 53 52 55 55 57 60 61 73 81 89 92 93 97 101 98 96 93 86 84 81 81 79 76 71 74 69 68 69 67
66 68 72 67 68 73 74 74 79 76 70 54 42 42 49 55 60 43 42 41 41 42 46 51 55 62 72 80 87 93 97 99 101 100 95 90 87 84 81 80 77 73 72 70 66 69 69
67 72 70 69 72 76 81 81 81 76 75 66 51 52 59 68 50 42 35 30 28 31 36 40 48 57 61 70 79 89 95 95 100 101 100 96 89 89 84 81 79 77 74 70 66 65 68
69 73 70 71 75 78 85 82 83 81 77 70 59 60 64 70 50 38 29 24 20 23 26 33 42 52 60 66 75 84 93 96 97 103 104 99 94 90 89 83 81 82 77 76 70 70 71
73 73 74 77 77 82 82 84 82 85 78 70 63 64 67 66 49 37 27 18 16 17 22 30 39 47 55 65 72 80 87 92 96 101 104 101 93 92 90 88 85 81 84 79 76 74 72
74 76 77 83 81 80 81 84 86 86 78 70 64 66 69 62 50 36 23 14 12 16 21 28 37 46 54 62 68 76 83 89 94 98 104 103 99 97 94 92 87 83 82 83 83 78 77
76 74 80 80 81 80 84 87 85 82 74 70 64 67 72 61 49 33 19 11 11 16 21 30 37 45 53 60 66 72 82 88 92 96 100 104 102 101 95 92 91 88 83 82 83 83 83
73 75 78 81 80 82 86 86 86 81 74 66 64 67 72 58 45 31 17 9 11 17 22 30 38 45 52 58 62 67 75 85 92 94 96 101 103 103 101 97 94 92 88 84 84 85 86
76 76 80 85 82 83 87 86 85 79 75 63 61 67 71 58 42 29 17 9 12 17 23 28 37 46 53 57 61 66 72 77 86 91 93 97 102 103 104 103 96 94 91 89 86 85 86
81 79 81 79 80 80 86 86 78 71 64 60 58 67 69 56 42 28 16 9 12 18 23 28 33 42 52 57 61 65 69 73 78 86 90 92 96 101 103 102 100 96 94 93 90 86 86
77 85 83 86 82 82 85 88 73 67 57 54 58 66 69 56 44 28 16 8 10 17 23 28 34 39 47 52 55 59 65 70 78 83 88 91 93 97 100 101 101 99 96 95 94 91 89
82 82 87 90 87 85 84 83 66 55 50 50 55 61 67 54 40 29 17 10 6 15 21 27 32 39 48 53 55 56 58 62 67 75 84 89 93 96 99 100 103 103 102 101 98 97 95
82 84 86 93 89 90 83 77 52 46 46 48 54 60 66 51 41 31 16 12 6 10 20 25 31 38 46 52 56 57 58 59 62 66 71 81 90 95 98 102 104 105 105 106 106 104 102
83 86 92 89 88 88 85 75 42 40 40 45 52 59 64 52 46 33 24 16 9 4 13 23 29 34 43 51 55 56 56 57 60 63 67 73 79 86 94 101 101 103 105 107 108 106 105
88 94 97 88 87 83 81 42 33 35 36 41 51 55 59 48 45 38 30 25 17 7 5 14 24 32 37 46 53 57 57 58 59 60 64 67 73 83 89 95 99 99 104 105 106 107 108
93 96 98 88 84 82 54 32 28 33 36 41 47 51 55 47 42 34 33 29 23 13 5 9 17 26 33 38 45 53 58 60 61 63 64 65 68 73 81 90 96 98 103 105 108 107 108
108 102 92 79 79 60 33 25 26 31 34 39 44 46 50 45 38 35 34 27 23 21 14 5 10 18 26 34 41 46 51 58 63 64 65 67 68 70 74 78 87 95 101 105 105 109 112
106 95 82 74 65 38 24 21 25 30 34 39 43 47 48 38 36 34 28 24 21 17 17 18 12 8 15 24 31 39 46 52 57 62 67 69 70 71 72 75 78 83 91 100 104 108 110

GFSGBSN_250_spd_081.txt.gz
Wind_Speed
32 36 35 30 22 25 31 33 31 29 32 33 37 39 43 41 44 47 51 53 55 56 57 56 55 52 48 45 45 45 44 42 47 64 61 59 54 52 49 49 47 47 40 34 32 29 27
37 38 40 40 36 30 34 38 35 37 36 37 41 43 44 45 46 49 52 55 57 58 60 60 60 58 55 52 51 49 47 47 46 57 64 60 56 55 53 52 51 50 45 40 36 32 28
40 43 40 44 40 43 40 43 43 41 49 42 39 42 46 48 47 50 54 56 59 61 61 63 64 63 61 59 57 55 52 51 49 52 62 63 59 56 55 54 55 53 50 44 40 36 32
42 47 48 46 45 42 41 39 40 48 46 40 38 41 44 49 51 49 52 57 58 62 63 65 64 67 65 66 62 61 59 56 54 52 58 65 63 59 56 57 58 56 52 50 42 39 35
44 48 52 52 50 46 43 43 47 47 54 46 39 37 42 45 49 51 49 53 60 61 64 64 67 67 68 70 69 66 65 62 59 56 55 63 64 64 60 59 59 57 53 49 46 42 39
48 48 52 53 52 47 46 43 53 55 56 50 40 38 40 44 49 51 49 49 55 62 63 67 67 69 70 71 73 72 70 67 65 62 59 59 64 65 64 58 60 60 55 49 47 44 44
51 50 52 52 52 46 44 45 50 52 53 52 43 39 39 40 39 45 46 49 51 57 64 66 68 71 70 74 75 78 76 74 70 67 65 62 63 60 68 67 62 60 56 55 46 44 45
53 53 52 56 55 46 46 53 61 60 57 55 48 42 36 36 34 40 42 47 52 57 66 69 71 72 72 74 77 78 80 78 76 75 71 67 62 64 64 68 63 63 61 56 48 48 43
52 52 55 56 55 52 52 53 61 61 59 57 58 41 33 35 38 39 42 47 54 58 61 70 72 74 77 75 77 80 82 85 83 81 77 74 73 68 65 67 70 66 64 59 57 52 48
53 56 57 55 55 56 56 59 56 62 62 65 61 47 33 31 32 35 40 45 54 63 69 72 76 78 76 81 79 80 84 87 88 86 84 81 78 70 66 68 70 69 69 65 60 59 54
58 60 61 59 56 63 58 54 63 64 68 65 61 55 39 28 28 31 39 48 54 61 73 70 81 82 85 84 85 81 86 88 90 90 88 85 80 75 70 69 71 72 71 67 68 65 60
60 59 62 56 58 61 58 64 68 67 70 69 64 58 43 34 36 41 46 57 64 69 79 80 81 87 90 91 86 84 86 90 92 94 93 92 87 82 78 75 73 76 69 67 70 69 66
57 58 60 62 64 62 62 65 71 72 73 74 68 58 45 43 44 51 51 48 52 56 64 65 78 86 91 94 90 88 88 90 91 93 95 94 90 88 84 80 77 74 66 67 67 70 69
58 59 63 68 67 70 67 69 76 76 76 82 64 58 49 50 52 52 43 37 40 42 48 55 59 68 80 91 92 89 91 90 95 95 98 99 96 93 86 83 78 73 73 69 64 64 69
63 64 65 69 70 70 75 82 78 78 83 86 69 58 54 56 59 49 39 30 27 30 37 43 50 58 68 73 81 90 92 91 96 92 99 102 101 100 92 89 83 77 75 74 73 71 72
68 60 65 75 77 76 81 81 86 86 84 85 70 57 55 58 61 48 35 23 19 21 26 32 41 49 57 64 68 81 94 96 98 94 96 98 106 95 96 91 87 82 81 82 76 75 72
65 68 78 77 76 81 84 86 87 85 84 83 66 56 57 60 55 44 26 20 14 15 20 27 35 44 50 57 65 71 83 93 89 94 101 101 102 101 98 94 90 90 87 84 82 82 78
71 72 71 74 81 86 88 89 87 83 85 78 62 54 57 64 53 37 23 15 11 13 19 26 31 38 43 50 58 69 76 79 88 96 98 101 98 98 101 100 95 91 91 87 85 86 83
74 69 75 78 83 91 92 91 88 84 78 74 56 53 57 65 51 34 21 12 9 13 18 24 30 36 42 50 55 60 66 74 85 93 99 99 96 101 102 101 99 95 94 90 87 91 88
78 76 79 81 87 89 93 95 85 77 72 58 49 51 58 65 47 31 21 11 6 11 19 23 28 35 40 44 51 57 62 68 76 83 90 95 98 96 105 104 103 100 93 92 90 89 88
79 76 80 84 87 91 94 91 80 72 56 47 44 49 57 64 48 33 23 12 5 11 18 22 26 33 40 42 49 54 59 64 70 76 84 90 97 99 97 99 102 101 100 94 94 95 95
74 77 81 92 91 95 93 82 72 59 38 43 40 48 56 63 47 34 25 14 5 10 17 23 25 29 34 44 48 54 59 62 66 71 78 84 91 94 96 97 102 100 98 95 95 93 97
82 87 96 95 96 90 83 76 60 46 32 39 40 46 52 59 44 31 26 14 6 8 15 21 25 29 33 39 45 53 58 62 66 70 75 79 84 91 97 98 99 101 101 99 98 95 99
86 91 99 100 100 90 84 64 49 33 31 38 38 47 49 56 47 37 28 20 9 2 13 19 24 27 33 36 41 48 54 58 61 64 70 77 84 90 96 94 98 106 102 101 100 99 101
93 93 100 94 99 85 72 49 36 28 30 35 36 42 46 53 51 42 32 25 16 5 6 16 20 25 30 35 42 47 51 55 58 60 65 69 78 86 90 93 98 98 104 105 106 104 104
91 86 96 95 83 78 57 37 28 22 29 33 34 43 47 52 52 41 36 31 22 17 5 8 18 23 27 34 39 45 50 53 56 59 62 65 70 76 86 92 96 102 99 105 109 109 107
90 90 95 88 75 70 42 32 23 20 27 31 34 41 46 51 49 38 35 30 26 21 16 8 7 20 27 30 37 43 49 54 56 57 60 64 67 70 74 80 90 89 96 104 110 114 106
92 102 88 86 73 49 34 26 17 20 26 31 37 41 45 49 47 36 32 26 20 21 20 15 9 8 17 28 35 39 46 53 58 60 61 62 63 69 73 77 83 82 96 101 102 106 109
105 95 81 75 65 34 29 22 19 19 25 31 38 41 45 47 45 36 34 29 22 20 20 18 17 14 11 18 26 34 42 48 56 60 63 65 67 68 71 74 74 80 90 94 100 102 106

GFSGBSN_250_spd_084.txt.gz
Wind_Speed
32 37 38 36 39 35 33 29 30 30 28 30 36 37 34 39 47 48 46 47 52 53 53 54 55 53 50 48 48 44 43 43 41 44 62 65 61 57 52 51 50 48 42 38 33 33 28
37 39 38 41 39 43 36 33 31 31 36 32 43 41 38 37 48 51 53 51 51 56 57 57 58 59 56 52 54 48 47 47 45 43 54 66 63 61 55 54 54 50 45 42 37 31 32
37 42 40 40 42 43 38 38 33 33 34 38 40 37 42 39 40 54 55 54 55 54 60 60 60 62 62 57 57 53 52 51 49 45 49 63 65 63 61 57 58 55 48 47 40 32 31
39 41 40 39 42 44 38 31 30 30 32 38 38 43 41 38 41 43 55 56 58 58 58 63 63 63 66 65 63 60 56 54 54 52 49 58 65 65 62 60 59 58 54 46 44 36 32
41 42 43 44 45 44 37 37 38 38 44 40 42 46 43 39 37 43 46 53 59 59 57 63 65 66 67 71 68 66 62 59 57 57 55 53 64 67 65 63 60 59 55 50 45 40 35
41 44 45 47 47 43 36 39 41 41 39 45 49 47 44 40 37 36 44 50 53 59 60 58 66 69 69 72 72 72 69 66 62 60 59 57 59 66 67 62 59 59 56 50 47 43 39
43 46 50 49 43 41 38 36 31 37 43 48 49 50 50 42 37 33 34 44 50 56 59 58 62 70 69 74 74 77 75 73 69 65 62 63 58 58 67 69 65 62 59 52 49 45 44
47 53 46 40 45 42 39 35 40 48 52 50 53 55 56 44 32 33 32 33 42 47 56 58 58 67 69 73 76 78 80 78 74 71 69 65 60 61 65 71 67 61 59 53 51 49 39
49 53 49 47 48 47 48 42 45 54 59 55 53 56 58 45 33 27 32 34 37 42 48 55 60 64 71 72 75 78 79 83 80 78 74 70 69 67 65 70 67 65 61 58 56 48 49
50 53 57 52 51 50 47 48 54 57 59 63 59 57 54 46 34 27 30 36 39 45 50 54 58 62 67 72 75 77 79 82 85 83 80 76 75 70 67 67 72 70 68 63 57 57 50
52 57 60 57 61 56 52 56 64 67 68 64 65 60 53 51 34 27 28 36 40 43 55 55 59 60 64 69 77 78 82 83 84 87 85 82 79 74 68 66 72 72 74 69 63 62 61
59 59 64 65 63 65 62 67 67 74 75 77 71 63 59 54 39 31 30 34 43 50 55 63 67 71 69 70 78 82 81 84 84 87 88 87 84 79 74 71 72 73 77 72 68 67 65
61 64 67 69 70 65 65 69 72 74 75 76 74 61 58 47 38 35 40 44 48 56 63 70 73 76 79 77 77 79 84 84 83 85 87 90 88 85 81 76 74 78 75 75 73 69 65
64 66 71 71 70 67 68 70 74 77 81 81 70 57 49 42 39 42 47 49 45 47 56 61 73 80 82 82 84 81 82 85 87 85 87 91 95 90 84 81 79 76 76 73 69 73 72
67 71 71 72 68 68 70 85 85 86 84 76 66 54 43 38 43 48 54 42 34 36 42 48 57 63 82 89 87 87 83 84 87 88 90 89 93 96 93 90 87 81 77 73 71 73 79
70 73 74 71 68 73 81 88 94 97 82 72 54 44 38 43 47 52 48 40 22 27 31 38 43 50 67 83 92 87 87 94 90 93 98 94 97 101 101 98 90 83 81 78 75 75 81
73 74 77 75 81 85 88 93 98 98 80 64 46 40 39 46 51 47 39 36 24 21 22 29 37 44 57 69 78 89 87 94 96 91 89 97 97 97 99 97 90 87 82 79 80 80 78
76 78 82 86 87 90 94 88 90 86 74 54 39 40 41 50 57 48 32 23 21 18 17 22 30 39 50 59 68 83 96 85 98 96 94 94 93 92 90 94 96 93 91 90 89 78 80
81 86 91 91 90 86 90 91 86 80 63 45 33 41 41 49 59 52 43 24 18 13 15 19 24 31 39 50 59 73 83 97 99 101 97 94 92 92 99 94 102 98 92 92 91 89 88
83 89 89 89 89 83 86 85 87 72 51 37 31 43 40 47 54 44 31 20 13 11 14 17 21 27 35 43 53 63 74 86 91 101 105 102 91 94 96 95 98 97 98 94 92 90 89
88 91 92 87 82 82 89 86 78 68 40 33 34 44 41 45 54 44 33 19 11 10 16 19 21 25 33 41 47 56 64 74 75 86 94 99 103 97 96 101 100 95 99 100 96 92 102
92 88 93 86 87 89 87 79 70 56 35 26 35 43 36 45 51 43 30 20 9 9 15 19 20 24 29 36 40 49 54 60 66 75 81 91 103 105 105 99 86 90 99 105 102 101 107
87 85 90 84 92 89 79 73 56 41 26 23 35 40 38 45 52 42 27 19 9 5 13 16 20 24 27 32 38 43 47 52 58 62 70 83 91 95 101 91 93 96 95 93 101 109 107
88 88 93 91 96 88 71 66 43 33 22 22 37 33 43 45 51 46 30 20 11 2 10 15 18 21 24 27 35 38 42 46 50 56 62 70 75 82 92 97 97 102 100 98 101 108 117
80 89 90 97 91 74 68 56 31 24 20 22 31 31 44 45 50 49 35 23 15 8 2 13 17 21 24 27 30 35 42 47 48 53 56 62 68 74 80 86 95 96 97 98 101 109 111
97 96 102 102 95 64 66 40 30 23 23 21 25 32 40 43 46 47 36 27 19 14 8 3 16 21 24 26 30 32 36 43 49 52 56 57 61 70 75 81 86 96 99 97 100 106 104
102 102 100 95 84 65 54 34 23 21 22 20 25 31 38 41 44 43 32 27 22 18 15 8 2 16 23 27 30 33 36 41 45 53 57 61 65 67 72 78 89 92 90 99 104 110 104
96 95 101 85 76 52 38 29 22 23 22 21 24 31 39 43 45 39 30 26 20 18 20 17 5 4 13 25 29 34 38 43 48 51 55 61 64 66 70 74 82 82 92 97 101 102 103
92 105 105 75 56 40 29 25 22 20 23 25 27 30 38 46 47 33 29 27 25 22 18 16 15 9 9 15 26 34 38 43 47 52 57 60 61 64 69 68 69 75 82 92 100 104 105

GFSGBSN_250_spd_087.txt.gz
Wind_Speed
29 30 33 33 34 32 32 32 27 23 22 26 28 27 30 31 29 32 33 41 45 45 51 54 53 53 53 50 49 48 50 49 49 49 50 61 58 54 51 47 50 40 39 33 27 28 27
31 34 34 35 38 37 36 34 25 23 20 24 25 30 32 33 34 34 36 39 48 50 47 53 57 56 56 55 56 50 52 53 52 50 49 56 63 57 55 54 52 51 43 32 31 30 33
31 34 38 39 39 39 35 30 28 29 30 30 31 28 30 34 33 37 39 42 45 53 55 52 57 61 60 59 60 55 54 54 53 52 50 49 64 63 60 58 53 57 48 38 35 29 31
34 36 42 39 36 38 35 32 31 30 26 28 31 36 34 36 35 34 40 43 47 53 58 60 57 63 65 64 65 60 58 56 55 55 54 53 54 68 67 61 57 57 49 38 42 36 31
39 40 45 44 43 39 38 34 31 21 27 35 39 41 43 41 40 36 36 42 47 51 59 60 63 63 66 69 70 65 63 60 58 57 56 53 53 67 70 67 62 58 59 46 47 43 34
41 42 46 47 46 40 45 44 39 33 37 42 43 46 45 49 46 39 35 39 43 47 54 63 62 66 66 71 71 71 69 65 62 59 59 56 55 57 71 70 65 61 63 55 51 46 38
42 43 50 48 51 52 50 52 40 38 43 51 55 50 51 56 48 46 37 34 36 44 52 59 66 66 66 70 73 75 74 70 67 62 60 60 57 54 63 73 72 69 63 60 57 47 46
43 47 50 47 50 54 52 50 45 47 49 53 52 57 58 55 51 43 38 35 33 38 51 60 62 66 67 69 75 76 78 75 71 67 64 62 59 60 62 71 72 70 66 59 55 54 47
46 50 50 51 56 59 57 55 47 48 52 56 55 59 65 66 51 44 40 32 34 34 46 56 63 63 69 69 74 78 79 81 78 75 70 66 68 65 63 67 71 71 65 62 57 61 54
49 53 54 57 65 62 61 60 54 57 64 70 71 72 76 59 46 37 33 29 34 32 41 49 59 65 66 71 71 80 82 83 84 80 77 72 72 68 66 63 71 70 70 67 64 63 59
55 60 60 62 65 64 67 69 67 71 71 67 71 69 68 54 43 33 32 27 33 34 40 44 50 60 65 70 75 78 85 85 86 86 82 78 76 71 68 65 64 72 75 71 69 68 70
57 63 64 66 70 74 74 77 75 70 69 70 77 73 56 46 34 31 29 29 31 36 39 44 51 57 67 70 75 78 83 87 89 89 87 85 82 76 72 71 66 72 76 77 70 74 77
60 64 67 71 74 78 80 84 73 68 70 74 74 70 49 36 32 29 26 26 30 34 41 45 49 60 64 69 73 77 80 85 86 87 88 91 87 82 79 74 71 72 72 77 75 69 69
62 65 70 75 80 85 88 80 73 77 72 74 74 65 40 32 30 26 27 32 37 42 48 51 56 61 67 71 73 77 80 85 86 86 90 91 93 89 84 79 76 75 72 73 76 72 69
66 67 77 80 86 85 85 89 80 81 80 82 74 48 30 26 29 32 37 40 42 38 43 53 58 65 71 75 82 82 80 82 87 86 89 91 93 94 91 87 83 79 76 70 76 81 80
67 76 78 83 84 83 84 89 88 84 80 75 62 37 24 27 39 38 43 43 36 25 30 40 56 66 78 81 83 83 80 85 88 93 91 93 93 93 94 93 89 89 81 82 75 76 82
76 76 81 85 90 87 86 87 95 84 78 70 46 26 26 34 37 39 47 37 32 20 22 32 39 55 69 79 84 83 84 85 89 90 93 95 89 92 99 96 94 91 85 81 76 77 78
73 79 85 88 89 86 91 93 99 91 65 52 33 20 26 39 37 43 52 36 28 21 17 22 28 36 52 68 82 87 87 93 86 86 91 93 88 92 92 91 96 94 89 85 82 77 79
77 81 87 90 97 103 104 96 95 71 60 42 24 20 33 40 38 49 52 39 27 19 14 18 22 31 40 51 68 82 92 90 89 91 85 83 90 89 91 93 96 95 92 91 87 88 87
81 87 87 89 97 105 104 97 85 61 47 30 19 25 34 34 41 50 50 33 22 15 12 15 19 23 32 46 56 71 83 95 93 88 88 92 91 91 92 91 90 94 99 90 91 95 97
84 88 87 91 103 105 105 106 74 55 35 23 19 27 39 38 43 50 48 31 20 13 10 14 16 18 21 37 46 58 72 85 98 96 96 93 90 89 89 91 94 91 96 97 98 101 101
84 88 92 98 100 103 106 99 73 44 29 19 19 28 34 39 46 51 49 33 20 11 9 13 12 13 16 24 38 45 56 73 86 100 91 88 90 95 90 91 91 91 89 93 101 105 105
88 93 97 101 106 107 104 96 63 35 24 18 21 27 28 35 44 51 47 32 20 11 7 10 12 13 18 22 31 44 49 61 76 84 96 95 96 98 90 90 90 90 93 98 103 112 110
91 97 103 109 107 98 95 73 49 28 23 23 25 27 30 33 44 49 41 30 21 11 7 9 13 13 18 20 29 39 48 54 61 74 82 91 99 103 98 98 96 93 91 93 101 105 104
94 99 106 99 96 94 86 64 39 25 21 23 23 25 29 34 42 49 40 26 20 14 5 8 13 14 17 20 23 32 41 49 52 55 63 77 96 101 97 95 98 98 95 93 103 108 99
96 99 103 91 91 92 82 49 31 21 19 22 24 28 29 35 41 47 40 26 16 16 11 5 9 14 18 19 23 27 32 37 44 51 59 67 76 91 101 102 97 93 94 95 99 97 99
98 103 107 96 96 92 67 40 28 20 19 20 24 29 29 34 42 46 38 27 22 16 10 8 6 13 18 23 23 25 29 35 41 45 52 59 63 71 84 94 101 99 99 103 107 103 98
100 103 108 94 93 80 53 34 25 21 20 21 24 25 31 39 43 45 32 28 23 19 15 9 4 8 16 23 27 31 32 36 38 48 49 52 60 69 77 83 85 85 91 93 100 102 101
102 105 97 93 94 70 42 30 22 20 20 21 24 27 36 37 45 42 31 28 22 16 13 12 11 8 14 20 26 32 38 39 41 47 51 51 55 62 66 71 73 74 80 90 95 100 105

GFSGBSN_250_spd_090.txt.gz
Wind_Speed
22 28 31 34 36 34 35 33 27 27 23 22 20 24 24 27 31 33 35 33 36 38 44 48 52 54 55 55 53 52 53 55 54 54 51 50 51 50 48 44 42 45 32 20 29 23 20
27 30 34 33 36 33 35 38 33 30 29 27 24 26 25 25 28 32 36 36 38 39 42 48 50 56 58 58 58 56 53 56 56 56 55 53 54 52 53 49 46 43 41 28 28 28 25
30 32 36 35 34 35 38 38 35 37 32 24 22 23 29 29 31 33 36 35 41 40 43 47 51 55 60 61 62 59 56 56 59 60 60 54 56 58 55 54 51 49 36 36 33 30 27
31 34 37 38 35 39 44 45 43 36 29 27 30 34 35 32 35 29 33 35 38 44 45 49 55 57 61 65 66 63 62 59 59 62 63 57 56 60 60 59 56 54 48 28 35 33 29
31 35 40 39 38 42 44 46 44 42 35 35 36 39 39 39 35 37 36 33 38 41 47 51 57 64 58 65 72 67 67 64 60 63 63 60 59 59 66 64 62 58 55 52 32 35 33
34 36 36 38 41 45 49 52 51 52 50 46 44 39 50 43 39 35 35 37 33 39 47 52 55 65 67 64 69 69 70 69 66 64 63 63 61 61 62 70 69 66 61 59 51 34 35
33 35 39 42 45 50 54 56 57 57 59 61 50 53 55 44 44 47 44 38 38 37 41 52 53 61 69 70 70 74 74 73 69 65 63 63 65 63 61 73 75 70 64 59 54 38 38
37 40 44 47 53 56 60 62 67 65 70 58 56 55 44 42 40 44 43 36 34 37 41 46 50 58 70 74 73 76 76 76 72 70 68 63 63 68 67 65 77 72 66 60 58 48 40
42 46 49 55 55 60 66 69 73 75 71 65 61 57 50 45 48 48 47 36 36 37 42 46 49 56 68 76 76 76 77 79 78 76 71 67 72 72 69 66 72 75 70 68 66 61 47
46 51 55 58 58 68 71 73 75 75 75 75 69 64 59 54 57 59 44 37 35 38 40 44 45 56 67 75 78 78 78 81 82 80 77 74 75 70 69 68 65 75 73 73 68 68 59
49 54 60 61 67 69 72 77 80 82 87 87 73 67 67 57 57 46 38 35 38 42 43 42 46 53 68 74 82 81 83 82 83 85 81 78 75 72 69 70 67 68 77 78 74 69 68
51 57 61 67 69 72 77 82 85 90 93 83 73 77 58 53 50 37 31 32 38 41 45 44 44 53 67 75 80 84 83 83 87 88 86 85 81 76 73 75 69 71 75 80 78 76 74
56 58 64 67 69 75 81 85 88 96 92 92 82 69 47 42 34 27 24 24 28 35 39 43 45 50 62 74 79 82 85 85 85 87 87 89 85 79 78 76 73 74 70 77 79 76 71
57 63 67 69 75 82 84 88 93 99 98 97 76 49 40 26 20 20 16 18 23 30 32 36 40 49 62 68 79 82 84 87 87 90 90 91 90 86 82 77 75 76 71 71 76 77 82
61 66 65 75 82 85 90 95 100 103 93 94 66 41 28 16 17 16 24 25 25 29 36 44 46 48 53 65 70 83 83 86 89 91 94 93 95 93 89 85 83 80 75 71 75 83 85
65 70 72 77 86 88 94 100 106 96 92 77 49 32 16 14 15 19 31 27 32 38 43 46 54 58 61 62 74 77 87 89 92 95 96 97 97 96 92 90 88 85 79 78 74 79 83
67 71 76 82 87 93 100 105 103 93 89 63 39 19 13 20 19 25 29 32 37 31 31 34 47 61 68 71 72 82 85 88 95 92 91 93 95 96 98 93 89 87 85 80 79 76 79
68 73 78 83 90 97 100 106 103 100 76 47 30 12 16 18 32 33 36 42 36 24 23 25 39 52 67 77 81 82 84 88 91 89 88 90 90 98 95 96 94 94 92 88 86 81 77
72 75 80 87 93 97 102 105 102 99 63 36 21 14 19 24 27 30 40 46 31 20 16 18 29 45 59 71 81 81 82 87 89 91 89 90 91 92 96 99 101 100 97 92 90 86 85
73 78 83 90 95 97 104 110 99 98 55 29 11 19 23 25 31 34 43 47 29 17 13 12 20 31 41 53 69 80 81 85 91 90 95 92 89 94 94 96 99 100 100 97 94 90 88
74 80 86 93 96 101 108 112 98 85 48 24 12 19 24 29 33 43 48 43 28 18 13 8 10 20 27 37 53 70 84 88 88 93 89 90 87 89 92 92 92 95 96 99 99 96 95
77 84 88 93 98 100 109 104 101 73 38 22 17 24 29 32 33 39 51 44 32 18 10 6 10 18 24 35 40 54 71 85 89 89 89 90 88 87 89 93 92 92 91 95 103 103 104
80 84 90 98 101 105 108 99 91 63 34 18 19 24 29 35 36 43 49 47 33 24 12 5 6 11 19 23 31 38 53 72 86 91 88 92 91 87 87 91 92 92 94 93 98 107 106
81 85 90 95 102 105 108 99 83 51 29 18 20 25 29 32 36 42 48 43 34 29 18 9 3 9 12 19 23 34 45 56 72 91 89 89 89 90 93 92 93 98 99 101 104 102 102
82 86 92 97 103 107 99 95 75 36 24 20 20 23 29 30 38 41 47 36 33 27 23 15 7 6 9 15 18 22 33 46 56 71 85 90 87 90 93 92 94 95 100 101 99 96 100
82 86 92 99 104 108 95 86 55 31 21 19 20 23 23 30 37 41 45 34 32 25 19 16 11 8 11 15 19 22 30 42 48 57 67 83 93 90 97 95 95 96 96 98 99 98 94
84 90 96 100 103 100 94 80 41 29 21 20 20 22 22 29 37 41 41 32 30 24 18 14 10 8 13 16 21 25 28 36 43 47 54 67 77 88 101 96 93 95 97 97 94 95 95
86 92 98 102 104 99 92 63 34 26 22 20 21 23 23 30 35 41 36 31 27 21 19 16 11 11 12 19 23 24 28 33 39 40 44 53 62 71 79 95 106 98 94 95 98 96 95
90 96 99 102 90 97 84 56 30 22 21 22 21 20 26 33 38 39 30 30 25 18 15 15 12 11 13 18 23 29 31 33 36 40 44 48 56 64 74 83 88 95 107 104 96 99 99

GFSGBSN_250_spd_093.txt.gz
Wind_Speed
18 21 24 25 24 27 31 32 34 33 30 29 28 27 28 29 26 27 27 30 34 35 32 36 46 54 56 55 55 60 60 57 55 53 54 49 48 47 42 40 41 33 21 23 16 15 17
19 21 23 24 24 25 29 32 34 34 34 32 32 32 29 27 27 27 30 32 33 35 38 37 40 49 58 58 58 60 62 62 59 57 56 53 49 49 48 45 46 43 28 21 23 24 23
21 23 23 25 25 28 32 35 39 39 42 42 38 34 33 34 35 38 32 31 35 38 40 42 42 44 55 60 60 60 64 64 64 61 60 55 51 52 51 52 49 46 37 25 28 34 29
22 24 26 29 31 35 39 42 45 46 48 51 45 43 33 35 37 43 42 41 38 38 42 45 46 46 46 58 66 65 65 66 66 67 62 56 54 55 56 57 55 53 47 41 32 33 33
25 28 34 36 39 40 44 47 46 51 54 51 49 44 39 34 42 42 45 45 44 46 41 44 47 50 46 61 69 66 66 68 68 68 63 60 61 58 59 61 62 58 50 49 42 33 33
31 35 38 41 42 46 50 50 53 59 60 60 56 60 52 43 38 39 43 46 46 47 48 46 49 51 53 58 61 65 67 69 70 68 65 64 63 62 62 67 68 65 57 50 47 39 34
34 40 42 45 47 51 54 57 59 61 68 69 66 65 61 47 43 36 38 40 44 48 50 48 50 52 54 61 63 69 71 71 70 68 66 68 67 66 68 71 71 71 67 61 42 38 33
39 42 45 48 51 54 57 59 65 70 72 75 76 73 62 49 46 38 39 40 42 41 47 50 55 54 57 61 65 71 70 73 73 72 71 69 68 72 72 71 74 72 70 66 63 52 38
42 45 48 52 54 58 56 64 71 77 78 80 75 68 55 54 51 45 35 40 43 45 47 50 55 56 57 61 65 69 74 74 77 77 74 71 74 76 75 74 72 75 72 71 67 57 54
42 47 51 53 57 63 63 70 75 80 85 84 87 69 63 56 50 41 42 40 44 45 45 53 56 57 60 61 67 73 80 76 78 79 79 76 78 76 77 75 72 73 79 76 73 67 59
45 49 53 57 61 64 67 71 79 85 89 94 87 88 62 51 38 34 35 38 43 45 49 52 56 57 60 61 63 74 80 82 79 82 81 81 80 77 76 78 75 73 80 81 76 70 64
47 52 55 59 64 68 70 76 83 89 95 95 79 88 54 39 26 24 29 32 34 38 41 47 53 55 58 59 64 73 80 84 84 85 84 87 85 80 77 82 78 80 78 81 79 75 71
49 52 58 63 66 71 74 81 88 92 98 93 86 72 45 31 23 22 19 20 25 27 32 38 45 50 54 58 64 74 80 84 86 83 86 89 86 82 80 79 77 80 75 75 81 79 78
52 55 60 64 69 73 80 86 92 97 102 94 80 55 37 20 16 11 11 12 11 18 25 33 39 47 49 54 62 72 81 86 89 89 89 91 89 87 84 79 78 81 76 72 73 79 81
55 58 60 65 70 76 84 91 94 100 104 97 76 45 29 12 8 10 11 12 15 19 21 27 36 41 45 49 59 70 81 88 91 91 89 90 91 91 88 85 82 82 78 76 71 78 85
56 58 63 70 75 81 87 94 98 104 102 93 65 36 23 7 8 10 12 19 16 18 24 30 35 41 48 52 57 64 80 87 91 89 91 93 94 94 93 90 86 84 82 80 72 74 81
56 61 67 70 80 86 91 97 100 103 96 88 50 30 15 10 13 16 19 18 22 27 33 41 47 55 55 57 62 66 73 89 91 92 92 92 94 94 95 94 92 89 86 82 76 74 81
58 64 70 75 82 88 92 97 101 103 93 73 39 17 20 16 13 17 21 21 30 37 40 41 45 56 64 68 67 70 72 82 91 93 93 93 93 96 93 94 95 93 90 85 81 77 79
61 67 71 77 85 90 95 99 103 101 89 64 32 13 22 20 24 28 29 34 42 26 27 31 40 50 61 69 75 75 74 78 87 94 98 97 94 96 97 97 98 99 95 90 85 83 84
63 67 73 80 86 91 95 100 100 98 86 51 28 18 23 23 24 26 26 37 32 21 14 23 32 43 52 61 71 79 82 83 87 90 92 95 96 97 97 100 97 99 97 95 89 86 85
64 68 75 81 87 92 97 101 98 94 74 40 27 19 19 22 27 26 31 40 28 21 9 15 22 31 40 48 61 74 82 81 85 84 92 96 98 98 101 101 100 99 100 98 94 90 87
66 72 77 83 87 91 98 103 95 92 61 36 26 20 23 25 28 33 37 43 29 25 16 7 8 18 27 37 47 63 74 84 83 87 87 94 98 99 104 101 102 102 100 102 101 97 92
69 74 79 82 87 95 100 98 93 90 63 34 27 23 23 26 24 31 38 42 33 28 22 11 5 12 18 26 37 49 64 76 85 86 92 90 96 102 103 102 101 102 102 102 104 102 98
70 73 77 84 90 95 100 101 92 84 56 35 27 25 24 24 27 33 40 43 31 28 21 16 7 9 13 20 28 38 48 62 79 85 85 92 93 95 99 101 103 101 102 102 103 103 102
67 72 79 85 91 97 103 100 90 82 47 32 27 24 24 25 29 35 40 43 31 30 24 16 10 6 13 15 22 31 41 52 64 79 89 92 93 92 93 97 98 100 99 99 102 99 104
67 74 79 84 93 99 103 97 86 75 44 29 26 24 25 23 29 35 39 37 32 29 26 21 13 7 10 14 17 24 31 40 51 67 83 88 88 90 92 92 92 98 97 98 97 99 101
68 73 79 85 92 98 99 98 87 68 35 26 25 24 22 25 30 36 41 35 32 32 28 24 19 12 8 13 18 19 24 32 40 49 64 81 92 89 90 92 91 94 96 94 92 93 97
69 73 80 87 92 96 97 90 83 59 33 26 25 22 20 27 33 37 35 34 35 32 26 23 22 17 11 12 16 21 23 27 34 41 47 62 80 94 89 92 94 94 94 91 91 93 93
68 73 80 88 93 97 93 87 80 55 31 28 26 24 24 30 36 35 32 35 35 33 26 25 23 21 18 15 17 20 25 28 31 37 42 49 60 76 96 92 94 94 96 93 97 94 94

GFSGBSN_250_spd_096.txt.gz
Wind_Speed
9 14 18 20 21 23 24 28 31 31 35 36 39 30 28 30 29 28 30 30 32 34 34 36 37 44 52 55 57 59 59 57 55 55 52 47 43 40 38 37 35 32 24 19 15 20 18
12 16 21 22 22 23 26 30 31 34 34 35 39 39 30 31 27 30 32 33 35 35 36 38 40 39 45 53 58 60 62 61 59 57 55 51 46 46 44 40 38 35 30 22 12 16 16
17 19 22 26 28 31 32 35 33 35 37 39 42 47 45 41 32 30 35 38 40 39 38 40 42 45 43 45 56 62 63 64 62 60 57 54 50 49 47 46 43 41 35 32 18 16 16
22 23 25 30 32 33 37 40 43 40 42 45 47 53 49 49 44 36 36 43 43 46 46 44 42 45 43 48 55 61 65 65 65 63 60 56 54 51 52 51 48 48 44 32 31 22 30
24 28 30 33 35 37 40 43 44 45 48 51 55 57 53 55 49 42 35 37 50 50 50 50 50 45 47 52 52 57 63 66 66 66 63 60 59 56 56 56 56 54 54 40 36 29 31
28 30 33 37 39 40 44 47 50 52 52 57 63 61 61 61 53 40 40 39 40 52 56 58 57 53 49 52 50 53 60 66 68 68 67 66 63 60 59 63 64 61 57 52 44 43 39
30 34 36 40 43 44 48 52 54 58 59 62 66 67 67 67 54 41 44 47 43 48 55 58 60 59 57 52 55 55 60 65 70 70 69 68 68 68 68 65 67 67 64 59 54 42 40
32 35 40 42 44 47 52 56 61 61 63 70 74 78 74 67 56 49 49 49 50 49 56 55 57 60 61 60 55 55 58 63 70 73 72 71 71 73 70 69 69 70 70 65 61 58 44
35 39 41 45 48 52 57 58 64 66 72 76 80 79 72 63 62 52 55 53 55 58 56 51 57 60 65 64 61 56 61 62 70 74 75 75 76 76 74 72 71 72 73 71 65 59 57
39 44 46 49 52 54 57 63 68 72 77 80 86 81 78 66 58 44 41 46 56 59 56 59 59 60 63 65 63 62 62 67 69 74 77 79 81 77 77 75 73 72 76 74 69 61 56
44 45 49 50 52 56 60 67 73 78 84 90 89 79 76 60 42 28 28 37 48 55 57 58 61 64 61 62 64 64 65 67 69 75 77 80 82 79 78 78 76 77 76 75 72 62 54
47 48 51 52 53 60 66 71 77 83 89 93 88 82 74 46 30 22 18 20 29 43 54 54 58 62 62 64 65 67 69 70 71 75 79 82 84 83 81 81 80 80 75 77 76 74 65
50 51 53 54 57 63 69 75 81 88 92 93 83 86 59 34 22 17 14 15 18 24 39 47 55 59 62 64 66 71 72 71 73 73 79 82 84 84 83 81 81 80 77 77 80 78 80
49 51 54 56 59 66 71 78 84 90 92 87 84 78 42 27 16 12 5 6 8 14 24 36 44 50 53 58 64 69 74 72 75 76 81 84 84 86 86 84 83 83 81 77 75 80 82
50 51 55 58 62 68 74 80 87 91 99 89 83 66 34 18 9 5 6 8 9 9 13 25 35 40 45 52 57 65 74 75 75 80 82 85 86 87 90 89 87 85 81 82 78 79 83
51 53 56 59 65 70 76 83 89 96 97 84 80 51 25 11 7 8 9 12 14 18 18 22 31 41 46 49 54 61 67 74 75 81 85 86 89 88 92 91 90 87 85 83 81 77 79
52 53 57 61 66 72 79 84 89 99 89 80 78 40 16 14 11 16 16 19 19 20 22 23 30 37 42 49 54 58 64 68 74 80 87 89 91 91 92 94 93 92 88 83 82 78 76
53 54 58 64 68 74 79 85 91 98 88 79 71 36 21 16 18 14 18 25 30 33 36 41 43 44 46 48 52 57 61 66 71 77 85 92 93 94 92 95 95 95 93 88 84 82 75
54 56 59 65 70 75 80 87 92 97 92 81 62 36 24 17 20 17 18 17 22 31 38 40 46 52 57 56 55 58 62 67 71 75 80 90 94 96 96 95 97 96 95 91 84 82 76
54 54 60 65 70 76 81 88 95 98 94 83 57 34 25 19 20 21 20 22 30 28 30 31 33 42 56 65 66 67 67 68 71 73 77 84 94 99 99 98 97 97 96 94 90 84 77
53 54 61 66 70 76 81 87 95 97 91 82 50 32 26 24 22 22 24 27 34 25 20 20 23 30 40 51 60 70 72 73 73 74 78 83 90 99 102 101 100 99 100 98 95 90 82
51 55 61 67 71 77 80 89 93 97 93 82 45 29 27 27 25 23 27 32 33 25 18 14 14 23 31 40 48 59 71 75 74 74 78 81 90 96 102 103 102 101 100 100 99 95 89
52 57 63 66 69 78 80 88 95 100 95 80 44 28 25 26 27 25 31 36 33 26 27 17 10 13 20 30 39 46 56 71 77 74 77 78 86 96 99 101 103 103 101 99 98 98 94
53 58 62 66 73 75 81 89 95 97 96 73 42 29 26 26 27 24 31 38 34 26 28 25 17 10 12 16 26 34 45 58 71 78 76 77 79 89 98 102 104 102 99 97 97 97 97
54 58 62 67 72 78 81 88 93 96 95 74 43 32 28 25 22 28 36 38 31 27 25 24 19 14 10 12 16 23 33 45 58 73 82 82 80 84 92 100 102 100 98 98 96 97 97
56 60 62 67 73 77 83 86 93 94 91 73 37 31 31 27 26 30 37 38 31 29 25 23 18 15 12 11 14 19 25 34 44 59 76 85 87 83 87 91 98 96 99 98 94 95 96
58 60 63 68 73 79 81 88 91 85 91 71 35 30 29 27 28 35 38 35 30 31 26 21 18 16 12 11 13 16 20 27 35 47 62 75 84 86 84 86 89 92 94 97 97 96 96
59 61 65 69 75 76 83 86 91 92 88 56 34 30 29 28 32 39 41 35 32 32 27 22 19 17 16 13 13 15 18 23 29 37 47 61 76 89 91 86 88 86 89 91 95 98 98
58 63 68 71 76 79 83 88 88 90 81 49 33 27 26 29 35 40 40 36 37 31 27 27 24 22 20 18 15 15 18 22 24 29 38 48 64 79 88 90 86 86 86 87 94 97 96

GFSGBSN_250_spd_099.txt.gz
Wind_Speed
9 11 16 18 19 19 21 24 24 26 29 27 28 32 32 34 32 27 26 28 28 31 33 35 34 38 46 53 58 57 57 57 53 51 49 45 40 36 35 32 36 30 25 25 20 27 15
13 12 15 19 21 22 22 25 29 30 30 34 31 33 33 40 36 34 34 33 34 34 36 37 39 37 40 46 56 59 58 59 57 54 53 48 44 40 40 36 38 32 31 20 16 21 22
12 15 18 20 23 25 26 29 32 35 35 38 37 35 39 39 45 40 44 37 36 41 42 41 42 44 40 44 50 59 61 59 60 58 56 51 48 46 44 41 41 36 32 28 26 19 20
17 19 21 23 26 29 30 33 36 37 39 41 41 42 44 45 48 48 51 45 41 45 49 49 47 45 43 47 50 54 61 62 61 61 59 55 51 50 47 46 44 40 35 30 24 24 18
21 22 24 27 30 32 33 36 41 41 44 48 49 51 51 52 55 54 54 52 47 47 52 56 56 54 49 50 49 50 57 64 63 62 62 61 55 54 53 50 48 44 43 39 29 21 22
22 26 28 31 34 36 38 40 44 45 50 54 56 58 62 59 64 63 58 54 52 51 54 59 61 59 57 54 52 50 54 62 67 66 65 64 61 59 57 57 55 52 55 49 37 34 30
25 28 31 34 37 40 42 45 46 50 55 60 63 66 66 71 70 64 59 58 56 52 56 60 64 64 63 60 56 54 55 58 68 69 67 67 67 66 64 60 59 59 59 59 50 41 43
30 31 34 36 38 41 44 48 49 55 59 65 69 72 78 74 67 66 66 60 55 55 56 57 65 68 68 65 63 58 58 58 64 71 71 70 71 70 66 65 64 63 63 60 57 56 47
35 37 39 42 44 46 47 51 53 59 65 71 75 82 78 72 66 67 61 48 45 53 56 62 63 69 68 70 67 64 59 62 64 69 74 74 75 74 72 68 69 68 69 66 62 62 57
37 41 43 45 47 48 50 53 57 62 68 75 82 83 76 69 68 60 44 35 33 44 54 61 63 67 71 69 69 68 67 61 63 65 74 77 77 76 75 73 72 74 72 72 70 67 62
41 44 46 47 48 49 51 54 61 67 74 81 84 85 74 70 63 41 29 24 24 33 47 61 65 69 71 68 67 69 70 65 64 65 69 77 80 77 78 77 77 76 74 74 73 68 66
44 48 49 50 49 50 53 57 64 70 78 87 85 82 74 69 45 29 20 16 16 23 36 50 64 70 72 69 66 67 70 70 66 65 69 75 81 81 81 82 81 80 78 75 76 73 70
48 51 50 51 51 51 54 61 66 72 81 89 89 86 72 54 32 20 14 10 13 15 26 39 55 65 71 68 66 67 69 70 71 67 69 71 78 80 81 83 84 82 79 77 76 77 74
49 54 53 54 53 54 57 63 68 75 83 90 86 81 65 40 23 12 6 1 6 12 17 29 43 59 70 70 69 70 70 72 74 72 71 74 76 81 82 82 85 86 83 80 75 77 77
52 57 57 56 54 56 60 65 69 77 85 90 95 76 55 32 16 8 3 4 5 5 10 19 31 43 60 70 73 72 71 71 74 75 76 75 78 82 85 88 88 87 86 85 82 80 80
54 57 58 56 54 57 62 67 71 78 86 92 93 71 44 27 15 9 9 8 10 11 13 14 18 31 44 59 67 73 75 73 73 75 77 78 82 84 88 90 90 89 89 89 86 80 80
56 58 59 54 54 57 62 68 74 78 86 92 93 72 37 22 14 12 13 16 19 21 21 21 22 23 33 46 58 67 74 75 75 76 79 81 83 86 89 91 92 91 89 87 87 83 79
61 61 57 53 55 58 62 68 76 79 87 88 92 72 37 22 13 16 17 20 24 29 33 33 32 33 34 36 48 61 66 69 74 75 80 84 84 87 91 93 94 92 91 89 87 84 80
62 58 53 53 55 58 63 68 75 81 87 89 91 76 37 22 15 15 17 19 24 25 31 38 40 41 45 44 45 53 61 68 71 75 78 83 84 86 92 94 95 94 92 91 88 85 82
62 56 50 52 55 59 65 70 75 81 87 91 89 74 38 26 18 16 17 16 20 26 34 29 33 40 48 52 53 55 59 65 72 73 77 82 86 85 88 94 97 96 95 94 92 87 84
55 50 49 50 54 60 66 69 76 79 86 90 87 75 38 27 22 20 20 19 25 32 27 24 23 26 35 44 56 61 61 63 67 72 75 79 84 88 88 93 97 98 96 96 94 93 87
50 46 47 50 54 61 64 69 75 79 85 92 87 70 40 28 26 23 18 22 31 35 24 24 19 17 22 31 47 62 66 65 67 70 73 76 79 85 89 91 96 99 99 97 96 95 92
44 43 45 49 54 61 63 69 76 78 85 90 88 66 39 28 27 25 23 28 34 36 26 21 18 14 14 22 32 45 61 70 67 67 71 75 78 79 85 90 95 98 99 98 97 97 95
40 41 44 49 56 58 66 71 74 81 83 90 90 61 39 28 26 26 28 31 37 38 29 27 21 16 12 15 24 32 44 59 74 72 70 73 78 80 81 86 90 94 97 98 96 97 96
37 40 44 51 55 61 68 72 72 80 82 88 88 60 39 29 26 24 30 34 38 34 30 28 23 17 15 12 15 23 32 43 56 70 77 77 75 80 81 83 85 89 96 97 97 96 97
36 40 44 51 58 63 68 71 73 78 84 88 85 63 38 29 27 24 31 37 40 33 31 29 24 18 16 14 12 18 22 31 41 54 66 76 81 79 81 82 82 84 89 94 97 99 99
37 40 46 53 58 63 68 70 72 80 82 89 88 63 38 29 28 27 34 40 41 34 30 26 22 19 16 15 13 14 19 23 28 40 52 64 77 82 81 81 81 79 82 88 98 101 101
39 40 47 54 59 63 66 68 73 79 80 90 87 69 38 33 29 32 38 44 37 34 29 25 21 19 19 18 16 15 17 21 25 30 42 54 65 78 84 80 78 79 77 84 93 96 99
42 43 47 55 59 63 65 69 72 79 81 86 90 67 39 35 32 37 44 40 36 32 30 29 23 21 20 20 20 20 20 20 23 26 31 43 55 68 79 85 80 76 76 79 85 88 93

GFSGBSN_250_spd_102.txt.gz
Wind_Speed
6 5 8 10 10 12 14 15 17 19 22 23 23 22 22 22 23 22 22 22 25 23 29 36 39 39 44 51 58 58 58 55 52 50 48 44 41 38 36 33 29 24 28 27 27 21 17
5 8 10 12 15 16 18 20 21 24 25 24 26 29 27 30 29 29 29 30 31 31 30 35 42 43 43 46 54 60 60 59 56 53 50 48 45 40 39 35 30 33 29 27 21 17 23
9 14 15 17 18 20 21 23 24 27 28 27 29 32 36 35 34 38 40 39 38 39 38 36 42 48 48 47 50 57 62 60 60 57 52 50 48 44 42 38 34 39 31 33 31 28 25
13 17 18 20 23 26 28 30 31 30 33 33 33 38 41 43 44 49 49 49 47 49 48 44 44 49 53 53 52 54 60 64 61 60 58 55 52 49 46 43 39 36 34 31 26 24 18
15 19 22 24 26 31 32 34 37 38 37 39 38 43 49 52 57 62 62 58 58 56 56 53 50 51 54 58 55 53 57 64 65 62 62 59 55 53 51 48 46 38 35 33 30 25 22
18 20 23 26 29 33 36 37 39 40 40 41 46 50 56 65 66 69 68 65 60 58 57 56 56 55 57 59 61 57 57 59 68 68 64 62 61 58 56 54 52 46 39 36 35 28 16
21 25 28 31 34 37 38 40 41 41 42 46 50 59 66 70 69 72 67 62 55 52 50 55 57 57 60 63 63 63 60 61 64 70 68 66 65 64 61 56 56 53 46 49 40 36 35
24 28 33 38 38 39 41 43 41 41 45 50 57 65 75 72 73 70 66 56 52 48 51 55 57 64 62 67 66 66 66 64 63 70 71 70 69 67 64 61 60 59 55 55 50 48 38
22 31 36 41 47 43 43 43 41 43 49 55 63 72 78 78 79 69 61 51 40 38 45 54 60 63 65 67 66 70 70 68 67 67 73 74 74 71 69 66 66 65 68 64 62 54 48
27 30 36 42 49 51 45 45 43 45 52 60 68 76 81 81 75 65 49 36 27 23 29 45 58 65 67 69 72 70 72 71 68 68 70 76 75 75 73 73 71 71 70 70 66 63 56
30 35 41 47 51 55 49 47 45 50 56 64 72 81 87 83 74 53 39 27 21 19 21 37 52 63 68 70 73 72 73 74 71 68 69 72 79 77 76 77 75 75 73 75 71 68 66
35 39 45 49 54 58 55 50 49 53 60 68 74 83 89 82 63 42 30 21 15 15 18 26 48 61 68 71 70 74 71 75 73 71 71 68 75 79 81 80 79 77 77 77 78 76 70
36 42 47 53 56 57 56 52 51 55 63 70 78 85 89 76 50 30 21 14 11 11 13 20 36 57 66 73 71 74 72 75 78 74 72 70 73 77 81 81 81 81 80 80 82 77 77
41 46 50 54 59 57 55 51 52 57 65 72 79 86 87 69 40 22 14 10 8 5 8 10 24 43 59 71 73 74 74 74 78 79 74 73 75 75 82 82 83 84 85 84 81 85 79
40 47 53 58 60 60 53 51 53 59 66 74 79 85 84 65 36 19 12 5 6 3 4 5 13 29 47 63 70 74 73 75 77 81 82 78 78 75 79 86 85 86 84 87 86 83 85
43 51 56 60 60 56 50 51 53 60 68 75 80 87 80 62 34 18 12 10 10 9 8 7 10 19 33 51 64 73 74 73 74 77 80 81 78 79 80 86 89 86 88 87 86 85 87
48 55 57 61 56 50 48 50 53 60 68 74 80 87 83 61 34 20 15 13 14 17 17 17 16 17 26 38 54 67 73 76 75 73 75 82 81 79 81 84 90 91 89 88 89 86 86
51 55 59 57 50 46 46 49 55 60 69 74 80 87 85 60 34 23 16 20 20 21 20 25 27 26 26 35 45 58 70 74 77 75 76 79 84 80 82 83 87 90 91 91 90 87 86
54 57 59 52 48 45 45 50 55 60 67 73 78 87 83 59 34 23 18 17 18 20 19 22 27 29 33 33 39 53 63 75 79 79 76 77 80 82 82 80 86 90 94 93 92 89 87
56 56 54 51 45 43 44 50 56 62 67 71 79 85 87 64 35 22 17 18 18 17 22 28 28 29 35 36 43 44 59 69 79 81 80 80 81 83 85 90 89 90 92 94 95 93 88
56 55 51 47 39 39 44 51 58 62 67 72 79 87 91 71 37 20 17 14 16 19 26 31 24 22 23 34 42 46 50 63 70 76 80 83 84 84 86 83 83 83 87 93 95 96 93
52 49 47 39 35 37 44 50 58 63 65 72 79 86 92 72 41 26 19 16 20 25 28 32 22 20 21 24 37 48 55 56 63 73 79 81 89 88 85 83 85 86 89 93 95 97 96
47 45 39 31 33 36 43 51 57 61 65 72 79 86 89 79 46 31 28 20 23 30 34 35 26 21 20 18 26 42 55 63 63 65 75 81 84 88 89 87 87 86 89 91 94 95 97
42 38 31 29 33 37 43 50 55 59 64 72 78 82 86 87 50 34 33 27 29 33 38 37 27 22 18 20 18 29 45 59 67 69 68 76 82 87 89 88 85 91 88 89 93 96 98
37 32 29 31 34 39 43 49 54 58 63 69 75 82 83 89 57 36 33 31 34 38 44 37 32 26 18 17 19 21 32 46 60 69 73 71 77 81 84 88 90 87 88 90 92 97 100
32 30 30 34 38 41 45 49 54 59 64 69 70 79 83 88 63 37 32 33 38 44 40 36 32 28 23 19 18 20 24 33 47 58 69 75 74 77 80 83 86 91 88 91 91 94 101
32 31 34 37 40 44 50 52 56 59 65 67 72 78 84 85 63 38 33 38 44 42 38 34 29 27 23 20 19 20 22 26 34 46 57 70 79 74 77 82 85 84 87 90 93 95 97
35 35 37 42 45 47 50 55 56 60 64 67 73 78 81 81 67 39 35 41 44 38 34 30 27 24 22 21 21 22 24 26 30 35 44 56 68 80 76 77 81 84 84 86 91 93 92
37 40 40 43 46 49 52 56 59 60 63 66 73 72 79 78 72 40 39 43 40 36 32 29 26 22 21 22 25 25 26 27 28 31 35 44 54 66 80 83 80 81 83 85 86 88 89

GFSGBSN_250_spd_105.txt.gz
Wind_Speed
1 2 5 8 10 13 16 17 20 21 21 21 19 19 21 20 21 23 24 25 25 28 29 29 35 39 44 50 57 59 57 54 52 49 47 43 40 38 35 33 29 28 25 26 19 15 15
3 7 12 14 16 17 18 19 22 24 24 26 23 23 24 24 26 26 28 29 32 34 36 37 38 41 45 47 54 60 61 58 55 53 50 49 45 42 40 37 33 34 24 28 24 25 26
8 13 15 16 18 21 24 26 28 30 30 29 29 27 26 29 31 34 37 39 43 47 46 45 43 42 47 48 52 58 63 62 59 56 53 51 50 45 43 41 37 32 32 32 33 24 18
13 15 17 20 23 26 29 31 32 33 35 35 32 28 32 36 40 45 47 51 54 56 55 53 51 49 44 54 54 56 61 65 64 61 58 55 52 50 46 44 39 31 30 33 27 23 27
13 16 19 22 25 28 31 32 33 35 35 33 31 32 36 42 47 52 56 60 63 64 65 62 58 57 53 52 57 57 59 64 67 65 63 60 57 53 50 47 42 36 36 36 29 27 32
15 16 17 19 26 32 36 37 35 35 32 30 31 36 42 46 54 60 63 68 71 68 63 60 58 62 62 57 56 60 61 63 68 69 66 65 61 57 53 50 47 34 38 35 39 30 27
17 16 19 23 28 36 39 43 39 35 30 31 35 41 47 56 62 70 71 75 66 60 54 54 54 59 66 64 63 62 66 65 67 70 70 67 65 61 59 55 52 45 27 40 41 29 34
18 19 21 26 31 38 41 45 44 39 33 34 39 47 54 62 71 71 76 69 59 44 43 50 53 57 63 67 66 65 67 69 68 70 73 71 70 68 61 57 60 61 53 46 38 39 37
21 22 26 31 35 40 43 47 46 43 37 40 46 52 60 70 77 76 71 58 37 28 30 40 52 56 61 67 68 69 69 72 72 71 72 75 74 71 67 67 65 64 57 52 35 43 45
24 26 31 35 40 44 48 51 50 46 41 45 50 57 66 73 78 72 60 44 29 21 19 26 47 57 60 67 70 71 70 74 74 71 73 76 76 71 72 70 69 67 60 54 42 50 50
28 31 35 40 44 47 51 55 55 48 44 47 53 60 70 77 74 67 52 36 26 20 13 14 31 56 61 66 67 72 72 72 76 74 73 74 75 74 76 75 73 69 67 59 59 48 54
32 33 39 43 45 50 55 58 52 45 45 48 55 63 71 75 73 62 44 31 24 18 12 8 19 43 64 67 70 71 73 73 76 76 74 77 76 78 79 78 75 73 76 77 68 65 65
36 37 41 44 47 53 58 57 48 44 45 50 56 64 74 76 70 58 39 22 20 17 12 8 10 28 54 69 73 74 75 76 77 80 79 75 72 76 79 78 79 80 80 77 74 73 70
38 38 45 47 50 53 58 54 44 44 46 51 57 66 74 78 76 57 37 20 11 7 9 11 7 17 39 60 72 75 77 78 79 82 83 79 80 78 79 80 81 85 85 83 79 78 75
38 43 45 50 54 55 56 49 43 44 47 51 59 66 74 80 82 58 34 22 13 9 5 4 6 7 25 49 64 73 77 80 80 83 87 81 83 84 82 83 85 88 88 88 90 80 81
43 47 49 52 54 53 53 46 42 45 48 53 59 67 75 83 82 60 33 20 15 13 12 6 4 5 13 36 56 68 75 80 81 83 85 82 82 79 81 83 85 89 92 91 90 91 87
44 47 50 52 52 53 51 43 40 44 49 54 60 67 75 83 86 63 32 22 19 16 15 18 13 10 12 20 46 63 70 75 77 79 78 82 83 81 80 83 87 90 90 93 94 95 94
50 51 53 53 54 52 47 38 37 42 48 54 60 66 73 81 87 71 32 23 18 19 15 14 20 21 18 21 28 53 66 73 73 78 79 82 85 81 79 82 86 91 94 95 97 95 96
52 54 56 56 55 50 42 33 36 41 47 53 59 65 71 78 85 78 37 25 22 17 19 16 13 15 22 30 30 37 59 70 76 79 81 80 81 84 83 81 83 85 90 95 97 100 102
57 58 58 55 50 44 32 30 37 41 46 53 59 63 70 74 83 79 45 30 26 17 14 16 18 23 26 31 35 39 47 63 73 77 79 79 83 87 89 90 86 90 91 93 98 100 100
60 59 56 49 44 33 28 30 37 40 46 53 59 62 68 73 78 77 60 31 26 24 20 21 23 23 22 25 36 40 47 55 67 75 80 81 85 86 90 90 89 87 88 91 94 98 100
55 51 48 41 34 27 28 33 37 40 49 53 59 62 67 70 73 77 74 34 26 22 23 22 27 28 17 21 30 38 47 52 61 71 80 84 86 85 84 89 88 89 85 87 89 95 98
44 43 38 32 26 25 29 34 38 43 50 54 58 64 67 70 71 77 73 43 30 24 25 27 31 25 19 17 25 34 41 53 58 67 75 83 86 88 87 86 86 90 90 89 90 90 97
38 37 34 28 26 26 30 35 40 44 50 54 58 61 64 71 67 76 73 60 32 27 30 35 30 24 21 16 19 28 34 47 57 63 72 78 85 87 88 89 82 87 92 92 88 93 94
34 31 31 28 28 29 32 38 41 45 50 54 57 59 65 69 66 75 75 55 35 32 37 37 31 25 20 17 17 21 24 36 52 61 66 74 81 88 89 87 87 92 91 93 91 93 93
30 28 29 31 32 33 37 40 43 46 52 54 59 61 68 64 66 74 75 56 37 39 42 37 32 27 21 17 17 19 20 21 33 55 67 70 77 83 89 91 94 90 82 87 93 96 92
30 29 31 34 34 36 40 42 45 47 50 54 57 61 64 65 66 72 75 57 39 43 42 37 34 30 25 21 18 19 21 18 25 45 52 64 72 75 83 88 92 91 90 95 95 98 93
34 31 33 36 38 41 42 43 44 47 49 54 56 57 63 66 68 69 72 58 43 46 41 37 35 31 27 25 22 20 24 32 34 35 41 46 44 79 79 79 89 92 94 94 96 96 93
43 42 41 41 40 42 43 43 44 49 50 54 54 56 64 65 62 72 74 53 44 45 38 37 34 31 28 26 24 24 25 28 33 35 42 50 65 64 77 80 84 88 93 97 97 97 95

GFSGBSN_250_spd_108.txt.gz
Wind_Speed
5 6 7 11 15 18 21 22 23 24 26 26 27 27 23 23 24 23 24 24 25 24 25 26 25 27 36 41 47 53 54 52 51 49 46 44 40 38 33 32 33 28 22 28 15 11 9
6 7 11 14 16 19 23 26 28 29 30 30 30 30 29 27 27 26 28 30 30 32 33 35 34 34 33 37 49 51 56 56 54 53 51 48 45 41 38 36 36 36 32 32 21 16 14
8 11 15 18 19 20 23 25 28 31 33 34 34 34 31 29 29 30 33 36 38 40 44 45 44 43 42 36 49 51 56 60 58 57 54 52 49 46 42 39 39 35 29 32 28 17 24
12 14 16 18 17 13 22 26 30 33 31 31 33 33 31 27 31 35 39 42 47 51 54 54 56 55 47 50 52 52 56 60 63 60 58 57 53 49 46 44 41 34 29 31 32 26 20
13 15 16 13 13 18 24 29 34 37 38 36 35 32 29 31 34 39 46 53 57 61 67 65 68 65 63 61 56 55 59 60 63 65 61 60 57 53 48 47 43 39 33 31 37 33 26
15 17 18 16 18 23 28 33 37 41 41 40 35 33 31 37 42 47 55 60 66 72 77 79 76 74 69 64 64 62 61 63 64 66 66 64 60 55 52 49 46 40 30 32 37 32 29
18 19 20 20 23 27 33 38 42 43 46 45 38 35 34 42 46 56 62 69 73 79 76 69 62 61 61 64 67 67 67 67 65 66 69 67 64 59 55 54 47 46 44 23 40 30 30
20 22 23 25 28 33 39 43 45 46 52 49 41 37 39 45 54 63 70 76 79 70 54 47 44 47 57 61 66 71 71 68 67 68 70 69 68 66 61 56 52 53 47 48 41 41 35
25 26 28 31 33 39 44 48 48 52 55 50 42 38 43 49 59 67 74 76 67 46 35 31 32 38 52 62 68 73 77 71 69 70 70 72 74 71 64 59 56 55 49 50 48 47 39
29 30 32 35 39 44 48 46 50 56 57 48 43 40 46 54 60 67 75 70 53 36 28 22 24 34 49 59 69 74 78 75 72 72 71 73 76 72 69 68 69 64 63 57 52 50 48
29 31 34 37 42 47 48 49 54 57 55 47 43 43 49 57 62 68 68 62 41 30 23 14 18 30 46 58 64 74 78 78 74 73 73 72 76 74 74 74 71 71 75 44 58 48 51
33 36 39 43 47 49 52 55 56 55 51 47 45 44 51 60 65 69 66 54 32 25 20 13 10 22 39 57 67 71 74 80 77 74 74 76 77 76 78 77 77 78 63 53 57 54 52
37 39 40 42 46 50 53 53 52 51 50 46 46 46 53 59 67 71 69 44 24 17 19 14 11 11 30 52 63 70 74 79 77 76 76 78 74 73 77 83 79 78 78 65 62 57 51
36 39 42 44 46 49 52 53 53 52 47 43 44 47 54 61 68 73 73 42 23 14 8 13 12 7 18 47 59 64 71 77 79 78 80 83 78 75 83 85 81 82 86 79 73 58 49
41 44 45 47 49 52 54 56 55 51 44 40 42 47 55 60 68 73 70 45 27 16 13 8 7 7 6 34 56 61 68 73 79 80 83 86 84 84 83 87 86 89 87 88 80 78 62
46 47 48 50 52 54 57 58 55 48 40 38 40 47 54 60 66 71 71 54 30 21 15 17 9 5 3 15 50 63 70 74 82 86 86 83 81 81 82 84 87 88 91 91 86 81 69
49 50 51 53 55 58 58 56 50 43 37 36 40 47 54 61 66 70 71 68 35 24 18 15 20 14 6 8 28 57 69 73 75 81 78 80 82 82 81 81 88 90 93 92 90 88 72
51 53 53 56 60 59 55 50 43 36 34 35 41 48 54 61 63 67 68 70 52 25 21 15 14 23 17 14 16 36 65 72 74 75 78 81 82 86 82 81 86 91 94 95 95 96 92
54 55 58 59 60 56 48 41 36 31 31 36 43 48 54 61 63 64 64 72 57 33 21 19 15 15 18 25 21 23 43 65 75 78 80 79 78 81 82 82 85 90 95 96 100 102 100
57 59 60 60 55 48 39 33 28 28 31 37 42 48 53 58 62 63 62 67 64 34 22 17 17 17 18 20 27 34 34 52 69 77 79 80 83 84 91 88 87 88 95 95 99 104 106
59 59 57 50 46 40 31 29 25 27 32 36 42 50 53 56 62 63 61 67 69 41 24 16 18 21 25 29 33 35 42 44 58 72 79 81 83 89 87 91 89 88 91 96 99 103 108
56 51 47 41 39 33 30 26 24 29 33 38 43 50 53 56 61 63 67 65 68 59 25 20 18 22 26 30 31 35 42 48 51 65 74 80 84 84 85 88 91 89 91 95 98 101 104
45 42 38 33 34 30 26 27 27 31 37 41 46 49 53 54 56 61 66 63 68 66 31 25 25 29 24 24 27 32 38 48 55 58 69 77 81 83 84 88 92 93 91 93 95 98 101
34 29 28 27 27 26 28 29 30 35 39 43 44 48 52 52 55 60 64 64 67 67 39 31 33 28 22 19 22 28 34 43 54 57 65 74 81 83 85 88 87 95 95 96 96 98 101
26 24 27 25 25 26 27 29 32 34 39 41 43 48 52 51 54 61 63 67 71 66 48 34 37 29 22 17 17 23 30 37 45 56 61 67 77 82 84 85 88 90 93 97 94 96 96
28 29 30 29 28 25 27 34 35 36 39 41 44 49 52 52 55 60 65 70 70 66 53 37 39 30 25 19 15 18 25 33 41 49 59 65 70 77 84 88 90 87 89 91 94 101 99
37 36 36 37 35 37 39 39 39 41 41 42 47 50 53 53 55 62 67 68 68 67 55 42 40 32 28 22 16 16 23 36 41 39 55 64 70 72 78 84 86 89 87 91 95 99 96
47 45 43 42 42 43 43 44 44 44 44 47 50 51 54 54 55 61 66 68 69 67 53 46 43 37 30 26 18 16 23 30 43 36 33 52 68 74 73 73 79 84 88 91 94 96 94
56 56 54 51 50 50 48 46 46 49 47 48 49 51 55 54 53 60 66 67 70 67 50 49 44 36 32 28 21 17 22 33 41 50 50 44 58 70 73 76 77 79 82 89 99 100 96

GFSGBSN_250_spd_111.txt.gz
Wind_Speed
4 7 7 10 14 16 18 20 23 24 25 28 30 31 31 31 30 30 31 29 29 26 25 24 22 19 19 24 34 36 45 48 48 48 45 43 39 34 34 30 33 31 21 8 17 8 9
5 7 10 14 17 17 17 13 16 20 26 28 29 30 32 35 34 34 32 34 33 32 32 33 31 29 26 23 35 36 42 48 51 50 50 47 44 39 38 35 37 35 23 17 21 16 13
8 10 13 17 17 18 11 16 20 25 30 33 34 34 34 34 36 35 34 34 37 39 40 41 41 39 35 35 38 33 40 47 52 54 55 52 48 45 40 40 38 34 25 27 22 22 10
10 13 14 17 18 14 15 22 26 30 33 37 39 41 42 37 34 32 32 37 40 46 49 50 51 48 45 45 44 40 38 44 51 56 57 56 54 50 46 45 38 37 38 28 29 23 17
14 14 17 20 17 17 20 26 30 33 37 40 44 47 47 40 34 33 37 44 51 54 55 55 58 60 59 53 54 53 48 46 50 56 60 60 59 54 51 51 57 26 44 39 33 28 16
15 18 21 23 23 25 27 30 35 40 45 45 46 51 50 39 36 36 43 51 57 56 59 62 66 68 70 72 69 67 61 56 51 57 62 63 64 59 56 56 58 49 42 39 32 32 29
19 23 25 27 27 28 31 37 41 45 45 48 52 54 51 39 38 41 48 57 56 58 62 70 69 64 65 70 77 77 73 66 60 55 62 68 66 63 61 60 58 54 48 42 38 37 36
23 25 28 30 31 34 37 43 46 46 48 53 55 54 48 40 42 46 55 63 62 64 71 70 57 46 44 54 63 72 77 71 66 65 65 66 69 69 67 62 61 57 52 46 44 43 41
27 29 30 32 34 38 42 45 48 51 51 54 51 50 47 42 44 51 60 68 69 73 72 51 41 37 37 42 54 68 76 76 70 71 64 65 74 74 71 66 63 61 54 43 44 46 46
30 31 33 34 36 40 45 48 48 48 50 51 51 51 47 42 46 54 65 69 73 74 49 33 30 28 25 32 47 63 74 81 75 74 68 69 74 76 73 69 67 64 59 50 42 45 50
31 33 35 37 40 43 45 46 49 51 52 52 51 49 45 39 49 59 63 68 71 61 37 27 25 22 21 27 43 61 71 78 79 78 74 73 75 76 76 72 68 67 68 64 50 49 56
36 38 37 40 41 43 47 50 51 51 54 54 51 47 39 41 50 56 60 64 61 47 29 25 22 18 16 24 39 59 70 75 80 79 75 72 75 78 78 78 70 71 74 72 65 56 50
41 40 41 42 44 47 50 52 52 53 55 54 48 43 36 43 49 54 58 57 55 45 30 16 20 18 12 21 38 57 68 74 76 78 79 76 76 76 80 78 77 77 76 70 75 65 54
43 43 43 46 49 52 53 53 52 55 54 48 45 34 34 43 51 52 56 65 63 47 30 15 15 18 13 15 36 53 66 73 76 79 81 81 80 78 78 79 80 83 83 75 71 69 67
42 43 46 50 53 54 54 54 55 55 49 43 37 29 35 42 51 53 55 64 63 58 31 18 16 12 16 12 27 51 64 74 79 83 88 83 82 85 82 87 89 85 80 79 77 68 64
46 49 50 53 53 55 55 57 57 52 42 36 26 29 34 44 51 54 53 62 65 61 40 21 15 15 11 11 20 45 62 71 79 84 82 85 81 81 80 86 90 88 84 80 78 74 69
49 51 53 54 53 55 59 58 53 45 34 29 23 29 35 42 47 49 53 60 62 63 57 25 15 13 13 10 13 35 59 66 71 74 79 80 80 80 80 80 87 87 87 86 83 70 71
51 51 51 54 56 57 57 54 45 38 28 21 24 28 37 42 48 50 53 55 63 68 64 34 15 12 13 15 11 22 46 60 70 74 77 78 79 78 79 80 87 91 93 97 96 81 73
48 48 53 56 58 54 50 45 38 31 23 20 25 31 38 40 46 47 50 54 58 67 61 46 23 12 12 15 17 15 34 53 62 71 77 81 83 81 83 86 86 93 94 99 99 98 84
49 50 56 55 53 49 43 37 34 28 21 20 25 33 39 40 45 46 47 52 55 61 64 58 29 18 13 16 20 27 22 39 62 67 76 82 85 85 85 86 88 90 92 98 102 101 99
53 55 54 51 46 40 35 31 31 27 23 25 31 35 37 39 44 45 49 52 56 60 62 56 41 23 18 23 25 27 30 30 45 63 73 79 87 89 87 87 90 91 92 96 101 100 101
55 53 49 44 35 30 30 27 25 25 26 28 32 34 37 40 45 48 50 52 55 61 61 58 58 24 22 25 30 35 30 37 43 57 74 80 83 90 86 87 92 93 93 93 97 105 107
44 43 43 32 23 23 24 23 24 25 26 27 34 35 38 41 45 49 51 52 55 60 63 60 60 33 25 29 31 35 38 36 46 52 64 80 84 86 84 91 90 95 93 92 96 107 109
41 39 32 26 23 22 23 25 22 26 31 31 36 38 40 43 47 49 52 54 54 58 65 63 59 44 30 25 24 28 34 34 38 51 55 70 86 86 88 87 89 93 94 95 97 100 103
31 29 29 28 29 29 29 28 29 36 38 41 42 40 42 45 47 49 52 55 54 58 64 65 62 53 33 24 21 22 28 32 35 47 57 59 68 84 88 89 92 92 93 97 97 97 101
38 38 38 37 36 36 38 38 38 39 41 42 43 43 44 45 47 48 52 56 55 59 65 64 65 57 38 27 20 17 26 34 36 40 50 65 63 67 82 91 94 92 92 95 98 99 100
42 43 44 46 46 47 46 47 47 46 47 47 49 47 46 47 49 48 51 55 57 59 63 63 64 54 41 29 20 15 25 35 37 42 49 61 65 63 73 80 89 90 91 94 98 100 103
50 50 52 54 55 56 56 56 58 57 54 52 51 51 47 49 48 47 49 54 56 61 64 64 65 52 41 30 25 22 28 37 40 44 50 56 69 76 71 76 81 88 94 95 94 95 96
56 59 57 56 55 51 49 46 47 48 49 54 55 54 48 48 48 47 50 54 55 61 63 66 67 50 43 33 27 24 25 35 44 47 49 57 62 69 69 70 75 85 90 91 92 93 96

GFSGBSN_250_spd_114.txt.gz
Wind_Speed
5 5 7 7 10 13 12 13 11 11 14 21 24 26 28 29 30 30 29 30 33 30 29 29 26 23 21 21 29 33 40 44 47 46 45 43 38 36 33 31 29 28 25 4 27 17 8
6 7 8 10 13 14 15 12 14 16 19 24 28 30 32 35 38 36 31 27 31 33 35 34 35 33 30 28 26 30 36 43 47 49 50 48 43 39 36 34 34 35 23 11 12 9 12
8 9 11 13 13 16 17 15 20 25 24 28 33 37 38 36 41 40 33 33 31 35 39 41 43 43 37 35 32 25 33 40 46 51 54 51 48 44 40 41 42 36 25 16 9 10 12
10 11 14 15 16 19 19 19 24 29 30 35 39 39 40 45 41 39 35 33 35 39 43 47 46 45 41 40 40 34 31 35 44 51 56 55 53 49 48 47 42 34 31 24 14 27 21
11 14 15 17 20 24 24 26 31 34 36 40 41 45 47 46 40 38 34 35 39 43 50 46 48 49 48 47 47 47 44 42 39 49 59 59 58 54 52 50 49 43 38 43 35 37 28
14 17 18 22 23 26 28 29 32 34 39 42 45 44 44 44 40 39 36 37 43 48 47 44 47 50 54 56 56 59 51 52 50 44 52 63 63 62 58 58 55 52 35 52 44 44 32
16 18 22 25 26 30 33 36 37 39 40 43 45 46 48 44 41 38 38 42 50 51 51 48 50 55 61 64 67 70 69 60 57 51 49 60 68 69 64 61 60 52 53 45 48 37 33
19 22 26 29 30 32 34 36 38 42 41 46 47 46 47 44 41 35 39 47 54 57 56 52 57 58 63 67 72 76 77 76 69 67 59 56 71 73 68 66 64 57 46 47 49 38 34
24 27 28 30 32 34 36 38 40 42 46 47 46 48 48 42 36 33 41 51 58 62 61 61 49 40 37 38 51 67 75 80 82 76 69 68 69 76 74 71 71 69 57 45 43 48 39
27 29 32 33 36 39 39 42 43 47 49 49 48 51 49 38 30 33 44 53 56 63 64 54 40 32 27 28 36 51 67 81 84 84 82 76 68 77 78 74 74 73 72 65 54 49 46
30 33 34 37 39 40 43 45 44 50 51 49 50 51 43 32 26 34 44 50 56 60 58 50 36 30 25 23 27 40 56 75 88 88 85 82 75 75 78 79 76 75 71 63 61 56 52
35 36 39 41 42 44 44 45 49 50 50 50 51 46 37 26 26 35 45 47 53 59 63 51 32 25 25 21 18 32 50 69 85 89 90 85 78 70 78 79 78 76 73 65 63 60 58
39 41 42 43 43 45 47 49 51 51 51 52 48 39 29 22 28 35 43 44 50 61 65 56 35 25 24 21 15 24 41 61 78 87 97 90 84 78 76 76 80 77 74 69 66 59 56
41 43 44 44 46 48 50 51 52 51 53 51 42 31 20 22 29 35 42 41 49 56 66 63 34 26 23 19 13 20 36 59 76 86 95 94 87 80 76 77 80 82 80 75 72 60 52
43 45 46 48 49 50 52 50 51 53 49 44 35 21 16 23 31 35 40 40 45 53 59 64 43 25 19 18 13 13 30 53 72 88 91 91 86 83 81 84 85 87 87 83 79 73 57
42 44 45 45 44 46 46 49 52 48 44 36 27 17 17 25 31 35 40 41 43 53 57 63 57 32 22 16 13 8 29 48 65 75 84 88 88 82 79 80 82 87 86 83 81 79 73
42 42 42 44 45 47 47 51 47 43 39 30 19 16 17 26 31 34 40 46 44 50 54 61 58 38 22 16 11 10 22 42 59 70 79 82 83 81 83 79 81 86 86 86 85 83 82
44 45 46 47 48 49 51 48 43 40 31 26 16 15 19 27 30 33 38 43 47 48 51 55 59 54 24 15 15 9 12 38 55 68 76 81 83 81 82 79 80 85 91 90 88 88 86
49 49 51 51 53 52 48 43 39 32 28 22 16 17 24 28 30 35 38 43 46 49 49 52 58 54 33 20 13 15 13 28 51 64 76 83 83 83 83 81 85 86 91 91 90 86 85
51 51 51 51 50 46 41 37 33 28 22 19 17 21 25 28 31 33 36 42 45 48 48 51 56 58 52 21 17 16 18 19 42 59 71 82 82 85 85 84 84 86 90 93 95 94 88
49 50 48 46 42 41 40 29 27 24 21 18 18 22 26 28 30 35 38 40 45 48 49 48 53 58 48 41 19 20 23 27 30 56 69 76 84 85 85 87 84 88 90 98 98 96 94
47 46 42 40 42 42 34 25 24 22 23 22 19 22 25 31 32 35 39 39 43 44 47 50 51 58 51 54 26 24 26 32 35 41 61 73 82 85 87 89 86 86 94 94 98 98 98
44 39 40 39 35 32 28 25 24 24 25 27 27 34 35 37 35 37 40 42 43 43 46 48 51 56 55 54 33 30 29 28 36 45 52 68 78 82 88 91 89 89 92 95 99 101 100
36 34 34 29 30 30 29 30 31 32 32 35 38 40 42 43 43 43 43 43 46 46 47 50 51 55 57 56 42 30 29 27 35 47 50 58 76 82 86 90 93 94 93 94 94 100 102
37 37 39 39 37 36 38 38 39 41 41 43 45 45 48 51 49 47 46 46 46 46 47 51 52 58 60 58 49 31 27 31 32 41 53 55 63 79 84 89 91 95 95 93 95 98 105
45 42 42 41 42 41 42 44 46 49 51 51 53 55 56 57 56 53 49 48 46 48 48 50 52 58 62 57 50 30 29 32 33 35 43 57 61 65 79 84 90 95 98 96 96 101 101
52 49 48 48 47 47 47 48 50 53 50 48 48 43 41 47 51 53 49 48 47 45 48 49 54 58 61 61 48 34 33 34 35 33 38 53 62 63 66 78 84 90 97 102 102 97 99
55 53 52 52 50 49 48 50 52 47 45 39 37 42 46 49 51 50 45 44 45 44 44 49 54 62 61 65 45 33 28 31 34 33 35 46 57 63 65 67 78 88 93 100 101 100 101
48 47 48 49 44 39 40 42 42 42 38 36 41 44 50 56 50 44 39 38 41 41 41 48 55 59 60 57 45 35 28 30 36 35 33 39 50 58 66 70 72 82 92 97 100 101 101

GFSGBSN_250_spd_117.txt.gz
Wind_Speed
9 8 8 8 6 8 9 11 12 11 12 16 19 23 28 28 29 29 30 28 25 24 25 29 28 30 27 24 26 33 39 44 47 47 46 43 38 35 32 31 27 22 16 9 15 12 4
10 8 9 9 9 12 11 15 15 18 19 23 24 28 34 35 35 36 31 30 27 25 27 28 33 35 35 33 30 32 38 43 48 51 50 45 43 40 36 36 32 28 19 12 13 23 9
12 11 11 10 12 13 16 17 18 21 25 28 31 34 35 35 36 34 34 30 28 29 29 29 34 36 41 40 37 31 36 41 48 53 54 50 47 44 41 39 36 35 25 16 10 17 26
13 12 12 13 14 16 19 21 21 24 28 31 33 35 35 37 39 38 35 32 30 28 31 33 37 36 39 42 42 40 37 36 43 52 55 54 51 50 46 43 40 39 26 17 13 16 20
12 12 13 15 17 20 23 25 26 28 30 31 31 34 38 40 39 37 38 31 29 30 33 36 37 39 37 40 44 46 45 41 40 46 52 57 57 55 52 48 47 42 34 30 19 29 21
13 14 16 17 21 23 25 27 29 30 29 32 34 37 42 40 41 41 38 32 31 34 35 37 38 38 38 42 44 42 49 47 43 40 47 54 61 60 57 54 53 49 43 38 27 29 30
12 14 16 20 23 26 27 29 31 33 34 37 39 42 43 41 41 44 37 32 29 35 39 42 46 43 43 44 48 50 52 51 48 47 45 49 59 66 63 57 57 56 53 51 39 41 31
17 19 21 23 26 27 29 32 35 37 39 40 41 45 43 42 44 41 36 28 28 36 43 49 53 52 53 52 53 55 59 59 56 56 53 53 57 67 66 64 63 61 54 60 48 33 37
21 23 24 26 28 30 34 36 38 39 42 42 44 45 43 45 44 37 33 26 32 41 47 53 55 47 37 40 49 64 71 72 69 64 65 64 59 65 70 70 69 66 62 60 60 47 40
25 26 28 30 31 33 36 39 40 41 42 43 46 46 45 46 41 33 26 28 36 44 49 49 53 47 30 28 38 52 69 81 80 76 72 68 65 64 70 73 73 70 65 60 61 55 48
28 30 32 33 35 37 40 40 41 42 44 46 48 47 46 43 33 25 22 30 38 43 43 46 54 52 31 22 24 38 52 68 88 88 81 74 70 66 65 74 78 75 69 69 56 56 53
32 34 35 37 38 40 42 44 44 44 46 48 46 46 43 34 25 17 22 29 36 36 39 44 53 58 36 24 21 26 36 50 70 94 94 86 78 74 69 70 77 77 73 73 71 62 60
34 35 37 38 39 41 44 45 45 45 43 44 45 42 36 25 14 16 22 29 34 36 40 45 53 59 41 27 20 24 25 38 56 80 98 95 87 82 75 67 73 81 78 72 64 65 61
35 37 38 38 39 40 42 42 39 41 42 44 41 36 28 20 13 18 22 28 33 38 41 47 52 59 53 28 22 23 21 31 50 70 87 97 90 85 81 74 72 85 85 81 78 70 64
39 38 39 38 37 38 38 40 41 42 45 43 37 29 21 14 14 20 23 28 33 38 43 45 50 56 61 34 26 21 19 27 43 58 74 90 95 88 86 82 78 84 89 88 87 82 70
40 42 39 40 40 43 43 44 45 46 42 38 31 24 17 13 16 21 23 29 33 38 43 46 47 52 59 48 28 21 19 21 36 52 68 85 93 93 90 88 80 79 90 92 89 81 74
43 43 44 44 45 46 45 48 47 44 38 33 27 20 16 14 19 22 26 29 33 37 42 45 46 49 54 52 31 24 17 17 30 46 61 78 92 97 94 87 83 81 85 92 91 80 77
47 48 49 50 49 46 45 45 43 39 37 31 25 18 16 16 22 27 28 29 33 36 41 43 45 46 48 54 52 27 20 13 24 40 54 71 87 95 96 91 88 87 84 90 93 82 76
50 49 51 51 48 44 43 40 37 37 34 27 22 17 18 22 25 28 29 32 33 34 39 41 43 46 44 47 49 40 22 17 17 32 44 64 81 91 97 94 92 88 83 85 89 85 80
51 51 48 46 42 41 40 38 37 37 28 23 24 22 22 23 25 28 32 35 36 37 39 41 41 44 45 46 48 48 28 19 15 25 42 57 74 86 93 95 91 87 83 84 88 90 85
46 45 44 42 41 39 38 38 34 31 26 25 23 25 24 23 29 35 36 38 40 41 41 42 42 41 43 43 46 50 39 22 20 19 35 53 65 81 87 91 92 87 85 85 87 88 87
45 44 42 40 36 36 36 30 28 25 26 27 25 31 33 36 42 43 42 42 42 45 46 46 42 42 42 43 43 48 42 25 26 26 25 44 62 75 85 89 90 86 85 85 86 89 89
41 40 38 35 33 32 30 28 31 29 27 31 34 37 40 43 47 51 52 53 50 46 48 47 45 45 42 43 44 45 42 34 28 32 33 39 56 70 81 88 90 87 86 86 88 90 91
42 40 38 35 33 34 37 39 37 36 36 37 41 42 45 49 51 54 55 53 52 50 47 47 44 43 43 42 44 48 45 42 27 29 38 41 51 66 79 86 87 87 87 88 86 91 93
46 42 42 40 39 39 39 39 39 41 41 42 45 44 47 46 47 43 40 45 44 44 42 42 41 43 43 42 46 49 48 45 30 26 34 45 49 60 74 84 85 90 89 89 92 94 97
50 49 50 47 45 46 45 44 45 46 45 44 46 47 48 43 37 41 46 48 50 48 43 40 37 38 42 45 48 53 52 45 31 28 31 42 51 55 66 78 86 91 94 95 95 96 98
52 51 48 44 44 46 47 46 46 46 46 46 42 41 44 41 36 44 48 51 51 43 37 34 33 37 41 45 52 55 58 39 29 28 30 36 45 54 59 70 80 90 96 98 97 97 99
51 52 51 47 44 44 42 43 46 44 41 37 40 41 41 37 38 47 51 49 47 35 29 28 35 38 42 47 53 56 51 42 33 28 31 34 40 50 60 63 76 87 92 97 97 99 100
51 50 53 53 49 46 42 39 39 40 38 39 40 38 37 39 41 45 45 42 38 31 24 31 33 38 47 54 55 56 47 44 31 26 29 33 38 44 55 64 66 78 89 92 98 100 101

GFSGBSN_250_spd_123.txt.gz
Wind_Speed
10 9 8 9 6 8 8 8 9 10 12 13 16 19 21 21 20 21 20 24 24 22 19 18 18 19 20 25 23 22 24 31 39 43 44 42 38 36 30 31 32 24 20 13 10 7 8
9 9 9 10 9 11 11 11 12 13 14 15 16 19 20 22 21 23 24 26 26 23 21 22 20 21 20 23 28 27 24 26 33 41 44 47 43 40 36 34 37 28 20 16 17 8 7
9 11 13 13 13 13 14 14 15 16 16 16 18 17 18 21 23 27 27 28 28 26 25 25 22 21 21 23 24 29 31 30 31 37 43 47 48 46 42 38 39 35 29 22 19 6 6
11 12 15 16 15 14 15 16 18 19 19 20 21 22 22 25 28 29 30 30 30 27 28 27 23 21 21 21 22 27 32 36 36 36 40 46 51 50 47 42 39 39 32 29 23 16 15
12 13 13 15 16 16 17 18 20 22 23 25 25 27 29 30 31 33 32 32 33 31 31 29 25 21 23 24 24 27 31 39 44 43 43 47 52 55 52 47 43 43 39 31 26 24 18
14 14 13 15 15 17 20 23 25 26 27 30 31 32 34 34 36 37 37 37 36 33 33 27 21 21 19 20 24 28 31 37 47 51 50 51 55 58 57 53 48 48 44 37 32 26 19
14 16 15 16 18 21 23 26 29 31 32 34 36 38 39 39 41 41 40 39 36 34 30 23 16 15 20 24 30 34 35 38 44 56 57 58 60 62 62 58 53 52 48 39 33 25 28
18 19 20 22 24 26 28 29 31 34 36 39 40 42 43 44 43 40 40 38 34 32 24 15 14 20 25 29 33 36 37 36 46 57 62 62 64 66 67 63 58 56 52 43 35 33 30
22 22 23 24 27 29 30 31 33 36 38 40 41 42 42 42 40 38 36 35 33 24 16 12 15 21 25 31 37 41 41 39 42 56 63 63 64 70 71 68 64 62 59 50 44 41 34
23 24 27 30 31 31 31 32 34 37 37 39 39 39 37 36 36 34 36 33 27 18 13 14 17 22 27 32 36 40 42 36 42 56 63 66 65 68 74 73 70 68 65 55 53 49 51
27 27 28 28 30 30 27 30 33 35 36 37 36 38 37 37 38 35 33 27 20 17 16 16 18 22 27 35 40 42 43 33 36 55 64 71 70 71 76 78 75 72 71 62 58 54 52
27 27 28 28 28 28 30 32 35 38 39 41 39 39 38 41 36 32 27 23 18 16 18 19 21 23 27 33 38 42 43 30 28 44 67 70 75 76 78 81 79 77 74 72 60 58 56
26 26 27 29 31 34 36 39 39 40 43 44 42 41 39 38 33 28 24 19 18 16 20 24 24 28 29 32 38 42 42 37 23 32 55 73 77 82 80 82 82 83 81 78 73 63 59
29 30 32 34 36 38 41 42 43 43 44 45 45 42 39 34 29 27 23 18 18 19 23 27 30 32 34 35 38 41 43 40 22 25 41 68 81 85 84 84 87 88 86 82 81 70 67
36 37 38 38 40 43 44 44 43 43 43 43 43 39 37 32 27 24 19 16 20 21 23 28 32 34 36 38 40 41 42 42 36 21 34 51 78 83 86 85 86 89 88 86 83 77 73
40 41 42 44 45 46 46 45 45 44 43 40 39 37 34 31 23 20 16 19 23 26 29 33 35 37 39 41 42 43 42 42 37 24 23 40 66 83 88 86 85 90 91 90 88 83 80
47 48 48 48 48 46 45 44 42 41 40 37 36 36 33 30 23 18 18 22 26 30 33 35 36 40 43 45 45 44 45 41 38 32 15 29 51 79 90 90 91 88 92 95 94 92 90
49 49 49 48 46 44 43 42 41 38 36 35 35 33 33 29 24 22 19 21 27 32 36 39 41 43 50 53 49 43 42 40 36 31 22 15 41 65 88 93 91 91 91 94 98 97 92
47 47 46 46 45 43 41 40 39 37 35 34 34 32 30 29 24 24 23 25 29 33 39 44 45 47 40 35 35 33 33 32 31 30 26 15 23 48 76 93 94 92 91 91 100 99 95
46 47 47 45 44 41 39 37 36 34 32 33 33 30 24 25 24 26 29 31 35 38 42 46 46 31 34 36 36 31 31 29 28 29 25 22 10 28 58 84 98 98 95 92 95 97 98
50 49 47 44 42 41 41 39 38 34 32 30 29 26 25 29 29 29 31 35 37 41 44 45 33 32 38 40 39 34 29 26 27 28 25 23 19 15 39 69 90 101 97 94 92 95 98
51 52 52 53 50 47 44 38 38 36 34 32 30 30 31 31 32 32 34 36 39 40 44 39 33 34 39 41 40 33 28 26 25 27 28 24 21 14 26 51 76 92 100 98 94 92 92
55 55 53 52 52 50 46 42 41 40 39 36 35 34 32 33 35 36 37 38 40 43 40 35 33 37 41 40 38 30 27 26 27 27 27 27 27 20 16 37 58 84 95 102 100 97 94
59 56 56 54 52 50 49 47 45 43 44 43 39 38 40 38 35 36 40 41 43 45 44 37 33 39 41 38 37 32 26 26 28 29 30 30 33 27 27 27 47 64 93 101 103 101 98
60 57 58 56 52 52 50 49 50 48 48 45 44 45 41 40 39 40 40 43 44 42 39 35 35 39 40 37 35 29 24 26 29 32 33 37 34 37 36 26 42 56 73 97 104 105 103
59 57 54 53 52 50 49 50 49 50 46 47 47 45 41 39 37 39 41 42 43 39 36 31 34 37 37 36 32 30 28 29 31 35 39 40 44 44 37 32 41 54 65 81 101 101 105
56 56 55 50 48 48 46 47 49 47 46 43 45 45 43 39 35 36 37 39 38 34 32 32 35 38 37 36 35 32 31 31 36 42 45 47 47 40 36 37 40 54 64 76 87 103 108
52 54 49 46 45 43 44 46 43 45 46 43 44 43 44 41 37 37 37 38 37 33 36 33 37 38 39 35 37 34 33 35 43 46 50 51 44 40 36 40 46 53 63 73 84 100 106
51 47 42 40 40 39 38 38 38 37 41 45 47 45 43 43 40 39 40 38 35 36 33 34 38 41 40 36 38 34 34 41 46 48 47 43 42 44 38 40 50 54 61 70 79 87 101

GFSGBSN_250_spd_126.txt.gz
Wind_Speed
9 12 10 10 12 11 11 9 8 8 8 10 11 13 16 16 16 17 17 19 20 20 19 16 16 16 19 19 23 23 23 27 35 39 41 43 39 35 31 29 28 24 20 16 10 5 5
8 11 12 12 13 13 12 12 11 11 11 14 15 15 17 18 18 18 21 22 24 23 21 19 18 18 17 20 22 27 26 25 29 36 40 43 43 40 36 32 32 30 25 18 13 9 5
11 13 14 14 13 13 14 15 15 16 16 17 19 19 21 21 21 23 25 25 26 26 23 21 19 19 20 20 22 26 32 31 30 32 38 43 45 45 40 37 36 34 29 24 18 14 8
11 12 14 13 15 18 18 17 18 20 21 22 24 25 26 26 28 28 29 28 30 29 28 25 23 22 21 20 21 25 29 35 35 34 38 43 48 49 45 42 40 42 35 26 25 18 14
12 13 14 14 16 18 18 20 22 24 25 27 28 29 29 30 32 33 33 33 35 33 30 29 25 23 20 20 21 23 26 32 37 40 40 44 50 54 52 47 44 47 41 33 31 26 21
14 14 15 16 15 17 21 24 25 28 28 30 32 32 33 35 37 38 38 39 38 34 31 29 26 23 19 18 17 20 23 28 35 42 46 46 51 57 59 53 49 49 45 37 35 28 27
16 15 16 18 20 22 24 27 29 31 32 33 34 36 37 37 39 38 38 37 35 33 31 26 23 21 15 12 14 19 23 27 32 39 48 53 52 60 61 59 55 51 52 44 43 32 30
19 20 20 21 24 27 28 29 31 32 33 35 36 37 38 37 36 34 30 30 28 28 27 25 20 17 14 13 15 17 21 26 31 39 48 55 59 60 64 65 61 55 55 49 44 39 34
22 22 24 25 26 28 31 33 33 33 35 36 36 36 34 34 33 31 30 30 29 29 24 20 17 16 13 13 16 19 24 29 32 38 46 59 64 65 68 68 65 62 58 55 47 41 37
24 26 27 28 29 29 29 29 29 30 33 35 37 35 36 34 33 31 32 30 28 26 20 19 19 18 15 16 20 24 27 32 35 38 43 55 64 70 67 69 70 68 61 60 52 50 40
25 27 28 28 29 28 28 28 29 31 34 37 39 39 36 34 33 32 30 27 25 23 20 20 20 18 16 18 23 28 31 35 39 36 34 45 63 66 71 72 73 71 65 65 54 54 52
27 27 28 26 27 27 29 30 34 37 40 41 42 41 39 34 32 30 28 25 22 20 19 20 20 20 20 23 27 29 32 36 39 39 26 40 60 66 75 72 74 76 72 71 62 59 59
29 28 28 28 28 30 32 34 38 42 42 43 42 42 40 35 30 28 27 24 20 17 17 19 20 21 23 27 30 31 34 37 40 40 31 32 56 70 74 74 75 80 79 76 68 67 64
30 30 31 33 34 36 37 37 42 43 44 44 43 40 39 34 31 28 24 20 16 16 20 19 20 22 25 28 31 34 38 39 40 39 38 22 46 72 74 78 76 79 84 81 75 74 72
33 34 35 37 38 39 41 43 44 44 44 43 41 38 36 32 30 28 22 17 12 15 21 23 24 28 31 34 37 39 42 46 43 38 37 26 30 66 79 81 79 79 86 85 82 77 74
38 40 41 43 44 45 45 46 45 43 41 40 38 36 34 31 28 27 22 16 15 18 22 26 30 34 37 39 39 40 43 37 31 32 32 29 24 55 81 83 85 83 86 90 87 83 80
42 43 43 44 45 45 43 43 42 41 39 38 37 35 33 32 28 27 22 19 17 21 26 30 34 36 35 37 40 33 28 29 24 26 26 27 17 40 77 85 86 84 85 93 92 90 84
38 40 41 40 41 42 42 41 42 39 37 36 34 33 32 33 29 24 24 19 20 22 24 27 31 34 37 38 26 27 29 30 25 23 22 23 18 25 61 84 86 88 84 93 95 93 90
43 44 43 43 42 42 40 40 38 38 37 34 34 32 32 30 28 20 19 18 19 23 28 31 33 36 36 28 26 27 31 31 27 22 20 20 18 14 40 77 87 91 91 91 96 97 100
45 47 46 46 45 45 46 43 40 37 37 36 36 34 32 29 26 24 24 26 24 24 29 31 35 36 31 28 29 33 35 33 28 20 18 19 15 13 24 56 83 90 93 92 97 103 100
46 46 48 50 49 49 50 47 46 44 42 37 36 35 33 32 27 28 28 26 28 25 28 31 35 39 34 28 31 36 34 34 27 20 18 17 15 11 7 37 71 92 93 96 97 102 103
54 54 53 53 55 52 50 52 50 48 43 43 39 37 35 36 35 33 31 30 31 32 32 35 39 38 37 30 33 37 31 30 27 20 20 17 17 13 10 14 51 83 94 97 97 100 104
59 59 59 58 56 56 54 52 51 51 47 43 42 41 39 38 38 37 35 34 33 31 34 37 40 38 34 28 33 34 29 26 23 21 22 20 18 17 13 12 18 65 91 98 99 100 103
61 62 59 58 62 60 52 51 51 51 47 46 46 45 42 41 41 42 43 39 36 37 40 39 37 36 33 30 32 33 28 25 23 21 20 22 21 19 19 20 17 29 74 96 102 102 105
64 64 66 66 66 63 54 51 52 49 48 47 47 47 46 46 45 42 40 40 40 40 37 36 34 32 30 32 34 34 30 28 26 22 21 22 23 24 27 26 26 30 42 84 102 106 106
66 63 61 61 64 61 58 51 49 45 46 47 44 44 43 45 42 42 43 41 41 38 33 32 31 30 30 31 33 35 34 30 30 28 26 27 27 31 36 32 35 37 42 59 91 105 108
64 65 63 63 64 64 50 49 46 43 43 44 42 42 43 42 41 39 39 41 42 37 33 32 32 31 34 32 34 37 37 31 33 31 30 32 36 40 38 40 43 40 43 50 69 100 109
63 58 63 58 57 58 50 45 40 37 39 40 42 41 39 39 39 39 37 40 39 37 37 35 32 33 32 33 36 41 38 33 36 32 33 38 43 44 47 44 41 42 45 51 63 80 105
63 61 56 54 57 55 42 38 34 32 34 35 35 35 34 36 38 41 42 38 38 38 36 36 33 32 35 35 37 42 37 36 35 33 39 45 48 53 51 44 43 43 45 49 62 73 86